[[{"header":{"parameterUnit":"m.s-1","parameterCategory":1,"la1":31.0,"la2":29.5877,"lo1":-88.7671,"lo2":-86.6584,"dy":0.0162,"dx":0.0185,"nx":115,"ny":88,"refTime":"2024-07-09T06:00:00:Z","depth":0,"parameterNumber":2,"parameterNumberName":"U-component_of_WINDS"},"data":[0.0,0.0,0.0,0.0,0.0,0.0,0.0,0.0,0.0,0.0,0.0,0.0,0.0,0.0,0.0,0.0,0.0,0.0,0.0,0.0,0.0,0.0,0.0,0.0,0.0,0.0,0.0,0.0,0.0,0.0,0.0,0.0,0.0,0.0,0.0,0.0,0.0,0.0,0.0,0.0,0.0,0.0,0.0,0.0,0.0,0.0,0.0,0.0,0.0,0.0,0.0,0.0,0.0,0.0,0.0,0.0,0.0,0.0,0.0,0.0,0.0,0.0,0.0,0.0,0.0,0.0,0.0,0.0,0.0,0.0,0.0,0.0,0.0,0.0,0.0,0.0,0.0,0.0,0.0,0.0,0.0,0.0,0.0,0.0,0.0,0.0,0.0,0.0,0.0,0.0,0.0,0.0,0.0,0.0,0.0,0.0,0.0,0.0,0.0,0.0,0.0,0.0,0.0,0.0,0.0,0.0,0.0,0.0,0.0,0.0,0.0,0.0,0.0,0.0,0.0,0.0,0.0,0.0,0.0,0.0,0.0,0.0,0.0,0.0,0.0,0.0,0.0,0.0,0.0,0.0,0.0,0.0,0.0,0.0,0.0,0.0,0.0,0.0,0.0,0.0,0.0,0.0,0.0,0.0,0.0,0.0,0.0,0.0,0.0,0.0,0.0,0.0,0.0,0.0,0.0,0.0,0.0,0.0,0.0,0.0,0.0,0.0,0.0,0.0,0.0,0.0,0.0,0.0,0.0,0.0,0.0,0.0,0.0,0.0,0.0,0.0,0.0,0.0,0.0,0.0,0.0,0.0,0.0,0.0,0.0,0.0,0.0,0.0,0.0,0.0,0.0,0.0,0.0,0.0,0.0,0.0,0.0,0.0,0.0,0.0,0.0,0.0,0.0,0.0,0.0,0.0,0.0,0.0,0.0,0.0,0.0,0.0,0.0,0.0,0.0,0.0,0.0,0.0,0.0,0.0,0.0,0.0,0.0,0.0,0.0,0.0,0.0,0.0,0.0,0.0,0.0,0.0,0.0,0.0,0.0,0.0,0.0,0.0,0.0,0.0,0.0,0.0,0.0,0.0,0.0,0.0,0.0,0.0,0.0,0.0,0.0,0.0,0.0,0.0,0.0,0.0,0.0,0.0,0.0,0.0,0.0,0.0,0.0,0.0,0.0,0.0,0.0,0.0,0.0,0.0,0.0,0.0,0.0,0.0,0.0,0.0,0.0,0.0,0.0,0.0,0.0,0.0,0.0,0.0,0.0,0.0,0.0,0.0,0.0,0.0,0.0,0.0,0.0,0.0,0.0,0.0,0.0,0.0,0.0,0.0,0.0,0.0,0.0,0.0,0.0,0.0,0.0,0.0,0.0,0.0,0.0,0.0,0.0,0.0,0.0,0.0,0.0,0.0,0.0,0.0,0.0,0.0,0.0,0.0,0.0,0.0,0.0,0.0,0.0,0.0,0.0,0.0,0.0,0.0,0.0,0.0,0.0,0.0,0.0,0.0,0.0,0.0,0.0,0.0,0.0,0.0,0.0,0.0,0.0,0.0,0.0,0.0,0.0,0.0,0.0,0.0,0.0,0.0,0.0,0.0,0.0,0.0,0.0,0.0,0.0,0.0,0.0,0.0,0.0,0.0,0.0,0.0,0.0,0.0,0.0,0.0,0.0,0.0,0.0,0.0,0.0,0.0,0.0,0.0,0.0,0.0,0.0,0.0,0.0,0.0,0.0,0.0,0.0,0.0,0.0,0.0,0.0,0.0,0.0,0.0,0.0,0.0,0.0,0.0,0.0,0.0,0.0,0.0,0.0,0.0,0.0,0.0,0.0,0.0,0.0,0.0,0.0,0.0,0.0,0.0,0.0,0.0,0.0,0.0,0.0,0.0,0.0,0.0,0.0,0.0,0.0,0.0,0.0,0.0,0.0,0.0,0.0,0.0,0.0,0.0,0.0,0.0,0.0,0.0,0.0,0.0,0.0,0.0,0.0,0.0,0.0,0.0,0.0,0.0,0.0,0.0,0.0,0.0,0.0,0.0,0.0,0.0,0.0,0.0,0.0,0.0,0.0,0.0,0.0,0.0,0.0,0.0,0.0,0.0,0.0,0.0,0.0,0.0,0.0,0.0,0.0,0.0,0.0,0.0,0.0,0.0,0.0,0.0,0.0,0.0,0.0,0.0,0.0,0.0,0.0,0.0,0.0,0.0,0.0,0.0,0.0,0.0,0.0,0.0,0.0,0.0,0.0,0.0,0.0,0.0,0.0,0.0,0.0,0.0,0.0,0.0,0.0,0.0,0.0,0.0,0.0,0.0,0.0,0.0,0.0,0.0,0.0,0.0,0.0,0.0,0.0,0.0,0.0,0.0,0.0,0.0,0.0,0.0,0.0,0.0,0.0,0.0,0.0,0.0,0.0,0.0,0.0,0.0,0.0,0.0,0.0,0.0,0.0,0.0,0.0,0.0,0.0,0.0,0.0,0.0,0.0,0.0,0.0,0.0,0.0,0.0,0.0,0.0,0.0,0.0,0.0,0.0,0.0,0.0,0.0,0.0,0.0,0.0,0.0,0.0,0.0,0.0,0.0,0.0,0.0,0.0,0.0,0.0,0.0,0.0,0.0,0.0,0.0,0.0,0.0,0.0,0.0,0.0,0.0,0.0,0.0,0.0,0.0,0.0,0.0,0.0,0.0,0.0,0.0,0.0,0.0,0.0,0.0,0.0,0.0,0.0,0.0,0.0,0.0,0.0,0.0,0.0,0.0,0.0,0.0,0.0,0.0,0.0,0.0,0.0,0.0,0.0,0.0,0.0,0.0,0.0,0.0,0.0,0.0,0.0,0.0,0.0,0.0,0.0,0.0,0.0,0.0,0.0,0.0,0.0,0.0,0.0,0.0,0.0,0.0,0.0,0.0,0.0,0.0,0.0,0.0,0.0,0.0,0.0,0.0,0.0,0.0,0.0,0.0,0.0,0.0,0.0,0.0,0.0,0.0,0.0,0.0,0.0,0.0,0.0,0.0,0.0,0.0,0.0,0.0,0.0,0.0,0.0,0.0,0.0,0.0,0.0,0.0,0.0,0.0,0.0,0.0,0.0,0.0,0.0,0.0,0.0,0.0,0.0,0.0,0.0,0.0,0.0,0.0,0.0,0.0,0.0,0.0,0.0,0.0,0.0,0.0,0.0,0.0,0.0,0.0,0.0,0.0,0.0,0.0,0.0,0.0,0.0,0.0,0.0,0.0,0.0,0.0,0.0,0.0,0.0,0.0,0.0,0.0,0.0,0.0,0.0,0.0,0.0,0.0,0.0,0.0,0.0,0.0,0.0,0.0,0.0,0.0,0.0,0.0,0.0,0.0,0.0,0.0,0.0,0.0,0.0,0.0,0.0,0.0,0.0,0.0,0.0,0.0,0.0,0.0,0.0,0.0,0.0,0.0,0.0,0.0,0.0,0.0,0.0,0.0,0.0,0.0,0.0,0.0,0.0,0.0,0.0,0.0,0.0,0.0,0.0,0.0,0.0,0.0,0.0,0.0,0.0,0.0,0.0,0.0,0.0,0.0,0.0,0.0,0.0,0.0,0.0,0.0,0.0,0.0,0.0,0.0,0.0,0.0,0.0,0.0,0.0,0.0,0.0,0.0,0.0,0.0,0.0,0.0,0.0,0.0,0.0,0.0,0.0,0.0,0.0,0.0,0.0,0.0,0.0,0.0,0.0,0.0,0.0,0.0,0.0,0.0,0.0,0.0,0.0,0.0,0.0,0.0,0.0,0.0,0.0,0.0,0.0,0.0,0.0,0.0,0.0,0.0,0.0,0.0,0.0,0.0,0.0,0.0,0.0,0.0,0.0,0.0,0.0,0.0,0.0,0.0,0.0,0.0,0.0,0.0,0.0,0.0,0.0,0.0,0.0,0.0,0.0,0.0,0.0,0.0,0.0,0.0,0.0,0.0,0.0,0.0,0.0,0.0,0.0,0.0,0.0,0.0,0.0,0.0,0.0,0.0,0.0,0.0,0.0,0.0,0.0,0.0,0.0,0.0,0.0,0.0,0.0,0.0,0.0,0.0,0.0,0.0,0.0,0.0,0.0,0.0,0.0,0.0,0.0,0.0,0.0,0.0,0.0,0.0,0.0,0.0,0.0,0.0,0.0,0.0,0.0,0.0,0.0,0.0,0.0,0.0,0.0,0.0,0.0,0.0,0.0,0.0,0.0,0.0,0.0,0.0,0.0,0.0,0.0,0.0,0.0,0.0,0.0,0.0,0.0,0.0,0.0,0.0,0.0,-2.3591,0.0,0.0,0.0,0.0,0.0,0.0,0.0,0.0,0.0,0.0,0.0,0.0,0.0,0.0,0.0,0.0,0.0,0.0,0.0,0.0,0.0,0.0,0.0,0.0,0.0,0.0,0.0,0.0,0.0,0.0,0.0,0.0,0.0,0.0,0.0,0.0,0.0,0.0,0.0,0.0,0.0,0.0,0.0,0.0,0.0,0.0,0.0,0.0,0.0,0.0,0.0,0.0,0.0,0.0,0.0,0.0,0.0,0.0,0.0,0.0,0.0,0.0,0.0,0.0,0.0,0.0,0.0,0.0,0.0,0.0,0.0,0.0,0.0,0.0,0.0,0.0,0.0,0.0,0.0,0.0,0.0,0.0,0.0,0.0,0.0,0.0,0.0,0.0,0.0,0.0,0.0,0.0,0.0,0.0,0.0,0.0,0.0,0.0,0.0,0.0,0.0,0.0,0.0,0.0,0.0,0.0,0.0,0.0,0.0,0.0,-2.4782,-2.5834,-2.5214,-2.4616,-2.4088,0.0,0.0,0.0,0.0,0.0,0.0,0.0,0.0,0.0,0.0,0.0,0.0,0.0,0.0,0.0,0.0,0.0,0.0,0.0,0.0,0.0,0.0,0.0,0.0,0.0,0.0,0.0,0.0,0.0,0.0,0.0,0.0,0.0,0.0,0.0,0.0,0.0,0.0,0.0,0.0,0.0,0.0,0.0,0.0,0.0,0.0,0.0,0.0,0.0,0.0,0.0,0.0,0.0,0.0,0.0,0.0,0.0,0.0,0.0,0.0,0.0,0.0,0.0,0.0,0.0,0.0,0.0,0.0,0.0,0.0,0.0,0.0,0.0,0.0,0.0,0.0,0.0,0.0,0.0,0.0,0.0,0.0,0.0,0.0,0.0,0.0,0.0,0.0,0.0,0.0,0.0,0.0,0.0,0.0,0.0,0.0,0.0,0.0,0.0,0.0,0.0,0.0,0.0,0.0,0.0,0.0,0.0,0.0,0.0,0.0,0.0,0.0,-2.6538,-2.5709,-2.4763,0.0,0.0,0.0,0.0,0.0,0.0,0.0,0.0,0.0,0.0,0.0,0.0,0.0,0.0,0.0,0.0,0.0,0.0,0.0,0.0,0.0,0.0,0.0,0.0,0.0,0.0,0.0,0.0,0.0,0.0,0.0,0.0,0.0,0.0,0.0,0.0,0.0,0.0,0.0,0.0,0.0,0.0,0.0,0.0,0.0,0.0,0.0,0.0,0.0,0.0,0.0,0.0,0.0,0.0,0.0,0.0,0.0,0.0,0.0,0.0,0.0,0.0,0.0,0.0,0.0,0.0,0.0,0.0,0.0,0.0,0.0,0.0,0.0,0.0,0.0,0.0,0.0,0.0,0.0,0.0,0.0,0.0,0.0,0.0,0.0,0.0,0.0,0.0,0.0,0.0,0.0,0.0,0.0,0.0,0.0,0.0,0.0,0.0,0.0,0.0,0.0,0.0,0.0,0.0,0.0,0.0,0.0,0.0,0.0,0.0,-2.6639,-2.8778,-2.8151,0.0,-2.5625,0.0,0.0,0.0,0.0,0.0,0.0,0.0,0.0,0.0,0.0,0.0,0.0,0.0,0.0,0.0,0.0,0.0,0.0,0.0,0.0,0.0,0.0,0.0,0.0,0.0,0.0,0.0,0.0,0.0,0.0,0.0,0.0,0.0,0.0,0.0,0.0,0.0,0.0,0.0,0.0,0.0,0.0,0.0,0.0,0.0,0.0,0.0,0.0,0.0,0.0,0.0,0.0,0.0,0.0,0.0,0.0,0.0,0.0,0.0,0.0,0.0,0.0,0.0,0.0,0.0,0.0,0.0,0.0,0.0,0.0,0.0,0.0,0.0,0.0,0.0,0.0,0.0,0.0,0.0,0.0,0.0,0.0,0.0,0.0,0.0,0.0,0.0,0.0,0.0,0.0,0.0,0.0,0.0,0.0,0.0,0.0,0.0,0.0,0.0,0.0,0.0,0.0,0.0,0.0,0.0,0.0,0.0,0.0,0.0,0.0,0.0,-2.9013,-2.786,-2.6945,0.0,0.0,0.0,0.0,0.0,0.0,0.0,0.0,0.0,0.0,0.0,0.0,0.0,0.0,0.0,0.0,0.0,0.0,0.0,0.0,0.0,0.0,0.0,0.0,0.0,0.0,0.0,0.0,0.0,0.0,0.0,0.0,0.0,0.0,0.0,0.0,0.0,0.0,0.0,0.0,0.0,0.0,0.0,0.0,0.0,0.0,0.0,0.0,0.0,0.0,0.0,0.0,0.0,0.0,0.0,0.0,0.0,0.0,0.0,0.0,0.0,0.0,0.0,0.0,0.0,0.0,0.0,0.0,0.0,0.0,0.0,0.0,0.0,0.0,0.0,0.0,0.0,0.0,0.0,0.0,0.0,0.0,0.0,0.0,0.0,0.0,0.0,0.0,0.0,0.0,0.0,0.0,0.0,0.0,0.0,0.0,0.0,0.0,0.0,0.0,0.0,0.0,0.0,0.0,0.0,0.0,0.0,0.0,0.0,0.0,-2.7604,0.0,-2.9465,-2.8518,-2.7554,-2.6725,0.0,0.0,0.0,0.0,0.0,0.0,0.0,0.0,0.0,0.0,0.0,0.0,0.0,0.0,0.0,0.0,0.0,0.0,0.0,0.0,0.0,0.0,0.0,0.0,0.0,0.0,0.0,0.0,0.0,0.0,0.0,0.0,0.0,0.0,0.0,0.0,0.0,0.0,0.0,0.0,0.0,0.0,0.0,0.0,0.0,0.0,0.0,0.0,0.0,0.0,0.0,0.0,0.0,0.0,0.0,0.0,0.0,0.0,0.0,0.0,0.0,0.0,0.0,0.0,0.0,0.0,0.0,0.0,0.0,0.0,0.0,0.0,0.0,0.0,0.0,0.0,0.0,0.0,0.0,0.0,0.0,0.0,0.0,0.0,0.0,0.0,0.0,0.0,0.0,0.0,0.0,0.0,0.0,0.0,0.0,0.0,0.0,0.0,0.0,0.0,0.0,0.0,0.0,0.0,0.0,0.0,0.0,0.0,0.0,-2.8873,-2.9634,-3.1055,-3.1021,-2.9634,0.0,0.0,0.0,0.0,0.0,0.0,0.0,0.0,0.0,0.0,0.0,0.0,0.0,0.0,0.0,0.0,0.0,0.0,0.0,0.0,0.0,0.0,0.0,0.0,0.0,0.0,0.0,0.0,0.0,0.0,0.0,0.0,0.0,0.0,0.0,0.0,0.0,0.0,0.0,0.0,0.0,0.0,0.0,0.0,0.0,0.0,0.0,0.0,0.0,0.0,0.0,0.0,0.0,0.0,0.0,0.0,0.0,0.0,0.0,0.0,0.0,0.0,0.0,0.0,0.0,0.0,0.0,0.0,0.0,0.0,0.0,0.0,0.0,0.0,0.0,0.0,0.0,0.0,0.0,0.0,0.0,0.0,0.0,0.0,0.0,0.0,0.0,0.0,0.0,0.0,0.0,0.0,0.0,0.0,0.0,0.0,0.0,0.0,0.0,0.0,0.0,0.0,0.0,0.0,0.0,0.0,0.0,0.0,0.0,-2.681,-2.8704,-3.0869,-3.3102,-3.0548,-2.8755,0.0,0.0,0.0,0.0,0.0,0.0,0.0,0.0,0.0,0.0,0.0,0.0,0.0,0.0,0.0,0.0,0.0,0.0,0.0,0.0,0.0,0.0,0.0,0.0,0.0,0.0,0.0,0.0,0.0,0.0,0.0,0.0,0.0,0.0,0.0,0.0,0.0,0.0,0.0,0.0,0.0,0.0,0.0,0.0,0.0,0.0,0.0,0.0,0.0,0.0,0.0,0.0,0.0,0.0,0.0,0.0,0.0,0.0,0.0,0.0,0.0,0.0,0.0,0.0,0.0,0.0,0.0,0.0,0.0,0.0,0.0,0.0,0.0,0.0,0.0,0.0,0.0,0.0,0.0,0.0,0.0,0.0,0.0,0.0,0.0,0.0,0.0,0.0,0.0,0.0,0.0,0.0,0.0,0.0,0.0,0.0,0.0,0.0,0.0,0.0,0.0,0.0,0.0,0.0,0.0,0.0,0.0,0.0,0.0,-2.7402,0.0,-3.1901,0.0,-3.0277,-2.823,0.0,0.0,0.0,0.0,0.0,0.0,0.0,0.0,0.0,0.0,0.0,0.0,0.0,0.0,0.0,0.0,0.0,0.0,0.0,0.0,0.0,0.0,0.0,0.0,0.0,0.0,0.0,0.0,0.0,0.0,0.0,0.0,0.0,0.0,0.0,0.0,0.0,0.0,0.0,0.0,0.0,0.0,0.0,0.0,0.0,0.0,0.0,0.0,0.0,0.0,0.0,0.0,0.0,0.0,0.0,0.0,0.0,0.0,0.0,0.0,0.0,0.0,0.0,0.0,0.0,0.0,0.0,0.0,0.0,0.0,0.0,0.0,0.0,0.0,0.0,0.0,0.0,0.0,0.0,0.0,0.0,0.0,0.0,0.0,0.0,0.0,0.0,0.0,0.0,0.0,0.0,0.0,0.0,0.0,0.0,0.0,0.0,0.0,0.0,0.0,0.0,0.0,0.0,0.0,0.0,0.0,0.0,0.0,-2.6708,-3.0937,-3.2527,-3.2679,-3.1326,-3.048,-2.8332,0.0,0.0,0.0,0.0,0.0,0.0,0.0,0.0,0.0,0.0,0.0,0.0,0.0,0.0,0.0,0.0,0.0,0.0,0.0,0.0,0.0,0.0,0.0,0.0,0.0,0.0,0.0,0.0,0.0,0.0,0.0,0.0,0.0,0.0,0.0,0.0,0.0,0.0,0.0,0.0,0.0,0.0,0.0,0.0,0.0,0.0,0.0,0.0,0.0,0.0,0.0,0.0,0.0,0.0,0.0,0.0,0.0,0.0,0.0,0.0,0.0,0.0,0.0,0.0,0.0,0.0,0.0,0.0,0.0,0.0,0.0,0.0,0.0,0.0,0.0,0.0,0.0,0.0,0.0,0.0,0.0,0.0,0.0,0.0,0.0,0.0,0.0,0.0,0.0,0.0,0.0,0.0,0.0,0.0,0.0,0.0,0.0,0.0,0.0,0.0,0.0,0.0,0.0,0.0,0.0,0.0,0.0,0.0,0.0,-3.0429,-3.1884,-3.2899,-3.3355,-3.0768,-2.8789,0.0,0.0,0.0,0.0,0.0,0.0,0.0,0.0,0.0,0.0,0.0,0.0,0.0,0.0,0.0,0.0,0.0,0.0,0.0,0.0,0.0,0.0,0.0,0.0,0.0,0.0,0.0,0.0,0.0,0.0,0.0,0.0,0.0,0.0,0.0,0.0,0.0,0.0,0.0,0.0,0.0,0.0,0.0,0.0,0.0,0.0,0.0,0.0,0.0,0.0,0.0,0.0,0.0,0.0,0.0,0.0,0.0,0.0,0.0,0.0,0.0,0.0,0.0,0.0,0.0,0.0,0.0,0.0,0.0,0.0,0.0,0.0,0.0,0.0,0.0,0.0,0.0,0.0,0.0,0.0,0.0,0.0,0.0,0.0,0.0,0.0,0.0,0.0,0.0,0.0,0.0,0.0,0.0,0.0,0.0,0.0,0.0,0.0,0.0,0.0,0.0,0.0,0.0,0.0,0.0,0.0,0.0,0.0,0.0,-3.1376,-3.2763,-3.3694,-3.4083,-3.1038,-2.8991,-2.8112,0.0,0.0,0.0,0.0,0.0,0.0,0.0,0.0,0.0,0.0,0.0,0.0,0.0,0.0,0.0,0.0,0.0,0.0,0.0,0.0,0.0,0.0,0.0,0.0,0.0,0.0,0.0,0.0,0.0,0.0,0.0,0.0,0.0,0.0,0.0,0.0,0.0,0.0,0.0,0.0,0.0,0.0,0.0,0.0,0.0,0.0,0.0,0.0,0.0,0.0,0.0,0.0,0.0,0.0,0.0,0.0,0.0,0.0,0.0,0.0,0.0,0.0,0.0,0.0,0.0,0.0,0.0,0.0,0.0,0.0,0.0,0.0,0.0,0.0,0.0,0.0,0.0,0.0,0.0,0.0,0.0,0.0,0.0,0.0,0.0,0.0,0.0,0.0,0.0,0.0,0.0,0.0,0.0,0.0,0.0,0.0,0.0,0.0,0.0,0.0,0.0,0.0,0.0,0.0,0.0,0.0,0.0,0.0,-3.3508,-3.4945,-3.5013,-3.366,-3.1478,-2.9211,0.0,0.0,0.0,0.0,0.0,0.0,0.0,0.0,0.0,0.0,0.0,0.0,0.0,0.0,0.0,0.0,0.0,0.0,0.0,0.0,0.0,0.0,0.0,0.0,0.0,0.0,0.0,0.0,0.0,0.0,0.0,0.0,0.0,0.0,0.0,0.0,0.0,0.0,0.0,0.0,0.0,0.0,0.0,0.0,0.0,0.0,0.0,0.0,0.0,0.0,0.0,0.0,0.0,0.0,0.0,0.0,0.0,0.0,0.0,0.0,0.0,0.0,0.0,0.0,0.0,0.0,0.0,0.0,0.0,0.0,0.0,0.0,0.0,0.0,0.0,0.0,0.0,0.0,0.0,0.0,0.0,0.0,0.0,0.0,0.0,0.0,0.0,0.0,0.0,0.0,0.0,0.0,0.0,0.0,0.0,0.0,0.0,0.0,0.0,0.0,0.0,0.0,0.0,0.0,0.0,0.0,0.0,0.0,0.0,-3.4979,-3.5977,-3.6299,-3.5859,-3.3711,-3.1495,0.0,0.0,0.0,0.0,0.0,0.0,0.0,0.0,0.0,0.0,0.0,0.0,0.0,0.0,0.0,0.0,0.0,0.0,0.0,0.0,0.0,0.0,0.0,0.0,0.0,0.0,0.0,0.0,0.0,0.0,0.0,0.0,0.0,0.0,0.0,0.0,0.0,0.0,0.0,0.0,0.0,0.0,0.0,0.0,0.0,0.0,0.0,0.0,0.0,0.0,0.0,0.0,0.0,0.0,0.0,0.0,0.0,0.0,0.0,0.0,0.0,0.0,0.0,0.0,0.0,0.0,0.0,0.0,0.0,0.0,0.0,0.0,0.0,0.0,0.0,0.0,0.0,0.0,0.0,0.0,0.0,0.0,0.0,0.0,0.0,0.0,0.0,0.0,0.0,0.0,0.0,0.0,0.0,0.0,0.0,0.0,0.0,0.0,0.0,0.0,0.0,0.0,0.0,0.0,0.0,0.0,0.0,0.0,-3.3525,-3.6062,-3.6535,-3.6924,-3.7246,-3.5064,-3.2679,0.0,0.0,0.0,0.0,0.0,0.0,0.0,0.0,0.0,0.0,0.0,0.0,0.0,0.0,0.0,0.0,0.0,0.0,0.0,0.0,0.0,0.0,0.0,0.0,0.0,0.0,0.0,0.0,0.0,0.0,0.0,0.0,0.0,0.0,0.0,0.0,0.0,0.0,0.0,0.0,0.0,0.0,0.0,0.0,0.0,0.0,0.0,0.0,0.0,0.0,0.0,0.0,0.0,0.0,0.0,0.0,0.0,0.0,0.0,0.0,0.0,0.0,0.0,0.0,0.0,0.0,0.0,0.0,0.0,0.0,0.0,0.0,0.0,0.0,0.0,0.0,0.0,0.0,0.0,0.0,0.0,0.0,0.0,0.0,0.0,0.0,0.0,0.0,0.0,0.0,0.0,0.0,0.0,0.0,0.0,0.0,0.0,0.0,0.0,0.0,0.0,0.0,0.0,0.0,0.0,0.0,0.0,0.0,-3.3897,-3.6721,-3.6789,-3.7127,-3.7804,-3.5757,-3.322,0.0,0.0,0.0,0.0,0.0,0.0,0.0,0.0,0.0,0.0,0.0,0.0,0.0,0.0,0.0,0.0,0.0,0.0,0.0,0.0,0.0,0.0,0.0,0.0,0.0,0.0,0.0,0.0,0.0,0.0,0.0,0.0,0.0,0.0,0.0,0.0,0.0,0.0,0.0,0.0,0.0,0.0,0.0,0.0,0.0,0.0,0.0,0.0,0.0,0.0,0.0,0.0,0.0,0.0,0.0,0.0,0.0,0.0,0.0,0.0,0.0,0.0,0.0,0.0,0.0,0.0,0.0,0.0,0.0,0.0,0.0,0.0,0.0,0.0,0.0,0.0,0.0,0.0,0.0,0.0,0.0,0.0,0.0,0.0,0.0,0.0,0.0,0.0,0.0,0.0,0.0,0.0,0.0,0.0,0.0,0.0,0.0,0.0,0.0,0.0,0.0,0.0,0.0,0.0,0.0,0.0,0.0,0.0,-3.4912,-3.6721,-3.6789,-3.7144,-3.7889,-3.6265,-3.3998,0.0,0.0,0.0,0.0,0.0,0.0,0.0,0.0,0.0,0.0,0.0,0.0,0.0,0.0,0.0,0.0,0.0,0.0,0.0,0.0,0.0,0.0,0.0,0.0,0.0,0.0,0.0,0.0,0.0,0.0,0.0,0.0,0.0,0.0,0.0,0.0,0.0,0.0,0.0,0.0,0.0,0.0,0.0,0.0,0.0,0.0,0.0,0.0,-3.1816,0.0,0.0,0.0,0.0,0.0,0.0,0.0,0.0,0.0,0.0,0.0,0.0,0.0,0.0,0.0,0.0,0.0,0.0,0.0,0.0,0.0,0.0,0.0,0.0,0.0,0.0,0.0,0.0,0.0,0.0,0.0,0.0,0.0,0.0,0.0,0.0,0.0,0.0,0.0,0.0,0.0,0.0,0.0,0.0,0.0,0.0,0.0,0.0,0.0,0.0,0.0,0.0,0.0,0.0,0.0,0.0,0.0,0.0,0.0,-3.5233,-3.6688,-3.6417,-3.6603,-3.7297,-3.6231,-3.4218,0.0,0.0,0.0,0.0,0.0,0.0,0.0,0.0,0.0,0.0,0.0,0.0,0.0,0.0,0.0,0.0,0.0,0.0,0.0,0.0,0.0,0.0,0.0,0.0,0.0,0.0,0.0,0.0,0.0,0.0,0.0,0.0,0.0,0.0,0.0,0.0,0.0,0.0,0.0,0.0,0.0,0.0,0.0,0.0,0.0,0.0,0.0,0.0,0.0,0.0,0.0,0.0,0.0,0.0,0.0,0.0,0.0,0.0,0.0,0.0,0.0,0.0,0.0,0.0,0.0,0.0,0.0,0.0,0.0,0.0,0.0,0.0,0.0,0.0,0.0,0.0,0.0,0.0,0.0,0.0,0.0,0.0,0.0,0.0,0.0,0.0,0.0,0.0,0.0,0.0,0.0,0.0,0.0,0.0,0.0,0.0,0.0,0.0,0.0,0.0,0.0,0.0,0.0,0.0,0.0,0.0,0.0,-3.3372,-3.5131,-3.6671,-3.6028,-3.5994,-3.6755,-3.6028,-3.4175,-3.1326,0.0,0.0,0.0,0.0,0.0,0.0,0.0,0.0,0.0,0.0,0.0,0.0,0.0,0.0,0.0,0.0,0.0,0.0,0.0,0.0,0.0,0.0,0.0,0.0,0.0,0.0,0.0,0.0,0.0,0.0,0.0,0.0,0.0,0.0,0.0,0.0,0.0,0.0,-2.8166,-3.0229,0.0,0.0,0.0,0.0,0.0,0.0,0.0,0.0,-3.415,0.0,0.0,0.0,0.0,0.0,0.0,0.0,0.0,0.0,0.0,0.0,0.0,0.0,0.0,0.0,0.0,0.0,0.0,0.0,0.0,0.0,0.0,0.0,0.0,0.0,0.0,0.0,0.0,0.0,0.0,0.0,0.0,0.0,0.0,0.0,0.0,0.0,0.0,0.0,0.0,0.0,0.0,0.0,0.0,0.0,0.0,0.0,0.0,0.0,0.0,0.0,0.0,0.0,0.0,0.0,0.0,-3.2983,-3.3406,-3.4607,-3.6751,-3.6028,-3.5994,-3.6721,-3.5971,-3.4105,-3.1223,0.0,0.0,0.0,0.0,0.0,0.0,0.0,0.0,0.0,0.0,0.0,0.0,0.0,0.0,0.0,0.0,0.0,0.0,0.0,0.0,0.0,0.0,0.0,0.0,0.0,0.0,0.0,0.0,0.0,0.0,0.0,0.0,0.0,0.0,0.0,0.0,0.0,0.0,0.0,-3.2765,-3.4122,0.0,0.0,0.0,0.0,0.0,0.0,0.0,0.0,-3.5216,0.0,0.0,0.0,0.0,0.0,0.0,0.0,0.0,0.0,0.0,0.0,0.0,0.0,0.0,0.0,0.0,0.0,0.0,0.0,0.0,0.0,0.0,0.0,0.0,0.0,0.0,0.0,0.0,0.0,0.0,0.0,0.0,0.0,0.0,0.0,0.0,0.0,0.0,0.0,0.0,0.0,0.0,0.0,0.0,0.0,0.0,0.0,0.0,0.0,0.0,0.0,0.0,0.0,0.0,0.0,-3.2188,-3.3736,-3.507,-3.6129,-3.578,-3.5734,-3.6089,-3.5009,-3.333,0.0,0.0,0.0,0.0,0.0,0.0,0.0,0.0,0.0,0.0,0.0,0.0,0.0,0.0,0.0,0.0,0.0,0.0,0.0,0.0,0.0,0.0,0.0,0.0,0.0,0.0,0.0,0.0,0.0,0.0,0.0,0.0,0.0,0.0,0.0,0.0,0.0,0.0,0.0,0.0,-3.3362,-3.4751,-3.5833,0.0,0.0,0.0,0.0,0.0,0.0,-3.5639,-3.5487,0.0,0.0,0.0,0.0,0.0,0.0,0.0,0.0,0.0,0.0,0.0,0.0,0.0,0.0,0.0,0.0,0.0,0.0,0.0,0.0,0.0,0.0,0.0,0.0,0.0,0.0,0.0,0.0,0.0,0.0,0.0,0.0,0.0,0.0,0.0,0.0,0.0,0.0,0.0,0.0,0.0,0.0,0.0,0.0,0.0,0.0,0.0,0.0,0.0,0.0,0.0,0.0,0.0,0.0,0.0,-3.0948,-3.3524,-3.5043,-3.5341,-3.5436,-3.5453,-3.5256,-3.4165,-3.2631,0.0,0.0,0.0,0.0,0.0,0.0,0.0,0.0,0.0,0.0,0.0,0.0,0.0,0.0,0.0,0.0,0.0,0.0,0.0,0.0,0.0,0.0,0.0,0.0,0.0,0.0,0.0,0.0,0.0,0.0,0.0,0.0,0.0,0.0,0.0,0.0,0.0,0.0,0.0,0.0,0.0,-3.5383,-3.6446,-3.6417,0.0,0.0,0.0,0.0,-3.627,-3.6253,0.0,0.0,0.0,0.0,0.0,0.0,0.0,0.0,0.0,0.0,0.0,0.0,0.0,0.0,0.0,0.0,0.0,0.0,0.0,0.0,0.0,0.0,0.0,0.0,0.0,0.0,0.0,0.0,0.0,0.0,0.0,0.0,0.0,0.0,0.0,0.0,0.0,0.0,0.0,0.0,0.0,0.0,0.0,0.0,0.0,0.0,0.0,0.0,0.0,0.0,0.0,0.0,0.0,0.0,0.0,0.0,-2.9889,-3.1753,-3.3296,-3.4492,-3.5194,-3.5228,-3.456,-3.4225,-3.273,0.0,0.0,0.0,0.0,0.0,0.0,0.0,0.0,0.0,0.0,0.0,0.0,0.0,0.0,0.0,0.0,0.0,0.0,0.0,0.0,0.0,0.0,0.0,0.0,0.0,0.0,0.0,0.0,0.0,0.0,0.0,0.0,0.0,0.0,0.0,0.0,0.0,0.0,0.0,0.0,0.0,-3.7068,-3.7334,-3.8001,-3.847,0.0,0.0,-3.8567,-3.842,-3.8437,0.0,0.0,0.0,0.0,0.0,0.0,0.0,0.0,0.0,0.0,0.0,0.0,0.0,0.0,0.0,0.0,0.0,0.0,0.0,0.0,0.0,0.0,0.0,0.0,0.0,0.0,0.0,0.0,0.0,0.0,0.0,0.0,0.0,0.0,0.0,0.0,0.0,0.0,0.0,0.0,0.0,0.0,0.0,0.0,0.0,0.0,0.0,0.0,0.0,0.0,0.0,0.0,0.0,0.0,0.0,-2.7748,-2.9811,-3.1707,-3.3211,-3.428,-3.4185,-3.4097,-3.4153,-3.2964,-3.1449,0.0,0.0,0.0,0.0,0.0,0.0,0.0,0.0,0.0,0.0,0.0,0.0,0.0,0.0,0.0,0.0,0.0,0.0,0.0,0.0,0.0,0.0,0.0,0.0,0.0,0.0,0.0,0.0,0.0,0.0,0.0,0.0,0.0,0.0,0.0,0.0,0.0,0.0,0.0,0.0,0.0,0.0,-3.7752,-3.8355,0.0,0.0,0.0,-3.8606,-3.8153,0.0,0.0,0.0,0.0,0.0,0.0,0.0,0.0,0.0,0.0,0.0,0.0,0.0,0.0,0.0,0.0,0.0,0.0,0.0,0.0,0.0,0.0,0.0,0.0,0.0,0.0,0.0,0.0,0.0,0.0,0.0,0.0,0.0,0.0,0.0,0.0,0.0,0.0,0.0,0.0,0.0,0.0,0.0,0.0,0.0,0.0,0.0,0.0,0.0,0.0,0.0,0.0,0.0,0.0,0.0,0.0,0.0,-2.952,-3.1617,-3.2988,-3.3654,-3.3205,-3.3084,-3.3389,-3.1926,0.0,0.0,0.0,0.0,0.0,0.0,0.0,0.0,0.0,0.0,0.0,0.0,0.0,0.0,0.0,0.0,0.0,0.0,0.0,0.0,0.0,0.0,0.0,0.0,0.0,0.0,0.0,-2.0228,0.0,0.0,0.0,0.0,0.0,0.0,0.0,0.0,0.0,0.0,0.0,0.0,0.0,0.0,-3.687,-3.8046,-3.8552,-3.8772,0.0,0.0,-3.869,-3.8104,-3.7853,-3.7468,0.0,0.0,0.0,0.0,0.0,0.0,0.0,0.0,0.0,0.0,0.0,0.0,0.0,0.0,0.0,0.0,0.0,0.0,0.0,0.0,0.0,0.0,0.0,0.0,0.0,0.0,0.0,0.0,0.0,0.0,0.0,0.0,0.0,0.0,0.0,0.0,0.0,0.0,0.0,0.0,0.0,0.0,0.0,0.0,0.0,0.0,0.0,0.0,0.0,0.0,0.0,0.0,0.0,0.0,0.0,-2.8533,-3.0857,-3.2051,-3.2017,-3.2703,-3.2703,-3.1991,-3.1791,-3.0384,0.0,0.0,0.0,0.0,0.0,0.0,0.0,0.0,0.0,0.0,0.0,0.0,0.0,0.0,0.0,0.0,0.0,0.0,0.0,0.0,0.0,0.0,0.0,0.0,0.0,0.0,0.0,0.0,0.0,0.0,0.0,0.0,0.0,0.0,0.0,0.0,0.0,0.0,0.0,0.0,0.0,-3.7317,-3.8096,-3.8897,-3.9418,0.0,0.0,-3.9594,-3.9404,-3.8752,-3.8001,-3.7202,0.0,0.0,0.0,0.0,0.0,0.0,0.0,0.0,0.0,0.0,0.0,0.0,0.0,0.0,0.0,0.0,0.0,0.0,0.0,0.0,0.0,0.0,0.0,0.0,0.0,0.0,0.0,0.0,0.0,0.0,0.0,0.0,0.0,0.0,0.0,0.0,0.0,0.0,0.0,0.0,0.0,0.0,0.0,0.0,0.0,0.0,0.0,0.0,0.0,0.0,0.0,0.0,0.0,-2.7042,-2.845,-3.0185,-3.1283,-3.1774,-3.1624,-3.1565,-3.1663,-3.0942,-2.9632,0.0,0.0,0.0,0.0,0.0,0.0,0.0,0.0,0.0,0.0,0.0,0.0,0.0,0.0,0.0,0.0,0.0,0.0,0.0,0.0,0.0,0.0,0.0,0.0,0.0,0.0,0.0,0.0,-2.2529,-2.3145,-2.4284,0.0,0.0,0.0,0.0,0.0,0.0,0.0,0.0,0.0,0.0,-3.7533,-3.8692,-3.9159,0.0,0.0,-3.9432,-3.9432,-3.9379,-3.8382,-3.7484,-3.7152,-3.5613,0.0,0.0,0.0,0.0,0.0,0.0,0.0,0.0,0.0,0.0,0.0,0.0,0.0,0.0,0.0,0.0,0.0,0.0,0.0,0.0,0.0,0.0,0.0,0.0,0.0,0.0,0.0,0.0,0.0,0.0,0.0,0.0,0.0,0.0,0.0,0.0,0.0,0.0,0.0,0.0,0.0,0.0,0.0,0.0,0.0,0.0,0.0,0.0,0.0,0.0,0.0,0.0,-2.6753,-2.8472,-2.9566,-3.0584,-3.1373,-3.0833,-3.0674,-3.1024,-3.0245,-2.899,0.0,0.0,0.0,0.0,0.0,0.0,0.0,0.0,0.0,0.0,0.0,0.0,0.0,0.0,0.0,0.0,0.0,0.0,0.0,0.0,0.0,0.0,0.0,0.0,0.0,0.0,0.0,0.0,-2.2961,-2.3465,-2.4774,0.0,0.0,0.0,0.0,0.0,0.0,0.0,0.0,0.0,0.0,-3.788,-3.909,-3.9288,-3.9288,-3.9288,-3.9288,-3.9288,-3.9288,-3.8071,-3.7143,-3.7143,0.0,0.0,0.0,0.0,0.0,0.0,0.0,0.0,0.0,0.0,0.0,0.0,0.0,0.0,0.0,0.0,0.0,0.0,0.0,0.0,0.0,0.0,0.0,0.0,0.0,0.0,0.0,0.0,0.0,0.0,-2.3544,0.0,0.0,0.0,0.0,0.0,0.0,0.0,0.0,0.0,0.0,0.0,0.0,0.0,0.0,0.0,0.0,0.0,0.0,0.0,0.0,0.0,0.0,-2.622,-2.8379,-2.9102,-2.9757,-3.0485,-3.0501,-3.0258,-2.9886,-2.981,-2.8592,-2.6024,0.0,0.0,0.0,0.0,0.0,0.0,0.0,0.0,0.0,0.0,0.0,0.0,0.0,0.0,0.0,0.0,0.0,0.0,0.0,0.0,0.0,0.0,0.0,0.0,0.0,0.0,-2.3405,-2.4075,-2.4416,0.0,0.0,0.0,0.0,0.0,0.0,0.0,0.0,0.0,0.0,-3.7268,-3.8444,-3.9172,-3.9288,-3.9272,-3.9272,-3.9272,-3.9272,-3.9272,-3.8095,-3.7187,0.0,0.0,0.0,0.0,0.0,0.0,0.0,0.0,0.0,0.0,0.0,0.0,0.0,0.0,0.0,0.0,0.0,0.0,0.0,0.0,0.0,0.0,0.0,0.0,0.0,0.0,0.0,-2.72,-2.6222,0.0,0.0,0.0,0.0,0.0,0.0,0.0,0.0,0.0,0.0,0.0,-2.8123,-2.8448,0.0,0.0,0.0,0.0,0.0,0.0,0.0,0.0,0.0,0.0,0.0,0.0,-2.6684,-2.8323,-2.8755,-2.9293,-2.9995,-2.9766,-2.9483,-2.9348,-2.8996,-2.7627,-2.5146,0.0,0.0,0.0,0.0,0.0,0.0,0.0,0.0,0.0,0.0,0.0,0.0,0.0,0.0,0.0,0.0,0.0,0.0,0.0,0.0,0.0,0.0,0.0,0.0,0.0,-2.3185,0.0,0.0,0.0,0.0,0.0,0.0,0.0,0.0,0.0,0.0,0.0,-3.4462,-3.6548,-3.7236,-3.7807,-3.8547,-3.8645,-3.8479,0.0,0.0,0.0,0.0,0.0,0.0,0.0,0.0,0.0,0.0,0.0,0.0,0.0,0.0,-3.3232,-3.1456,-3.0896,-3.0734,-3.0544,0.0,0.0,0.0,0.0,0.0,0.0,0.0,0.0,0.0,0.0,0.0,0.0,0.0,0.0,-2.8008,0.0,-2.6457,0.0,0.0,0.0,0.0,0.0,0.0,0.0,0.0,-2.8975,-2.9547,-2.9542,-2.9878,-2.9765,0.0,-2.9102,-2.8163,0.0,0.0,0.0,0.0,0.0,0.0,0.0,0.0,-2.6278,-2.7522,-2.7835,-2.8366,-2.9155,-2.8907,-2.8791,-2.881,-2.7905,-2.6576,-2.5001,-2.349,-2.2278,0.0,0.0,0.0,0.0,0.0,0.0,0.0,0.0,0.0,0.0,0.0,0.0,0.0,0.0,0.0,0.0,0.0,0.0,0.0,0.0,0.0,0.0,0.0,-2.3246,0.0,0.0,0.0,0.0,0.0,0.0,0.0,0.0,0.0,-3.2011,-3.3224,-3.481,-3.655,-3.7062,-3.7439,-3.793,0.0,0.0,0.0,0.0,0.0,0.0,0.0,-3.6369,-3.6369,-3.5459,-3.4592,-3.4349,-3.4385,-3.4342,-3.3927,0.0,0.0,-3.2614,-3.1938,-3.1643,-3.174,-3.1868,-3.1806,-3.1322,-3.1541,-3.1467,0.0,0.0,0.0,0.0,0.0,0.0,0.0,0.0,-2.8703,-2.8641,0.0,-2.6959,0.0,0.0,0.0,0.0,0.0,0.0,0.0,0.0,-3.0532,-3.0935,-3.0855,-3.0838,-3.0814,-3.0692,-3.0276,-2.9814,-2.931,-2.8042,0.0,0.0,0.0,0.0,0.0,0.0,-2.5008,-2.5996,-2.6415,-2.7073,-2.8044,-2.8079,-2.8168,-2.8242,-2.6574,-2.563,-2.554,-2.3729,-2.2739,-2.2652,-2.088,0.0,0.0,0.0,0.0,0.0,0.0,0.0,0.0,0.0,0.0,0.0,0.0,0.0,0.0,0.0,0.0,0.0,0.0,0.0,0.0,-2.329,0.0,0.0,0.0,0.0,0.0,0.0,0.0,0.0,0.0,0.0,-3.1992,-3.4237,-3.5978,-3.5994,0.0,0.0,0.0,0.0,-3.737,-3.731,-3.731,-3.731,-3.731,-3.6768,-3.6368,-3.6352,0.0,0.0,-3.4337,-3.4558,-3.4648,-3.3849,-3.4273,-3.4698,-3.4639,-3.3615,-3.2981,-3.3376,-3.2991,-3.255,-3.2471,-3.2307,-3.2022,-3.2589,0.0,0.0,0.0,0.0,-2.9681,-2.9663,-2.9481,-3.0079,-2.9539,-2.8192,-2.7745,0.0,0.0,0.0,0.0,0.0,0.0,-2.8883,-2.9649,-3.0423,-3.079,-3.0733,-3.0651,-3.0609,-3.0551,-3.041,-3.0143,-2.9658,-2.9267,-2.8233,-2.6466,0.0,0.0,0.0,0.0,-2.5179,-2.5971,-2.6208,-2.6707,-2.7503,-2.7685,-2.7746,-2.7795,-2.6384,-2.56,-2.56,-2.4148,-2.3131,-2.2724,-2.2169,0.0,0.0,0.0,0.0,0.0,0.0,0.0,0.0,0.0,0.0,0.0,0.0,0.0,0.0,0.0,0.0,0.0,0.0,0.0,-2.3969,-2.38,-2.4025,0.0,0.0,0.0,0.0,0.0,0.0,0.0,0.0,0.0,-3.2981,-3.3895,-3.4969,0.0,0.0,-3.6554,-3.6662,-3.6662,-3.6554,-3.6085,0.0,0.0,0.0,-3.5861,-3.5733,-3.5733,-3.5489,-3.5088,-3.4633,-3.4633,-3.4624,-3.4272,-3.4351,-3.4481,-3.4467,-3.422,-3.4002,-3.408,-3.3546,-3.2996,-3.2996,-3.2584,-3.1938,-3.4969,-3.3936,-3.2017,-3.1021,-3.0803,-3.1419,-3.1329,-3.0785,-3.16,-3.1119,-2.9709,-2.9247,-2.8275,-2.6926,-2.6327,0.0,0.0,0.0,-2.952,-3.0059,-3.0492,-3.0651,-3.0609,-3.0526,-3.0384,-3.0215,-3.0027,-2.9793,-2.9528,-2.912,-2.8223,-2.691,0.0,0.0,-2.5061,-2.478,-2.4801,-2.5056,-2.5577,-2.6076,-2.6626,-2.7278,-2.7505,-2.7171,-2.6168,-2.5495,-2.5211,-2.4178,-2.343,-2.3056,-2.2843,-2.2308,0.0,0.0,0.0,0.0,0.0,0.0,0.0,0.0,0.0,0.0,0.0,-2.0752,-1.9959,0.0,0.0,0.0,-2.36,-2.4322,-2.4798,-2.5194,0.0,0.0,0.0,0.0,0.0,0.0,0.0,-3.0901,-3.2309,-3.3311,-3.3456,-3.3871,-3.4493,-3.5449,-3.5638,-3.5688,-3.58,0.0,-3.5767,-3.5344,-3.5439,-3.5424,-3.5294,-3.5359,-3.5359,-3.5294,-3.5096,-3.4964,-3.4765,-3.4631,-3.4549,-3.4414,-3.4113,-3.3894,-3.3894,-3.3673,-3.3504,-3.3565,-3.3152,-3.2793,-3.243,-3.1956,-3.1516,-3.6852,-3.6616,-3.4552,-3.3176,-3.2542,-3.3991,-3.3755,-3.2488,-3.3248,-3.3056,-3.2148,-3.1136,-3.0411,-2.9919,-2.8511,0.0,-2.9677,-2.976,-3.0107,-3.0692,-3.0642,-3.0559,-3.0468,-3.0468,-3.0215,-2.9793,-2.9348,-2.909,-2.8982,-2.814,-2.7512,-2.7241,-2.6657,-2.5951,-2.5247,-2.4556,-2.4051,-2.3653,-2.4767,-2.5439,-2.5764,-2.6946,-2.7245,-2.6602,-2.5959,-2.53,-2.4612,-2.3969,-2.3595,-2.358,-2.3056,-2.2798,-2.2739,0.0,0.0,0.0,0.0,0.0,0.0,0.0,0.0,0.0,0.0,0.0,0.0,0.0,0.0,0.0,-2.4864,0.0,-2.5865,-2.707,0.0,0.0,0.0,-2.9566,-2.9044,-3.1119,-3.2367,-3.1758,0.0,0.0,-3.363,0.0,-3.4481,-3.4631,-3.4817,-3.4868,-3.4935,-3.5082,-3.5148,-3.4935,-3.5228,-3.5294,-3.5001,-3.5082,-3.5067,-3.4935,-3.4765,-3.4698,-3.4631,-3.4414,-3.4332,-3.4264,-3.3659,-3.3073,-3.3143,-3.2577,-3.2126,-3.218,-3.2207,-3.1917,-3.1368,-3.101,-3.0807,-3.5729,-3.524,-3.5874,-3.5313,-3.4063,-3.4443,-3.4371,-3.4117,-3.4878,-3.4159,-3.2355,-3.2044,-3.0957,-2.9245,-2.8897,-2.9067,-2.9699,-2.9219,-2.9538,-3.0502,-2.9971,-2.998,-3.0452,-3.0113,-2.9897,-2.981,-2.9348,-2.8889,-2.8496,-2.8255,-2.7692,-2.6751,-2.6118,-2.5455,-2.4747,-2.4113,-2.3739,-2.3595,-2.4852,-2.6071,-2.7066,-2.741,-2.726,-2.6617,-2.5959,-2.5285,-2.4612,-2.3969,-2.3595,-2.3595,-2.346,-2.337,-2.337,-2.2024,0.0,0.0,0.0,0.0,0.0,0.0,0.0,0.0,0.0,-2.3086,-2.1096,0.0,-2.512,0.0,-2.5228,-2.617,-2.7157,-2.7984,0.0,0.0,-3.051,-3.1221,-3.1584,-3.2585,-3.318,-3.3021,-3.3848,-3.4356,-3.4211,-3.4312,-3.4414,-3.4481,-3.4631,-3.4735,-3.4868,-3.492,-3.4935,-3.4935,-3.5001,-3.5001,-3.4935,-3.4935,-3.4949,-3.4765,-3.4698,-3.4631,-3.4481,-3.3894,-3.352,-3.3437,-3.2875,-3.2448,-3.2349,-3.2232,-3.1901,-3.1376,-3.1263,-3.1203,-3.0995,-3.0467,-3.0075,-3.5548,-3.5222,-3.6091,-3.5946,-3.5204,-3.5892,-3.5887,-3.5382,-3.5813,-3.5025,-3.3301,-3.2843,-3.1783,-3.0391,-3.0015,-3.0005,-3.0241,-2.9777,-2.9966,-3.0658,-3.0153,-2.9988,-3.0156,-2.9924,-2.9396,-2.869,-2.8732,-2.8186,-2.7189,-2.7385,-2.7058,-2.6153,-2.5495,-2.494,-2.4582,-2.4209,-2.4059,-2.4059,-2.536,-2.6542,-2.7565,-2.756,-2.7175,-2.6183,-2.5809,-2.5151,-2.4208,-2.3789,-2.3595,-2.3595,-2.3595,-2.3595,-2.358,-2.2936,-2.2413,0.0,0.0,0.0,0.0,0.0,0.0,0.0,0.0,0.0,0.0,0.0,-2.637,0.0,-2.6762,-2.769,-2.8884,-2.9827,-3.0669,-3.1366,-3.2251,-3.2846,-3.2948,-3.3499,-3.3891,-3.3891,-3.4196,-3.4414,-3.4414,-3.4414,-3.4414,-3.4414,-3.4481,-3.4616,-3.4668,-3.475,-3.4735,-3.4683,-3.4802,-3.4868,-3.4802,-3.4735,-3.4668,-3.4631,-3.4563,-3.4549,-3.4414,-3.3742,-3.3227,-3.3157,-3.2277,-3.1549,-3.1563,-3.1294,-3.0934,-3.0558,-3.0406,-3.0406,-3.0406,-3.0062,-2.9779,-3.5494,-3.5512,-3.562,-3.5625,-3.5684,-3.7166,-3.7196,-3.6167,-3.6167,-3.5527,-3.4381,-3.3291,-3.2588,-3.2251,-3.1486,-3.115,-3.111,-3.0764,-3.0707,-3.0855,-3.051,-3.011,-2.9664,-2.962,-2.8748,-2.7257,-2.7718,-2.7159,-2.5644,-2.6183,-2.6138,-2.548,-2.4911,-2.4537,-2.4448,-2.4537,-2.4627,-2.4716,-2.5884,-2.6826,-2.7545,-2.756,-2.6946,-2.5689,-2.56,-2.4971,-2.3684,-2.3684,-2.3729,-2.3729,-2.3804,-2.3819,-2.3744,-2.3804,-2.355,0.0,-2.2877,0.0,0.0,0.0,0.0,0.0,0.0,0.0,0.0,-2.7031,-2.8018,-2.8277,-2.8791,-2.9493,-3.0597,-3.1859,-3.2629,-3.2672,-3.3703,-3.4196,-3.3688,-3.408,-3.4414,-3.4414,-3.4414,-3.4414,-3.4414,-3.4414,-3.4414,-3.4414,-3.4414,-3.4414,-3.4414,-3.4563,-3.4616,-3.4414,-3.4683,-3.4735,-3.4683,-3.4549,-3.4414,-3.4414,-3.4414,-3.4346,-3.4182,-3.352,-3.3003,-3.2777,-3.1696,-3.0833,-3.0758,-3.0203,-2.9856,-2.9856,-2.9793,-2.9743,-2.9831,-2.9856,-2.9779,-3.3864,-3.3936,-3.457,-3.4632,-3.4411,-3.5375,-3.5645,-3.5416,-3.5416,-3.4924,-3.4038,-3.2884,-3.2693,-3.306,-3.2367,-3.1972,-3.1823,-3.056,-3.0222,-3.0716,-2.9938,-2.9395,-2.8978,-2.859,-2.7784,-2.6594,-2.6228,-2.5948,-2.5615,-2.5734,-2.5465,-2.4776,-2.4657,-2.4358,-2.3849,0.0,0.0,0.0,-2.5674,-2.6363,-2.7515,-2.756,-2.6946,-2.5674,-2.56,0.0,-2.3714,-2.4133,-2.4433,-2.4448,-2.4941,0.0,0.0,0.0,0.0,0.0,0.0,0.0,0.0,0.0,0.0,0.0,-2.6662,-2.6673,-2.6366,-2.8154,-2.9386,-2.9475,-3.0411,-3.1076,-3.1322,-3.2513,-3.3296,-3.3311,-3.3964,-3.4356,-3.4254,-3.4341,-3.4414,-3.4414,-3.4414,-3.4414,-3.4414,-3.4414,-3.4414,-3.4414,-3.4414,-3.4414,-3.4414,-3.4414,-3.4481,-3.4414,-3.4481,-3.4481,-3.4481,-3.4414,-3.4332,-3.4414,-3.4414,-3.4113,-3.3492,-3.2804,-3.2074,-3.1549,-3.0633,-2.9985,-2.9973,-2.9856,-2.9716,-2.9767,-2.9402,-2.9227,-2.9679,-2.9779,-2.9779,-3.3393,0.0,-3.3828,-3.379,0.0,-3.383,-3.3841,-3.353,-3.4285,-3.4283,-3.3635,-3.2717,-3.2493,-3.2814,-3.2029,-3.1611,-3.1537,-3.0637,-3.0399,-3.0658,-2.9601,-2.8867,-2.8426,-2.7655,-2.6667,-2.556,-2.5589,-2.527,-2.4672,-2.4971,-2.4777,-2.4133,-2.4118,-2.3954,-2.3625,-2.3939,-2.4612,-2.56,-2.56,-2.5929,-2.6587,-2.6965,-2.6467,-2.5149,0.0,0.0,0.0,0.0,0.0,0.0,0.0,0.0,0.0,0.0,0.0,-2.5151,-2.5704,-2.6093,-2.6078,-2.6078,-2.6378,-2.7036,-2.7876,-2.8337,-2.8337,-2.9263,-2.9958,-3.0295,-3.0744,-3.1308,-3.1961,-3.2629,-3.3238,-3.3848,-3.4225,-3.4414,-3.4414,-3.4414,-3.4414,-3.4414,-3.4414,-3.4414,-3.4414,-3.4414,-3.4414,-3.4414,-3.4414,-3.4414,-3.4414,-3.4414,-3.4414,-3.4414,-3.4414,-3.4414,-3.4346,-3.4045,-3.3682,-3.3482,-3.3322,-3.3017,-3.2402,-3.1798,-3.1341,-3.0869,-3.0049,-2.9365,-2.934,-2.9164,-2.8963,-2.8938,-2.8725,-2.8599,-2.89,-2.8963,-2.8963,-3.3393,-3.3393,-3.3334,-3.3068,-3.2699,-3.2634,-3.2231,-3.1688,0.0,0.0,0.0,-3.2544,-3.2341,-3.2425,-3.1618,-3.1217,-3.12,-3.073,-3.0549,-3.0475,-2.9222,-2.8313,-2.7696,-2.6678,-2.5574,-2.4492,-2.5001,-2.4687,-2.3655,-2.4178,-2.4163,-2.364,-2.3595,-2.3595,-2.3595,-2.3595,-2.4148,-2.5211,-2.5375,-2.5495,-2.5615,-2.6138,-2.5839,-2.4597,-2.5151,-2.5181,-2.4612,-2.4701,-2.5106,-2.5734,-2.5899,-2.5899,-2.5809,-2.6408,-2.6707,-2.6617,-2.7215,-2.756,-2.756,-2.756,-2.7679,-2.7904,-2.8655,-2.9448,-3.014,-3.0059,-3.0163,-3.0732,-3.0729,-3.1235,-3.2396,-3.2629,-3.3151,-3.4298,-3.4414,-3.4414,-3.4414,-3.4414,-3.4414,-3.4414,-3.4414,-3.4414,-3.4414,-3.4414,-3.4414,-3.4414,-3.4414,-3.4414,-3.4414,-3.4414,-3.4414,-3.4414,-3.4414,-3.4414,-3.4249,-3.3599,-3.2931,-3.2605,-3.2166,-3.1643,-3.1132,-3.0791,-3.0555,-3.0293,-2.9414,-2.89,-2.8762,-2.8473,-2.8122,-2.8109,-2.8021,-2.7959,-2.7946,-2.7883,-2.7896,-3.3393,-3.3364,-3.3019,-3.2684,-3.2334,-3.1986,-3.1603,-3.1269,-3.1528,-3.193,-3.2425,-3.2341,-3.2645,-3.3203,-3.2459,-3.2121,-3.1996,-3.0599,-2.9951,0.0,-2.8485,-2.7274,-2.6303,-2.5804,-2.493,-2.3833,-2.3849,-2.3789,-2.3625,-2.3699,-2.3684,-2.361,-2.3595,-2.3595,-2.3595,-2.3595,-2.3699,-2.3894,-2.4418,-2.5046,-2.5585,-2.5704,-2.5405,-2.4687,-2.4672,-2.4686,-2.4597,-2.512,-2.5779,-2.6422,-2.6991,-2.7036,-2.6527,-2.7066,-2.7171,-2.6677,-2.7265,-2.756,-2.756,-2.756,-2.8017,-2.8931,-2.9119,-2.9337,-2.9927,-3.0309,-3.0526,-3.0657,-3.1032,-3.17,-3.244,-3.2977,-3.3558,-3.4283,-3.4414,-3.4414,-3.4414,-3.4414,-3.4414,-3.4414,-3.4414,-3.4332,-3.4346,-3.4346,-3.4264,-3.4346,-3.4056,-3.4303,-3.4148,-3.4414,-3.4414,-3.4414,-3.4414,-3.4414,-3.4023,-3.3257,-3.2398,-3.2396,-3.1309,-3.0371,-2.972,-2.9555,-2.9385,-2.8654,-2.8371,-2.8235,-2.8222,-2.8172,-2.8009,-2.7946,-2.767,-2.7419,-2.7394,-2.7092,-2.7042,-3.381,-3.3382,-3.2957,-3.2601,-3.2248,-3.1657,-3.1351,-3.119,-3.119,-3.136,-3.1664,-3.1681,-3.1884,-3.2171,-3.185,-3.1438,-3.0897,-3.0124,-2.9543,-2.8938,-2.7709,-2.6696,-2.5986,-2.5186,-2.4383,-2.361,-2.3595,-2.3595,-2.3595,-2.3595,-2.3595,-2.3595,-2.3595,-2.3595,-2.3595,-2.3595,-2.3595,-2.361,-2.3909,-2.4208,-2.4507,-2.4881,-2.4747,-2.4088,-2.4373,-2.4582,-2.4582,-2.5255,-2.5914,-2.6557,-2.72,-2.749,-2.7156,-2.741,-2.749,-2.7156,-2.7395,-2.756,-2.756,-2.7524,-2.8003,-2.9089,-2.9057,-2.9386,-3.0309,-3.0527,-3.0642,-3.0582,-3.0858,-3.1424,-3.2396,-3.2788,-3.334,-3.4327,-3.4414,-3.4414,-3.4414,-3.4414,-3.4414,-3.4346,-3.4031,-3.3742,-3.3742,-3.3395,-3.3171,-3.3143,-3.2933,-3.2665,-3.2328,-3.2258,-3.2506,-3.3047,-3.2687,-3.2272,-3.2176,-3.142,-3.0664,-3.0283,-2.9661,-2.8911,-2.8331,-2.8408,-2.8494,-2.8145,-2.7871,-2.7682,-2.7657,-2.7394,-2.7256,-2.7193,-2.7055,-2.6854,-2.6791,-2.6684,-2.6747,-3.3973,-3.3364,-3.2957,-3.2586,-3.2109,-3.1466,-3.119,-3.119,-3.119,-3.119,-3.119,-3.119,-3.119,-3.119,-3.119,-3.0723,-2.9872,-2.9616,-2.907,-2.8092,-2.6934,-2.6149,-2.5677,-2.4725,-2.4036,-2.3638,-2.3595,-2.3595,-2.3595,-2.3595,-2.3595,-2.3595,-2.3595,-2.3595,-2.3595,-2.3595,-2.3595,-2.3595,-2.3595,-2.3595,-2.361,-2.4133,-2.4133,-2.3684,-2.4103,-2.4477,-2.4597,-2.5075,-2.5689,-2.6333,-2.6856,-2.72,-2.735,-2.74,-2.746,-2.758,-2.756,-2.7575,-2.7575,-2.7437,-2.7861,-2.8939,-2.8961,-2.9446,-3.0572,-3.0642,-3.0642,-3.0642,-3.0657,-3.1119,-3.2251,-3.2542,-3.2956,-3.3994,-3.4128,-3.3977,-3.3894,-3.3908,-3.3908,-3.3825,-3.3311,-3.289,-3.2695,-3.2299,-3.1918,-3.1728,-3.1344,-3.0881,-3.0473,-3.0215,-3.0446,-3.0966,-3.0829,-3.0597,-3.0365,-2.9707,-2.9065,-2.8441,-2.8023,-2.7645,-2.7314,-2.754,-2.767,-2.762,-2.7369,-2.7143,-2.7067,-2.6804,-2.6647,-2.6647,-2.6609,-2.6559,-2.6571,-2.6559,-2.6533,-3.3484,-3.3352,-3.2988,-3.2384,-3.175,-3.1351,-3.119,-3.119,-3.119,-3.119,-3.119,-3.119,-3.119,-3.119,-3.1173,-3.0673,-2.9799,-2.9156,-2.834,-2.742,-2.6167,-2.5371,-2.5029,-2.4523,-2.4051,-2.3638,-2.3595,-2.3595,-2.3595,-2.3595,-2.3595,-2.3595,-2.3595,-2.3595,-2.3595,-2.3595,-2.3595,-2.3595,-2.3595,-2.3595,-2.3595,-2.3655,-2.3655,-2.361,-2.3655,-2.3984,-2.4507,-2.4642,-2.5016,-2.563,-2.5779,-2.6078,-2.6587,-2.6677,-2.6946,-2.755,-2.756,-2.7524,-2.7452,-2.7386,-2.7794,-2.8785,-2.892,-2.9404,-3.0482,-3.0642,-3.0642,-3.0553,-3.0553,-3.1134,-3.2324,-3.2513,-3.276,-3.3336,-3.3381,-3.3087,-3.2577,-3.2304,-3.229,-3.2304,-3.2222,-3.2014,-3.1537,-3.1273,-3.1056,-3.0483,-3.0279,-3.0117,-2.9915,-2.9211,-2.8631,-2.8995,-2.9508,-3.0201,-3.0024,-2.9278,-2.8481,-2.82,-2.7421,-2.6867,-2.6691,-2.6653,-2.6628,-2.6917,-2.6691,-2.6628,-2.6603,-2.6533,-2.6533,-2.6508,-2.6496,-2.6496,-2.6521,-2.6483,-2.6458,-3.4262,-3.3382,-3.2957,-3.2368,-3.1714,-3.1312,-3.119,-3.119,-3.119,-3.119,-3.119,-3.119,-3.119,-3.1157,-3.0751,-3.0065,-2.9156,-2.838,-2.7551,-2.6687,-2.6158,-2.5535,-2.4902,-2.4744,-2.4313,-2.3638,-2.3595,-2.3595,-2.3595,-2.3595,-2.3595,-2.3595,-2.3595,-2.3595,-2.3595,-2.3595,-2.3595,-2.3595,-2.3595,-2.3595,-2.3595,-2.3595,-2.3595,-2.3595,-2.3595,-2.3714,-2.4029,-2.4358,-2.4716,-2.4985,-2.5405,-2.5734,-2.6004,-2.6363,-2.6707,-2.6991,-2.7365,-2.7524,-2.7299,-2.7299,-2.7703,-2.8706,-2.8793,-2.9275,-3.0422,-3.0642,-3.0303,-2.9686,-3.0156,-3.1105,-3.2266,-3.2513,-3.268,-3.3085,-3.3227,-3.2861,-3.2232,-3.2074,-3.1965,-3.1639,-3.12,-3.0711,-3.0206,-2.9692,-2.9171,-2.8703,-2.856,-2.8538,-2.8144,-2.7584,-2.7344,-2.7344,-2.7799,-2.804,-2.8134,-2.7704,-2.7344,-2.7212,-2.6878,-2.6521,-2.6521,-2.6521,-2.6533,-2.6508,-2.6521,-2.6521,-2.6546,-2.6521,-2.6521,-2.6433,-2.6113,-2.6038,-2.6377,-2.6176,-2.6101,-3.448,-3.3424,-3.2844,-3.2368,-3.1823,-3.1389,-3.119,-3.119,-3.119,-3.119,-3.119,-3.119,-3.119,-3.1089,-3.0429,-2.9589,-2.8703,-2.7928,-2.7064,-2.6129,-2.6026,-2.5551,-2.4799,-2.4719,-2.4338,-2.3724,-2.3595,-2.3595,-2.3595,-2.3595,-2.3595,-2.3595,-2.3595,-2.3595,-2.3595,-2.3595,-2.3595,-2.3595,-2.3595,-2.3595,-2.3595,-2.3595,-2.3595,-2.3595,-2.3595,-2.3595,-2.361,-2.4088,-2.4253,-2.4133,-2.4624,-2.4858,-2.4941,-2.5383,-2.5796,-2.6164,-2.6541,-2.6792,-2.6707,-2.6842,-2.7245,-2.804,-2.8282,-2.8838,-2.9754,-2.9897,-2.9401,-2.8671,-2.9157,-3.0025,-3.1211,-3.1597,-3.1895,-3.229,-3.2329,-3.2099,-3.1563,-3.1322,-3.1017,-3.0631,-2.9941,-2.9352,-2.8776,-2.815,-2.7586,-2.7284,-2.7112,-2.6954,-2.6647,-2.6546,-2.6546,-2.6521,-2.6533,-2.6546,-2.6521,-2.664,-2.6521,-2.6521,-2.6521,-2.6521,-2.6521,-2.6521,-2.6289,-2.6176,-2.6339,-2.6226,-2.59,-2.5937,-2.6113,-2.5963,-2.5699,-2.5511,-2.5787,-2.5586,-2.5674,-3.3465,-3.3304,-3.2619,-3.2317,-3.2214,-3.1504,-3.119,-3.119,-3.119,-3.119,-3.119,-3.119,-3.119,-3.1123,-3.0378,-2.961,-2.8777,-2.7928,-2.6922,-2.5824,-2.5594,-2.5098,-2.4328,-2.4287,-2.4063,-2.3638,-2.3595,-2.3595,-2.3595,-2.3595,-2.3595,-2.3595,-2.3595,-2.3595,-2.3595,-2.3595,-2.3595,-2.3595,-2.3595,-2.3595,-2.3595,-2.3595,-2.3595,-2.3595,-2.3595,-2.3595,-2.3595,-2.3625,-2.3437,-2.3037,-2.308,-2.3144,-2.322,-2.3285,-2.39,-2.4935,-2.4948,-2.5084,-2.5494,-2.584,-2.6315,-2.6854,-2.7489,-2.7952,-2.8606,-2.8381,-2.7961,-2.7693,-2.7407,-2.7694,-2.8561,-2.9481,-2.9984,-3.0413,-3.0342,-3.0212,-2.9986,-2.9605,-2.9139,-2.8986,-2.8568,-2.8088,-2.7511,-2.6911,-2.6678,-2.6578,-2.6596,-2.6584,-2.6502,-2.6521,-2.6521,-2.6521,-2.6521,-2.6521,-2.6521,-2.6521,-2.6521,-2.6521,-2.6521,-2.6483,-2.6508,-2.6402,-2.6101,-2.5912,-2.6038,-2.585,-2.5285,-2.5134,-2.531,-2.5247,-2.5046,-2.4983,-2.5259,-2.4996,-2.5084,-3.3725,-3.2988,-3.2537,-3.2179,-3.186,-3.1406,-3.119,-3.119,-3.119,-3.119,-3.119,-3.119,-3.119,-3.114,-2.9922,-2.9191,-2.8723,-2.7657,-2.6632,-2.5712,-2.5291,-2.4839,-2.4343,-2.4302,-2.4036,-2.3653,-2.3595,-2.3595,-2.3595,-2.3595,-2.3595,-2.3595,-2.3595,-2.3595,-2.3595,-2.3595,-2.3595,-2.3595,-2.3595,-2.3595,-2.3595,-2.3595,-2.3595,-2.3595,-2.3595,-2.3595,-2.3595,-2.3334,-2.3068,-2.2889,-2.2558,-2.2413,-2.2513,-2.2879,-2.3519,-2.4295,-2.4292,-2.4351,-2.4816,-2.5273,-2.587,-2.6647,-2.7236,-2.7669,-2.7917,-2.7767,-2.725,-2.6289,-2.6179,-2.6202,-2.6096,-2.7571,-2.9201,-2.9908,-2.9771,-2.9468,-2.9201,-2.875,-2.8273,-2.7896,-2.7406,-2.6967,-2.6841,-2.6647,-2.6533,-2.6521,-2.6521,-2.6521,-2.6521,-2.6521,-2.6521,-2.6521,-2.6521,-2.6521,-2.6521,-2.6521,-2.6521,-2.6521,-2.6483,-2.6189,-2.6113,-2.6,-2.5749,-2.5272,-2.5435,-2.5423,-2.4845,-2.472,-2.4833,-2.4782,-2.4556,-2.4431,-2.477,-2.4469,-2.4582,-3.3553,-3.2784,-3.2299,-3.1967,-3.1677,-3.1312,-3.119,-3.119,-3.119,-3.119,-3.119,-3.119,-3.1072,-3.0717,-2.9786,-2.8989,-2.8407,-2.7308,-2.6365,-2.5589,-2.5137,-2.4664,-2.4204,-2.4094,-2.3909,-2.3638,-2.3595,-2.3595,-2.3595,-2.3595,-2.3595,-2.3595,-2.3595,-2.3595,-2.3595,-2.3595,-2.3595,-2.3595,-2.3595,-2.3566,-2.3421,-2.3377,-2.329,-2.3143,-2.3084,-2.3275,-2.3551,-2.329,-2.3024,-2.2889,-2.236,-2.1941,-2.1759,-2.2042,-2.26,-2.3087,-2.3067,-2.328,-2.3851,-2.445,-2.5156,-2.6003,-2.6797,-2.718,-2.7019,-2.6897,-2.6064,-2.5127,-2.4722,-2.4528,-2.4594,-2.6024,-2.7749,-2.8685,-2.8627,-2.8518,-2.8573,-2.816,-2.762,-2.713,-2.6766,-2.6584,-2.6521,-2.6533,-2.6521,-2.6521,-2.6521,-2.6521,-2.6521,-2.6521,-2.6521,-2.6521,-2.6521,-2.6521,-2.6433,-2.6264,-2.6327,-2.6339,-2.6289,-2.6038,-2.5686,-2.5573,-2.5272,-2.4808,-2.4619,-2.4657,-2.4582,-2.4418,-2.4343,-2.4305,-2.4042,-2.3803,-2.3916,-2.3916,-2.4104,-3.283,-3.2666,-3.2021,-3.1714,-3.162,-3.1329,-3.119,-3.119,-3.114,-3.1106,-3.1173,-3.1157,-3.0751,-3.0226,-2.9939,-2.9175,-2.787,-2.6957,-2.6148,-2.5406,-2.5044,-2.4502,-2.3824,-2.3739,-2.3638,-2.3595,-2.3595,-2.3595,-2.3595,-2.3595,-2.3595,-2.3595,-2.3595,-2.3595,-2.3595,-2.3595,-2.3595,-2.3595,-2.3551,-2.3334,-2.2979,-2.2934,-2.2694,-2.2267,-2.2221,-2.2634,-2.3465,-2.3465,-2.3143,-2.2799,-2.2282,-2.1623,-2.0934,-2.0851,-2.0987,-2.1355,-2.125,-2.1642,-2.2528,-2.3428,-2.4189,-2.4925,-2.5895,-2.6308,-2.5775,-2.5317,-2.4798,-2.4091,-2.3674,-2.3389,-2.3929,-2.457,-2.5519,-2.6357,-2.686,-2.722,-2.7733,-2.762,-2.708,-2.671,-2.6533,-2.6521,-2.6521,-2.6521,-2.6521,-2.6521,-2.6521,-2.6521,-2.6521,-2.6521,-2.6521,-2.6521,-2.6508,-2.6496,-2.6307,-2.605,-2.6138,-2.6189,-2.6126,-2.5937,-2.541,-2.5134,-2.472,-2.4293,-2.4192,-2.4205,-2.4004,-2.3828,-2.3602,-2.3514,-2.3288,-2.3301,-2.3389,-2.3502,-2.359,-3.2925,-3.2453,-3.2214,-3.1804,-3.1389,-3.123,-3.119,-3.1123,-3.0683,-3.0734,-3.1038,-3.0683,-3.0328,-3.0023,-2.9567,-2.8609,-2.7364,-2.6612,-2.5872,-2.5221,-2.4527,-2.4048,-2.3739,-2.3638,-2.3595,-2.3595,-2.3595,-2.3595,-2.3595,-2.3595,-2.3595,-2.3595,-2.3595,-2.3595,-2.3595,-2.3595,-2.3595,-2.3551,-2.329,-2.3024,-2.2889,-2.2558,-2.2267,-2.2128,-2.2081,-2.2253,-2.2543,-2.2282,-2.2016,-2.1874,-2.1396,-2.0983,-2.0749,-2.0599,-2.0653,-2.0694,-2.0476,-2.0652,-2.1411,-2.2292,-2.3288,-2.4205,-2.5259,-2.5536,-2.5159,-2.4933,-2.4406,-2.3602,-2.3226,-2.319,-2.3341,-2.354,-2.4494,-2.6319,-2.6533,-2.6678,-2.7318,-2.7067,-2.6691,-2.6584,-2.6521,-2.6521,-2.6521,-2.6521,-2.6521,-2.6521,-2.6508,-2.6414,-2.6521,-2.6445,-2.6521,-2.6521,-2.6496,-2.6269,-2.5875,-2.5561,-2.5485,-2.5536,-2.5536,-2.5473,-2.5008,-2.4682,-2.4243,-2.3904,-2.3816,-2.3629,-2.3489,-2.3339,-2.3188,-2.3125,-2.3188,-2.3175,-2.3138,-2.3226,-2.3364,-3.283,-3.2317,-3.2127,-3.1731,-3.123,-3.119,-3.1021,-3.0751,-3.0311,-3.0226,-3.0243,-2.9905,-2.9516,-2.9211,-2.8755,-2.7969,-2.6981,-2.6214,-2.5652,-2.5198,-2.4502,-2.3979,-2.3782,-2.3638,-2.3595,-2.3595,-2.3595,-2.3595,-2.3595,-2.3595,-2.3595,-2.3595,-2.3595,-2.3595,-2.3595,-2.3595,-2.3595,-2.3551,-2.3157,-2.2785,-2.2558,-2.2095,-2.1766,-2.1623,-2.1575,-2.1589,-2.1541,-2.1264,-2.1326,-2.1506,-2.1229,-2.0885,-2.0699,-2.0612,-2.0511,-2.036,-2.0233,-2.0308,-2.0863,-2.1826,-2.2673,-2.3678,-2.487,-2.5234,-2.4757,-2.4644,-2.4318,-2.3364,-2.3138,-2.3125,-2.3103,-2.3364,-2.4142,-2.5335,-2.5699,-2.6176,-2.6716,-2.6747,-2.6559,-2.6521,-2.6521,-2.6521,-2.6521,-2.6521,-2.6521,-2.6508,-2.6345,-2.6289,-2.6276,-2.6063,-2.6038,-2.5963,-2.5812,-2.5573,-2.536,-2.5096,-2.4845,-2.482,-2.482,-2.4695,-2.4406,-2.428,-2.3991,-2.359,-2.3328,-2.3353,-2.3251,-2.3226,-2.3125,-2.3125,-2.3125,-2.3125,-2.3125,-2.3125,-2.3226,-3.2634,-3.2283,-3.1878,-3.1562,-3.123,-3.119,-3.0818,-3.0192,-3.0006,-2.9668,-2.9178,-2.8991,-2.8569,-2.7975,-2.7941,-2.7467,-2.6657,-2.5994,-2.5503,-2.5253,-2.4784,-2.4354,-2.3925,-2.3696,-2.3595,-2.3595,-2.3595,-2.3595,-2.3595,-2.3595,-2.3595,-2.3595,-2.3595,-2.3595,-2.3595,-2.3551,-2.3523,-2.3421,-2.3024,-2.2466,-2.2035,-2.1589,-2.118,-2.0799,-2.0785,-2.0785,-2.0835,-2.0785,-2.1118,-2.1813,-2.1458,-2.1033,-2.0799,-2.0699,-2.0549,-2.0296,-2.0246,-2.0334,-2.0797,-2.1499,-2.2322,-2.2987,-2.4268,-2.5071,-2.4167,-2.4343,-2.4255,-2.3276,-2.3125,-2.3125,-2.3165,-2.3502,-2.3916,-2.4067,-2.472,-2.5398,-2.6176,-2.6302,-2.6176,-2.6239,-2.6339,-2.6352,-2.6251,-2.6264,-2.6302,-2.6151,-2.5824,-2.5824,-2.5887,-2.5624,-2.5247,-2.5184,-2.5259,-2.5046,-2.4845,-2.4657,-2.4381,-2.4117,-2.4117,-2.4042,-2.3916,-2.3841,-2.3753,-2.3351,-2.3125,-2.3125,-2.3125,-2.3125,-2.3125,-2.3125,-2.3125,-2.3125,-2.3125,-2.3125,-2.3125,-3.2862,-3.2317,-3.2179,-3.1768,-3.123,-3.119,-3.0768,-3.0057,-2.9516,-2.9178,-2.8856,-2.8366,-2.801,-2.7789,-2.7755,-2.7262,-2.6414,-2.6068,-2.5577,-2.5059,-2.4839,-2.4395,-2.3925,-2.3696,-2.3595,-2.3595,-2.3595,-2.3595,-2.3595,-2.3595,-2.3595,-2.3595,-2.3595,-2.3595,-2.3551,-2.329,-2.3113,-2.2979,-2.2249,-2.1793,-2.1589,-2.1131,-2.0848,-2.0749,-2.0699,-2.0699,-2.0699,-2.0699,-2.0749,-2.1019,-2.0983,-2.0848,-2.0712,-2.0599,-2.0511,-2.0398,-2.0296,-2.0182,-2.0307,-2.086,-2.1491,-2.1933,-2.3201,-2.364,-2.3439,-2.3891,-2.3803,-2.3276,-2.3125,-2.3125,-2.3103,-2.3228,-2.354,-2.3979,-2.4406,-2.4883,-2.5222,-2.5259,-2.5259,-2.5285,-2.5624,-2.5636,-2.5523,-2.5598,-2.5699,-2.541,-2.5197,-2.5109,-2.5272,-2.5071,-2.4682,-2.4858,-2.4883,-2.4607,-2.4368,-2.418,-2.3904,-2.3502,-2.3366,-2.3464,-2.3401,-2.3376,-2.3314,-2.3078,-2.3138,-2.3125,-2.3125,-2.3125,-2.3125,-2.3125,-2.3125,-2.3125,-2.3125,-2.3125,-2.3125,-3.2975,-3.2299,-3.2299,-3.1877,-3.123,-3.119,-3.0598,-2.9685,-2.9194,-2.8569,-2.8027,-2.7571,-2.7351,-2.7351,-2.7334,-2.6994,-2.6383,-2.6175,-2.5746,-2.5176,-2.4735,-2.4261,-2.3824,-2.3653,-2.3595,-2.3595,-2.3595,-2.3595,-2.3595,-2.3595,-2.3595,-2.3595,-2.3595,-2.3595,-2.3595,-2.3319,-2.3068,-2.2844,-2.2109,-2.165,-2.1361,-2.0934,-2.0749,-2.0699,-2.0699,-2.0699,-2.0699,-2.0699,-2.0699,-2.0699,-2.0699,-2.0699,-2.0699,-2.0662,-2.0562,-2.0511,-2.0296,-2.0131,-2.0143,-2.0522,-2.0911,-2.1385,-2.2322,-2.2887,-2.3012,-2.3477,-2.3753,-2.3238,-2.315,-2.3125,-2.3125,-2.3125,-2.3228,-2.3577,-2.3929,-2.4318,-2.4745,-2.487,-2.4833,-2.4895,-2.5046,-2.5184,-2.4845,-2.5096,-2.5071,-2.4883,-2.4657,-2.4707,-2.4795,-2.4443,-2.4255,-2.4393,-2.4293,-2.3966,-2.3828,-2.369,-2.3665,-2.3263,-2.3115,-2.3138,-2.3125,-2.3125,-2.3078,-2.3078,-2.3078,-2.3125,-2.3125,-2.3125,-2.3125,-2.3125,-2.3125,-2.3125,-2.3125,-2.3125,-2.3125,-3.2925,-3.2283,-3.2248,-3.1841,-3.1235,-3.1089,-3.0277,-2.9161,-2.8856,-2.8044,-2.7029,-2.6742,-2.681,-2.6708,-2.6843,-2.6725,-2.6657,-2.628,-2.5799,-2.5253,-2.4655,-2.4067,-2.3897,-2.3696,-2.3638,-2.3595,-2.3595,-2.3595,-2.3595,-2.3595,-2.3595,-2.3551,-2.3551,-2.3508,-2.3377,-2.3275,-2.3098,-2.2603,-2.2002,-2.1541,-2.1229,-2.0898,-2.0699,-2.0699,-2.0699,-2.0699,-2.0699,-2.0699,-2.0699,-2.0699,-2.0699,-2.0699,-2.0699,-2.0712,-2.0612,-2.0511,-2.0347,-2.0182,-2.0092,-2.0368,-2.0592,-2.0869,-2.202,-2.2749,-2.2535,-2.3163,-2.3615,-2.3175,-2.3138,-2.3125,-2.3125,-2.3125,-2.315,-2.319,-2.3226,-2.3665,-2.4343,-2.4644,-2.4657,-2.4605,-2.4657,-2.472,-2.4669,-2.4707,-2.4682,-2.4243,-2.4067,-2.4067,-2.4079,-2.3791,-2.3766,-2.3866,-2.3627,-2.3263,-2.3213,-2.3201,-2.3238,-2.3138,-2.315,-2.3125,-2.3125,-2.3125,-2.3125,-2.3125,-2.3125,-2.3125,-2.3125,-2.3125,-2.3125,-2.3125,-2.3125,-2.3125,-2.3125,-2.3125,-2.3125,-3.2702,-3.2283,-3.195,-3.1582,-3.1145,-3.0581,-2.982,-2.8924,-2.8332,-2.7588,-2.6843,-2.6708,-2.6708,-2.6708,-2.6708,-2.6708,-2.6624,-2.621,-2.5726,-2.4981,-2.4467,-2.4124,-2.394,-2.3797,-2.3696,-2.3595,-2.3595,-2.3595,-2.3595,-2.3595,-2.3595,-2.3551,-2.329,-2.3054,-2.3024,-2.242,-2.1874,-2.165,-2.1264,-2.1082,-2.0934,-2.0799,-2.0699,-2.0699,-2.0699,-2.0699,-2.0699,-2.0699,-2.0699,-2.0699,-2.0699,-2.0699,-2.0699,-2.0649,-2.0612,-2.0511,-2.0461,-2.0296,-2.0067,-2.0117,-2.0116,-2.0188,-2.1179,-2.1794,-2.1794,-2.2723,-2.3213,-2.3125,-2.3125,-2.3125,-2.3125,-2.3125,-2.3125,-2.3125,-2.3078,-2.3165,-2.3452,-2.3466,-2.3602,-2.3591,-2.3916,-2.4017,-2.364,-2.4017,-2.3929,-2.3602,-2.3441,-2.3366,-2.3303,-2.3253,-2.3389,-2.3502,-2.3376,-2.3125,-2.3125,-2.3125,-2.3125,-2.305,-2.3012,-2.3113,-2.3113,-2.3025,-2.2987,-2.305,-2.3125,-2.3125,-2.3125,-2.3125,-2.3125,-2.3125,-2.3125,-2.3125,-2.3125,-2.3125,-2.3125,-3.2583,-3.2248,-3.1514,-3.0994,-3.0603,-2.9888,-2.9144,-2.8467,-2.8027,-2.7402,-2.681,-2.6708,-2.6708,-2.6708,-2.6691,-2.6624,-2.628,-2.5783,-2.5275,-2.4799,-2.44,-2.4124,-2.3925,-2.3839,-2.3754,-2.3595,-2.3595,-2.3595,-2.3595,-2.3595,-2.3595,-2.3551,-2.3157,-2.2934,-2.2785,-2.2095,-2.1684,-2.1458,-2.1193,-2.0947,-2.0749,-2.0699,-2.0699,-2.0699,-2.0699,-2.0699,-2.0699,-2.0699,-2.0662,-2.0599,-2.0612,-2.0612,-2.0562,-2.0549,-2.0448,-2.0347,-2.0296,-2.0195,-2.0042,-1.9926,-1.9875,-1.9823,-2.0853,-2.1305,-2.1732,-2.2498,-2.3002,-2.3125,-2.3125,-2.3125,-2.3125,-2.3125,-2.3125,-2.3125,-2.3125,-2.3125,-2.3125,-2.3125,-2.3125,-2.3175,-2.3427,-2.3427,-2.3389,-2.3552,-2.3514,-2.3339,-2.3326,-2.3263,-2.3251,-2.314,-2.3128,-2.3238,-2.3201,-2.3125,-2.3125,-2.3125,-2.3125,-2.2987,-2.2811,-2.2962,-2.3015,-2.2949,-2.2811,-2.2924,-2.305,-2.3125,-2.3125,-2.3125,-2.3125,-2.3125,-2.3125,-2.3125,-2.3065,-2.3078,-2.3078,-3.2264,-3.1879,-3.0838,-3.024,-2.9858,-2.9127,-2.845,-2.7857,-2.7654,-2.7232,-2.6793,-2.6708,-2.6708,-2.6708,-2.6708,-2.647,-2.5908,-2.5351,-2.4879,-2.4655,-2.4359,-2.4067,-2.3882,-2.3797,-2.3754,-2.3595,-2.3595,-2.3595,-2.3595,-2.3595,-2.3595,-2.3508,-2.3113,-2.283,-2.2649,-2.2235,-2.167,-2.1277,-2.1193,-2.1046,-2.0749,-2.0699,-2.0699,-2.0699,-2.0699,-2.0699,-2.0699,-2.0699,-2.0662,-2.0575,-2.0524,-2.0524,-2.0461,-2.0347,-2.0195,-2.0182,-2.0093,-2.0042,-1.999,-1.9862,-1.9811,-1.9849,-2.0727,-2.1355,-2.1669,-2.2309,-2.2887,-2.31,-2.3125,-2.3125,-2.3125,-2.3125,-2.3125,-2.3125,-2.3125,-2.3125,-2.3125,-2.3125,-2.3125,-2.3138,-2.3213,-2.3201,-2.3175,-2.3251,-2.3175,-2.3125,-2.3125,-2.3125,-2.3125,-2.3125,-2.3125,-2.3125,-2.3125,-2.3125,-2.3125,-2.2799,-2.2836,-2.2711,-2.2523,-2.2548,-2.2698,-2.2472,-2.2347,-2.2799,-2.2962,-2.3,-2.2977,-2.3002,-2.3002,-2.304,-2.3125,-2.3125,-2.3078,-2.3017,-2.2944,-3.0672,-3.0337,-2.9799,-2.9434,-2.9079,-2.8349,-2.7926,-2.7723,-2.7165,-2.6843,-2.6725,-2.6708,-2.6708,-2.6708,-2.6708,-2.6297,-2.5689,-2.5098,-2.4679,-2.4467,-2.425,-2.4082,-2.394,-2.3797,-2.3696,-2.3638,-2.3595,-2.3595,-2.3595,-2.3595,-2.3508,-2.3465,-2.3024,-2.2649,-2.2189,-2.1779,-2.1313,-2.0983,-2.0898,-2.0799,-2.0749,-2.0699,-2.0699,-2.0686,-2.0646,-2.066,-2.0699,-2.0699,-2.0699,-2.0662,-2.0549,-2.0511,-2.041,-2.0296,-2.0144,-2.0093,-2.0029,-1.999,-1.9875,-1.9811,-1.9798,-1.9949,-2.0476,-2.1041,-2.1481,-2.2096,-2.2686,-2.3037,-2.3125,-2.3125,-2.3125,-2.3125,-2.3125,-2.3125,-2.3125,-2.3125,-2.3125,-2.3125,-2.3125,-2.3125,-2.3125,-2.3125,-2.3125,-2.3125,-2.3125,-2.3125,-2.3125,-2.3125,-2.3125,-2.3125,-2.3125,-2.3125,-2.3125,-2.3125,-2.3125,-2.2648,-2.2385,-2.2246,-2.2058,-2.1807,-2.1857,-2.1732,-2.1845,-2.2159,-2.2535,-2.2711,-2.2727,-2.2765,-2.2852,-2.2887,-2.2987,-2.31,-2.3065,-2.2944,-2.2628,-3.03,-2.9916,-2.9174,-2.8648,-2.8266,-2.7554,-2.7249,-2.7182,-2.686,-2.6708,-2.6708,-2.6708,-2.6708,-2.6708,-2.6708,-2.6245,-2.554,-2.4823,-2.4492,-2.425,-2.4166,-2.404,-2.3882,-2.3739,-2.3696,-2.3595,-2.3595,-2.3595,-2.3551,-2.3334,-2.329,-2.3068,-2.2526,-2.1969,-2.1684,-2.1264,-2.097,-2.0686,-2.0686,-2.0686,-2.0686,-2.0686,-2.0699,-2.0633,-2.045,-2.0424,-2.0633,-2.0358,-2.0374,-2.0534,-2.0511,-2.041,-2.0309,-2.0195,-2.0093,-1.999,-1.999,-1.9926,-1.9862,-1.9798,-1.9798,-1.9861,-2.0378,-2.0781,-2.1192,-2.1794,-2.2523,-2.2962,-2.3125,-2.3125,-2.3125,-2.3125,-2.3125,-2.3125,-2.3125,-2.3125,-2.3125,-2.3125,-2.3125,-2.3125,-2.3125,-2.3125,-2.3125,-2.3125,-2.3125,-2.3125,-2.3125,-2.3125,-2.3125,-2.3125,-2.3125,-2.2975,-2.2899,-2.2648,-2.2585,-2.2196,-2.1895,-2.1769,-2.1506,-2.1255,-2.1204,-2.1167,-2.1167,-2.1305,-2.1719,-2.2096,-2.2146,-2.2058,-2.2359,-2.2636,-2.2636,-2.2639,-2.2867,-2.2871,-2.2433,-2.9929,-2.9519,-2.8578,-2.7978,-2.7589,-2.6996,-2.6725,-2.6708,-2.6708,-2.6708,-2.6708,-2.6708,-2.6708,-2.6657,-2.6436,-2.6016,-2.5351,-2.4599,-2.4317,-2.4234,-2.4067,-2.394,-2.3839,-2.3696,-2.3595,-2.3595,-2.3595,-2.3595,-2.3508,-2.3157,-2.2934,-2.274,-2.1955,-2.1458,-2.1361,-2.0979,-2.0703,-2.0529,-2.0529,-2.0542,-2.0542,-2.0646,-2.0542,-2.045,-2.0074,-2.0205,-2.0398,-2.027,-2.026,-2.0458,-2.0461,-2.0347,-2.0093,-2.0042,-2.0042,-1.999,-1.999,-1.9926,-1.9862,-1.9798,-1.9798,-1.9823,-2.0213,-2.0542,-2.1008,-2.1669,-2.2485,-2.2887,-2.3113,-2.3125,-2.3125,-2.3125,-2.3125,-2.3125,-2.3125,-2.3125,-2.3125,-2.3125,-2.3125,-2.3125,-2.3125,-2.3113,-2.31,-2.3125,-2.3125,-2.3125,-2.3125,-2.3125,-2.3125,-2.3125,-2.3075,-2.2824,-2.2573,-2.2146,-2.1882,-2.1568,-2.1368,-2.128,-2.0928,-2.0589,-2.0639,-2.0702,-2.069,-2.0652,-2.0778,-2.1104,-2.1192,-2.1455,-2.1832,-2.2083,-2.2133,-2.2221,-2.2301,-2.2102,-2.1728,-2.8613,-2.8304,-2.7965,-2.7583,-2.7223,-2.6859,-2.6708,-2.6708,-2.6708,-2.6708,-2.6708,-2.6691,-2.6691,-2.6539,-2.5944,-2.5427,-2.4981,-2.4574,-2.4317,-2.4234,-2.4067,-2.3982,-2.3925,-2.3696,-2.3595,-2.3595,-2.3595,-2.3595,-2.3421,-2.3068,-2.2889,-2.2709,-2.2118,-2.1785,-2.1102,-2.059,-2.0341,-1.9987,-1.9904,-1.9904,-1.9969,-2.0398,-2.0109,-1.9734,-1.9943,-2.0371,-2.0165,-2.0231,-2.0442,-2.0459,-2.0524,-2.041,-2.0233,-2.0195,-2.008,-2.0029,-1.9914,-1.9798,-1.9798,-1.9798,-1.9798,-1.9798,-1.9936,-2.0188,-2.0752,-2.1481,-2.2184,-2.2385,-2.2799,-2.3037,-2.3037,-2.3065,-2.3065,-2.3062,-2.294,-2.3012,-2.3025,-2.2899,-2.2924,-2.2962,-2.2899,-2.2987,-2.3025,-2.3088,-2.3125,-2.3125,-2.3113,-2.305,-2.2962,-2.2836,-2.2585,-2.2234,-2.202,-2.1619,-2.1204,-2.0891,-2.0815,-2.0765,-2.0476,-2.0075,-2.0122,-2.021,-1.9995,-1.9995,-2.0095,-2.0204,-2.0478,-2.0814,-2.1312,-2.1531,-2.1581,-2.1581,-2.1606,-2.1369,-2.1176,-2.8317,-2.7886,-2.7742,-2.74,-2.6923,-2.6758,-2.6708,-2.6708,-2.6708,-2.6708,-2.6708,-2.6708,-2.659,-2.628,-2.5726,-2.5313,-2.4863,-2.4492,-2.4276,-2.4193,-2.4067,-2.394,-2.3839,-2.3696,-2.3595,-2.3595,-2.3551,-2.3377,-2.3143,-2.2725,-2.2452,-2.2257,-2.1387,-2.0643,-2.0473,-1.9894,-1.9516,-1.9323,-1.929,-1.929,-1.9433,-1.9799,-1.9943,-1.9447,-1.9943,-2.0152,-2.027,-2.0113,-2.0338,-2.0395,-2.0524,-2.0347,-2.0182,-2.008,-2.0029,-1.9862,-1.9862,-1.9798,-1.9798,-1.9798,-1.9798,-1.9798,-1.9836,-2.0087,-2.0614,-2.1079,-2.1581,-2.1832,-2.2347,-2.2636,-2.2761,-2.2902,-2.2827,-2.2799,-2.2661,-2.2472,-2.246,-2.2636,-2.2611,-2.2648,-2.2648,-2.2623,-2.2585,-2.2548,-2.246,-2.2347,-2.2297,-2.2234,-2.2146,-2.2033,-2.1732,-2.1368,-2.1204,-2.1029,-2.0602,-2.0225,-2.0132,-2.0107,-2.0107,-1.9808,-1.977,-1.9681,-1.9436,-1.9174,-1.9095,-1.9347,-1.9695,-2.011,-2.0544,-2.0786,-2.1029,-2.0969,-2.0933,-2.1325,-2.1204,-2.8237,-2.773,-2.7701,-2.7352,-2.6808,-2.6758,-2.6708,-2.6708,-2.6708,-2.6708,-2.6708,-2.6691,-2.6436,-2.598,-2.5615,-2.5198,-2.4719,-2.4426,-2.4276,-2.4166,-2.4024,-2.3882,-2.3797,-2.3653,-2.3595,-2.3595,-2.3377,-2.3246,-2.2772,-2.2158,-2.1648,-2.1643,-2.0355,-1.9759,-1.9467,-1.9088,-1.876,-1.8702,-1.8715,-1.8793,-1.9028,-1.9525,-1.9656,-1.9682,-1.9852,-2.0139,-2.0384,-2.0345,-2.0299,-2.0408,-2.0524,-2.036,-2.0144,-2.0042,-1.999,-1.9875,-1.9862,-1.9798,-1.9798,-1.9798,-1.9798,-1.9798,-1.9811,-1.9974,-2.0313,-2.0539,-2.0832,-2.1267,-2.1782,-2.2046,-2.2184,-2.2472,-2.2372,-2.2209,-2.2096,-2.182,-2.1656,-2.1933,-2.2108,-2.2108,-2.2058,-2.1933,-2.1895,-2.1857,-2.1757,-2.1581,-2.1481,-2.1443,-2.1375,-2.135,-2.0996,-2.0612,-2.0324,-2.0165,-1.9682,-1.9405,-1.9436,-1.9527,-1.954,-1.9371,-1.9214,-1.9004,-1.8804,-1.8536,-1.8321,-1.8541,-1.8941,-1.9373,-1.9703,-1.9896,-2.0101,-2.0195,-2.0367,-2.0773,-2.0811,-2.8255,-2.7701,-2.7701,-2.7474,-2.7117,-2.6825,-2.6708,-2.6708,-2.6708,-2.6708,-2.6708,-2.6657,-2.628,-2.5726,-2.5503,-2.5098,-2.4369,-2.4234,-2.4208,-2.4124,-2.3955,-2.3839,-2.3754,-2.3696,-2.3522,-2.339,-2.3098,-2.2892,-2.2464,-2.1091,-2.0699,-2.0414,-1.9476,-1.9061,-1.8806,-1.8453,-1.8244,-1.8244,-1.8283,-1.8519,-1.8937,-1.9394,-1.9577,-1.942,-1.9991,-2.0437,-1.9943,-2.0283,-2.0419,-2.0461,-2.041,-2.036,-2.0093,-2.0042,-1.9926,-1.9926,-1.9862,-1.9798,-1.9798,-1.9798,-1.9798,-1.9798,-1.9811,-1.9836,-2.0012,-2.0413,-2.0665,-2.0819,-2.123,-2.1493,-2.1543,-2.1594,-2.1769,-2.1619,-2.1506,-2.1343,-2.1242,-2.138,-2.1531,-2.1543,-2.1481,-2.1337,-2.1112,-2.1019,-2.1104,-2.0941,-2.0991,-2.0953,-2.0846,-2.0724,-2.0324,-1.992,-1.9479,-1.9144,-1.8647,-1.8578,-1.8963,-1.9016,-1.9016,-1.8697,-1.8429,-1.8267,-1.8375,-1.8159,-1.805,-1.8104,-1.8201,-1.8548,-1.8839,-1.8999,-1.9172,-1.9282,-1.9292,-1.9404,-1.9389,-2.8255,-2.7701,-2.7701,-2.7382,-2.6873,-2.6758,-2.6708,-2.6708,-2.6708,-2.6708,-2.6708,-2.6657,-2.6385,-2.5908,-2.5577,-2.5198,-2.4679,-2.4317,-2.4234,-2.4124,-2.3982,-2.3839,-2.3739,-2.3578,-2.3271,-2.2774,-2.2411,-2.1683,-2.0771,-2.0055,-1.9377,-1.8924,-1.8661,-1.8498,-1.8231,-1.7931,-1.7826,-1.8022,-1.8127,-1.8362,-1.8911,-1.946,-1.9695,-1.9603,-2.0188,-2.0531,-2.0315,-2.0445,-2.0385,-2.0296,-2.0246,-2.0144,-2.0029,-1.9978,-1.9926,-1.9926,-1.9811,-1.9798,-1.9798,-1.9798,-1.9798,-1.9798,-1.9798,-1.9798,-1.9798,-2.0049,-2.0125,-2.0313,-2.0665,-2.1008,-2.1046,-2.1255,-2.1455,-2.1129,-2.097,-2.0815,-2.079,-2.0891,-2.0966,-2.0966,-2.0911,-2.0752,-2.049,-2.0176,-2.0257,-2.0338,-2.0413,-2.0382,-2.0212,-1.9989,-1.9471,-1.9278,-1.8896,-1.8881,-1.8476,-1.8483,-1.8602,-1.8494,-1.8387,-1.8159,-1.7886,-1.8104,-1.8159,-1.7941,-1.7667,-1.7556,-1.7611,-1.782,-1.8038,-1.8321,-1.8429,-1.8422,-1.834,-1.8244,-1.8295,-2.8156,-2.7701,-2.7582,-2.7227,-2.6725,-2.6708,-2.6708,-2.6708,-2.6708,-2.6708,-2.6708,-2.6691,-2.6385,-2.5944,-2.5652,-2.4968,-2.4422,-2.3989,-2.3871,-2.3732,-2.3576,-2.3601,-2.3679,-2.3563,-2.321,-2.235,-2.1787,-2.1151,-2.0498,-1.932,-1.8875,-1.8587,-1.8166,-1.8074,-1.7721,-1.7486,-1.7434,-1.7735,-1.7865,-1.8244,-1.8832,-1.9264,-1.9865,-1.9943,-2.0529,-2.061,-2.0547,-2.0536,-2.0448,-2.0296,-2.0195,-2.008,-1.9965,-1.9914,-1.9862,-1.9862,-1.9811,-1.9798,-1.9798,-1.9798,-1.9798,-1.9798,-1.9798,-1.9798,-1.9798,-1.9798,-1.9886,-1.9899,-2.0225,-2.0479,-2.0492,-2.0639,-2.074,-2.0426,-2.0413,-2.0313,-2.0238,-2.0275,-2.0351,-2.0401,-2.0348,-2.0295,-2.0154,-1.9865,-1.9719,-1.9523,-1.9,-1.909,-1.9144,-1.8885,-1.853,-1.8363,-1.8371,-1.8476,-1.8632,-1.8104,-1.7623,-1.7523,-1.7468,-1.7567,-1.7512,-1.7722,-1.7667,-1.729,-1.7022,-1.6976,-1.7022,-1.7179,-1.7446,-1.7754,-1.771,-1.7611,-1.7776,-1.7756,-1.7879,-2.7982,-2.7672,-2.7369,-2.7036,-2.6742,-2.6708,-2.6708,-2.6708,-2.6708,-2.6708,-2.6708,-2.6691,-2.628,-2.5709,-2.5496,-2.4729,-2.3748,-2.3323,-2.3117,-2.3051,-2.2929,-2.3122,-2.3278,-2.3266,-2.2852,-2.2518,-2.1772,-2.1107,-2.0837,-1.9503,-1.8897,-1.8577,-1.814,-1.7761,-1.7277,-1.7225,-1.7225,-1.7264,-1.7342,-1.8009,-1.8689,-1.9015,-1.9525,-2.0022,-2.0332,-2.0309,-2.0416,-2.0429,-2.0369,-2.0334,-2.0347,-2.0246,-2.0131,-2.0042,-1.999,-1.9914,-1.9862,-1.9798,-1.9798,-1.9798,-1.9798,-1.9798,-1.9798,-1.9798,-1.9798,-1.9798,-1.9798,-1.9823,-1.9911,-1.9911,-1.9886,-1.9899,-1.9962,-1.9987,-1.9987,-1.9974,-1.9924,-1.9899,-2.0024,-2.0087,-1.9949,-1.9849,-1.9797,-1.9681,-1.934,-1.8839,-1.7886,-1.7765,-1.8255,-1.8321,-1.8201,-1.8027,-1.8081,-1.8027,-1.7984,-1.7179,-1.6705,-1.6591,-1.6761,-1.7022,-1.7022,-1.7022,-1.6853,-1.6648,-1.6648,-1.6705,-1.6591,-1.6488,-1.6853,-1.7179,-1.6853,-1.6807,-1.7,-1.7224,-1.7311,-2.8138,-2.7701,-2.7565,-2.7213,-2.6725,-2.6708,-2.6708,-2.6708,-2.6708,-2.6708,-2.6708,-2.6708,-2.6436,-2.5865,-2.5074,-2.4367,-2.3622,-2.26,-2.2367,-2.2422,-2.2209,-2.2219,-2.2364,-2.2402,-2.214,-2.1589,-2.0969,-2.0492,-2.0113,-1.9282,-1.8708,-1.8336,-1.7891,-1.7434,-1.7251,-1.7251,-1.7356,-1.7721,-1.7878,-1.8179,-1.8793,-1.8911,-1.9094,-1.9551,-1.959,-1.9747,-1.9976,-2.0015,-2.0148,-2.0244,-2.0295,-2.0246,-2.008,-1.999,-1.9978,-1.9862,-1.9798,-1.9798,-1.9798,-1.9798,-1.9798,-1.9747,-1.9747,-1.9747,-1.9798,-1.9798,-1.9798,-1.9747,-1.9643,-1.9643,-1.9823,-1.9823,-1.9809,-1.9861,-1.9861,-1.9861,-1.9823,-1.9823,-1.9874,-1.9886,-1.9798,-1.9695,-1.9643,-1.9097,-1.8738,-1.891,-1.8201,-1.8147,-1.8483,-1.8655,-1.8602,-1.8201,-1.8027,-1.7765,-1.7446,-1.6853,-1.6637,-1.674,-1.6797,-1.6955,-1.6842,-1.6637,-1.674,-1.6786,-1.6637,-1.6477,-1.6534,-1.6534,-1.6488,-1.6545,-1.6431,-1.6431,-1.6637,-1.674,-1.6705,-2.7817,-2.6946,-2.7058,-2.6674,-2.6097,-2.6471,-2.6708,-2.6708,-2.6708,-2.6708,-2.6657,-2.6573,-2.6062,-2.5412,-2.4677,-2.3622,-2.3011,-2.2163,-2.1683,-2.1736,-2.1545,-2.153,-2.1555,-2.1461,-2.1298,-2.0822,-2.0344,-1.991,-1.9758,-1.9197,-1.8668,-1.8114,-1.7512,-1.7303,-1.7212,-1.7264,-1.7342,-1.7604,-1.7682,-1.7944,-1.8401,-1.8623,-1.8702,-1.8911,-1.9015,-1.9073,-1.9352,-1.9529,-1.9713,-1.9924,-2.0041,-2.0042,-1.994,-1.9914,-1.9862,-1.9811,-1.9604,-1.9552,-1.95,-1.9162,-1.9109,-1.9109,-1.9384,-1.95,-1.9436,-1.9214,-1.9162,-1.9109,-1.9267,-1.9214,-1.9267,-1.9267,-1.9319,-1.9319,-1.9267,-1.9267,-1.9267,-1.9214,-1.9214,-1.9267,-1.9319,-1.9267,-1.9267,-1.862,-1.8027,-1.8363,-1.8632,-1.859,-1.8441,-1.8387,-1.8278,-1.7886,-1.7556,-1.7234,-1.7067,-1.6909,-1.6797,-1.6899,-1.6842,-1.6786,-1.6684,-1.6534,-1.674,-1.6888,-1.6637,-1.6477,-1.6637,-1.6694,-1.6534,-1.6431,-1.6431,-1.6374,-1.6374,-1.6374,-1.6374,-2.6996,-2.5585,-2.5877,-2.5523,-2.4893,-2.593,-2.6556,-2.6691,-2.6708,-2.6674,-2.6573,-2.6147,-2.545,-2.4502,-2.3973,-2.2959,-2.174,-2.1259,-2.1072,-2.0962,-2.0775,-2.0837,-2.0837,-2.0808,-2.0505,-2.0246,-1.9943,-1.9778,-1.9557,-1.898,-1.8466,-1.8074,-1.7486,-1.7277,-1.7212,-1.7225,-1.7264,-1.7356,-1.7421,-1.7656,-1.797,-1.8061,-1.8244,-1.8414,-1.8571,-1.8675,-1.8904,-1.911,-1.9313,-1.9526,-1.9685,-1.9737,-1.9749,-1.9709,-1.9709,-1.9592,-1.9186,-1.9028,-1.8922,-1.8536,-1.8363,-1.8471,-1.8643,-1.8815,-1.8869,-1.8632,-1.8525,-1.8471,-1.8471,-1.8363,-1.8255,-1.8309,-1.8363,-1.8363,-1.8309,-1.8309,-1.8309,-1.8309,-1.8309,-1.8363,-1.8363,-1.8417,-1.8405,-1.7972,-1.7589,-1.7754,-1.7929,-1.7567,-1.7401,-1.7346,-1.7245,-1.7022,-1.6751,-1.6591,-1.6534,-1.6637,-1.6637,-1.6684,-1.6581,-1.6524,-1.6431,-1.6431,-1.6581,-1.6637,-1.6477,-1.6477,-1.6524,-1.6524,-1.642,-1.6374,-1.6374,-1.6374,-1.6374,-1.6374,-1.6374,-2.6236,-2.5437,-2.5537,-2.5155,-2.4622,-2.4932,-2.5693,-2.6607,-2.6691,-2.6337,-2.553,-2.5428,-2.4636,-2.3371,-2.2734,-2.2039,-2.1332,-2.0717,-2.0452,-2.0294,-2.0167,-1.9901,-1.9686,-1.9627,-1.9532,-1.9628,-1.9578,-1.952,-1.9422,-1.8821,-1.831,-1.8022,-1.7473,-1.7264,-1.7212,-1.7212,-1.7212,-1.7212,-1.7212,-1.7342,-1.746,-1.7539,-1.7708,-1.78,-1.7852,-1.7996,-1.8304,-1.8144,-1.8346,-1.8943,-1.8288,-1.8031,-1.8339,-1.827,-1.8291,-1.8531,-1.8417,-1.8375,-1.8321,-1.8201,-1.797,-1.7761,-1.7861,-1.7972,-1.8147,-1.8124,-1.7972,-1.7875,-1.7831,-1.7776,-1.7776,-1.7765,-1.7831,-1.7776,-1.7776,-1.7776,-1.7776,-1.7776,-1.7776,-1.7776,-1.7831,-1.7776,-1.7765,-1.7545,-1.7268,-1.7268,-1.7168,-1.6853,-1.6648,-1.6705,-1.6648,-1.6431,-1.6374,-1.6374,-1.6374,-1.6477,-1.642,-1.642,-1.6374,-1.6374,-1.6431,-1.6431,-1.6374,-1.6374,-1.6374,-1.6374,-1.642,-1.6374,-1.6374,-1.6374,-1.6374,-1.6374,-1.6374,-1.6374,-1.6374,-2.5541,-2.4585,-2.4848,-2.4601,-2.4143,-2.4069,-2.4763,-2.571,-2.5812,-2.5362,-2.468,-2.4496,-2.371,-2.2579,-2.1937,-2.1381,-2.0859,-2.0411,-2.0177,-2.0071,-1.9777,-1.9457,-1.9101,-1.8774,-1.8777,-1.8934,-1.8992,-1.8875,-1.8879,-1.8336,-1.7721,-1.7682,-1.7316,-1.7251,-1.7212,-1.7212,-1.7212,-1.7212,-1.7212,-1.7212,-1.7212,-1.7212,-1.7212,-1.7212,-1.7212,-1.746,-1.7648,-1.7314,-1.7662,-1.8075,-1.7267,-1.7169,-1.74,-1.7314,-1.7315,-1.7508,-1.727,-1.7206,-1.71,-1.6857,-1.6902,-1.6872,-1.6787,-1.6852,-1.7027,-1.7126,-1.7213,-1.729,-1.7346,-1.7346,-1.739,-1.739,-1.739,-1.739,-1.7401,-1.739,-1.7401,-1.7412,-1.7401,-1.7401,-1.7346,-1.7346,-1.7234,-1.7011,-1.6899,-1.6853,-1.6797,-1.6637,-1.6545,-1.6602,-1.6545,-1.6431,-1.6374,-1.6374,-1.6374,-1.6374,-1.6374,-1.6374,-1.6374,-1.6374,-1.6374,-1.6374,-1.6374,-1.6374,-1.6374,-1.6374,-1.6374,-1.6374,-1.6374,-1.6374,-1.6374,-1.6374,-1.6374,-1.6374,-1.6374,-2.4843,-2.3214,-2.3857,-2.3784,-2.3367,-2.3325,-2.3697,-2.4303,-2.4306,-2.4168,-2.3851,-2.3537,-2.2792,-2.1859,-2.1358,-2.0883,-2.0531,-2.0231,-2.015,-2.0115,-1.9904,-1.9493,-1.8959,-1.862,-1.8369,-1.8185,-1.8201,-1.839,-1.8039,-1.7669,-1.7356,-1.7212,-1.7225,-1.7212,-1.7212,-1.7212,-1.7212,-1.7212,-1.7212,-1.7212,-1.7212,-1.7212,-1.7212,-1.7212,-1.7199,-1.7209,-1.7187,-1.7173,-1.7172,-1.7073,-1.6823,-1.6629,-1.6561,-1.6436,-1.6443,-1.6441,-1.6218,-1.6085,-1.5951,-1.5753,-1.5479,-1.5405,-1.539,-1.5802,-1.6166,-1.6549,-1.6765,-1.6807,-1.6864,-1.6864,-1.6853,-1.6853,-1.6853,-1.6853,-1.6853,-1.6853,-1.6864,-1.6864,-1.6864,-1.6853,-1.6864,-1.6864,-1.6807,-1.6627,-1.6627,-1.6477,-1.6431,-1.6374,-1.6431,-1.6488,-1.6488,-1.6431,-1.6431,-1.6374,-1.6374,-1.6374,-1.6374,-1.6374,-1.6374,-1.6374,-1.6374,-1.6374,-1.6374,-1.6374,-1.6374,-1.6374,-1.6374,-1.6374,-1.6374,-1.6374,-1.6374,-1.6374,-1.6374,-1.6374,-1.6374,-2.3749,-2.308,-2.2867,-2.2677,-2.2564,-2.2564,-2.2665,-2.2818,-2.2818,-2.2979,-2.3071,-2.2753,-2.2099,-2.1156,-2.0802,-2.0458,-2.0331,-2.027,-2.027,-2.0115,-1.9955,-1.942,-1.8779,-1.8408,-1.8017,-1.7739,-1.7774,-1.8022,-1.7878,-1.7512,-1.7212,-1.7212,-1.7212,-1.7212,-1.7212,-1.7212,-1.7212,-1.7212,-1.7212,-1.7212,-1.7212,-1.7212,-1.7212,-1.7212,-1.7199,-1.7031,-1.6829,-1.6337,-1.6183,-1.5918,-1.5082,-1.4923,-1.5027,-1.4939,-1.5092,-1.5307,-1.5286,-1.5162,-1.51,-1.4987,-1.4873,-1.4914,-1.5111,-1.537,-1.5691,-1.6125,-1.641,-1.6353,-1.6374,-1.6374,-1.6374,-1.6374,-1.6374,-1.6374,-1.6374,-1.6374,-1.6374,-1.6374,-1.6374,-1.6374,-1.6374,-1.6374,-1.6374,-1.6374,-1.6374,-1.6374,-1.6431,-1.6374,-1.6374,-1.6431,-1.6431,-1.6374,-1.6374,-1.6374,-1.6374,-1.6374,-1.6374,-1.6374,-1.6374,-1.6374,-1.6374,-1.6374,-1.6374,-1.6374,-1.6374,-1.6374,-1.6374,-1.6374,-1.6374,-1.6374,-1.6374,-1.6374,-1.6374,-1.6374,-1.6374,-2.3346,-2.3021,-2.2535,-2.2327,-2.2327,-2.2327,-2.2327,-2.2282,-2.2152,-2.2208,-2.2344,-2.2003,-2.1423,-2.0677,-2.0373,-2.0304,-2.0304,-2.0304,-2.0131,-1.9975,-1.9762,-1.9221,-1.8717,-1.8238,-1.7841,-1.7538,-1.7542,-1.7656,-1.7669,-1.7473,-1.7212,-1.7212,-1.7212,-1.7212,-1.7212,-1.7212,-1.7212,-1.7212,-1.7212,-1.7199,-1.7199,-1.7212,-1.7212,-1.7212,-1.7157,-1.6989,-1.6765,-1.6269,-1.592,-1.54,-1.4638,-1.4116,-1.4157,-1.4139,-1.4167,-1.4312,-1.4374,-1.4386,-1.4407,-1.4438,-1.4449,-1.448,-1.4656,-1.4842,-1.5028,-1.5463,-1.6167,-1.6218,-1.6353,-1.6374,-1.6374,-1.6374,-1.6374,-1.6374,-1.6374,-1.6374,-1.6374,-1.6374,-1.6374,-1.6374,-1.6374,-1.6374,-1.6374,-1.6374,-1.6374,-1.6374,-1.6374,-1.6374,-1.6374,-1.6374,-1.6374,-1.6374,-1.6374,-1.6374,-1.6374,-1.6374,-1.6374,-1.6374,-1.6374,-1.6374,-1.6374,-1.6374,-1.6374,-1.6374,-1.6374,-1.6374,-1.6374,-1.6374,-1.6374,-1.6374,-1.6374,-1.6374,-1.6374,-1.6374,-1.6374,-2.3323,-2.2989,-2.2508,-2.2327,-2.2327,-2.2327,-2.2327,-2.2254,-2.1961,-2.1797,-2.1727,-2.1404,-2.0861,-2.0512,-2.0304,-2.0304,-2.027,-2.015,-1.9975,-1.9797,-1.9654,-1.9087,-1.8577,-1.8173,-1.7747,-1.7434,-1.7332,-1.7303,-1.7303,-1.7212,-1.7212,-1.7212,-1.7212,-1.7212,-1.7212,-1.7212,-1.7212,-1.7212,-1.7199,-1.7157,-1.7157,-1.717,-1.7212,-1.7199,-1.7115,-1.7073,-1.6892,-1.6539,-1.6008,-1.5287,-1.4398,-1.4031,-1.373,-1.3734,-1.3714,-1.3817,-1.3838,-1.3807,-1.3755,-1.3807,-1.3755,-1.3786,-1.4055,-1.4293,-1.45,-1.4945,-1.5649,-1.6094,-1.6218,-1.6363,-1.6363,-1.6374,-1.6374,-1.6374,-1.6374,-1.6374,-1.6374,-1.6374,-1.6374,-1.6374,-1.6374,-1.6374,-1.6374,-1.6374,-1.6374,-1.6374,-1.6374,-1.6374,-1.6374,-1.6374,-1.6374,-1.6374,-1.6374,-1.6374,-1.6374,-1.6374,-1.6374,-1.6374,-1.6374,-1.6374,-1.6374,-1.6374,-1.6374,-1.6374,-1.6374,-1.6374,-1.6374,-1.6374,-1.6374,-1.6374,-1.6374,-1.6374,-1.6374,-1.6374,-1.6374,-2.3265,-2.2747,-2.2432,-2.2327,-2.2327,-2.2327,-2.2327,-2.2254,-2.1945,-2.1661,-2.137,-2.1071,-2.0761,-2.0662,-2.0407,-2.0304,-2.027,-2.0045,-1.9869,-1.969,-1.9435,-1.8898,-1.8397,-1.8028,-1.7733,-1.7434,-1.7253,-1.7212,-1.7212,-1.7212,-1.7212,-1.7212,-1.7212,-1.7212,-1.7212,-1.7212,-1.7212,-1.7212,-1.7157,-1.7073,-1.6863,-1.6947,-1.717,-1.7073,-1.6808,-1.6454,-1.6064,-1.5635,-1.5085,-1.4547,-1.4129,-1.3858,-1.3726,-1.3668,-1.3621,-1.361,-1.361,-1.361,-1.361,-1.361,-1.361,-1.3621,-1.3879,-1.3983,-1.419,-1.4417,-1.5101,-1.5763,-1.598,-1.6291,-1.6343,-1.6363,-1.6374,-1.6374,-1.6374,-1.6374,-1.6374,-1.6374,-1.6374,-1.6374,-1.6374,-1.6374,-1.6374,-1.6374,-1.6374,-1.6374,-1.6374,-1.6374,-1.6374,-1.6374,-1.6374,-1.6374,-1.6374,-1.6374,-1.6374,-1.6374,-1.6374,-1.6374,-1.6374,-1.6374,-1.6374,-1.6374,-1.6374,-1.6374,-1.6374,-1.6374,-1.6374,-1.6374,-1.6374,-1.6374,-1.6374,-1.6374,-1.6374,-1.6374,-1.6374]},{"header":{"parameterUnit":"m.s-1","parameterCategory":1,"la1":31.0,"la2":29.5877,"lo1":-88.7671,"lo2":-86.6584,"dy":0.0162,"dx":0.0185,"nx":115,"ny":88,"refTime":"2024-07-09T06:00:00:Z","depth":0,"parameterNumber":3,"parameterNumberName":"V-component_of_WINDS"},"data":[0.0,0.0,0.0,0.0,0.0,0.0,0.0,0.0,0.0,0.0,0.0,0.0,0.0,0.0,0.0,0.0,0.0,0.0,0.0,0.0,0.0,0.0,0.0,0.0,0.0,0.0,0.0,0.0,0.0,0.0,0.0,0.0,0.0,0.0,0.0,0.0,0.0,0.0,0.0,0.0,0.0,0.0,0.0,0.0,0.0,0.0,0.0,0.0,0.0,0.0,0.0,0.0,0.0,0.0,0.0,0.0,0.0,0.0,0.0,0.0,0.0,0.0,0.0,0.0,0.0,0.0,0.0,0.0,0.0,0.0,0.0,0.0,0.0,0.0,0.0,0.0,0.0,0.0,0.0,0.0,0.0,0.0,0.0,0.0,0.0,0.0,0.0,0.0,0.0,0.0,0.0,0.0,0.0,0.0,0.0,0.0,0.0,0.0,0.0,0.0,0.0,0.0,0.0,0.0,0.0,0.0,0.0,0.0,0.0,0.0,0.0,0.0,0.0,0.0,0.0,0.0,0.0,0.0,0.0,0.0,0.0,0.0,0.0,0.0,0.0,0.0,0.0,0.0,0.0,0.0,0.0,0.0,0.0,0.0,0.0,0.0,0.0,0.0,0.0,0.0,0.0,0.0,0.0,0.0,0.0,0.0,0.0,0.0,0.0,0.0,0.0,0.0,0.0,0.0,0.0,0.0,0.0,0.0,0.0,0.0,0.0,0.0,0.0,0.0,0.0,0.0,0.0,0.0,0.0,0.0,0.0,0.0,0.0,0.0,0.0,0.0,0.0,0.0,0.0,0.0,0.0,0.0,0.0,0.0,0.0,0.0,0.0,0.0,0.0,0.0,0.0,0.0,0.0,0.0,0.0,0.0,0.0,0.0,0.0,0.0,0.0,0.0,0.0,0.0,0.0,0.0,0.0,0.0,0.0,0.0,0.0,0.0,0.0,0.0,0.0,0.0,0.0,0.0,0.0,0.0,0.0,0.0,0.0,0.0,0.0,0.0,0.0,0.0,0.0,0.0,0.0,0.0,0.0,0.0,0.0,0.0,0.0,0.0,0.0,0.0,0.0,0.0,0.0,0.0,0.0,0.0,0.0,0.0,0.0,0.0,0.0,0.0,0.0,0.0,0.0,0.0,0.0,0.0,0.0,0.0,0.0,0.0,0.0,0.0,0.0,0.0,0.0,0.0,0.0,0.0,0.0,0.0,0.0,0.0,0.0,0.0,0.0,0.0,0.0,0.0,0.0,0.0,0.0,0.0,0.0,0.0,0.0,0.0,0.0,0.0,0.0,0.0,0.0,0.0,0.0,0.0,0.0,0.0,0.0,0.0,0.0,0.0,0.0,0.0,0.0,0.0,0.0,0.0,0.0,0.0,0.0,0.0,0.0,0.0,0.0,0.0,0.0,0.0,0.0,0.0,0.0,0.0,0.0,0.0,0.0,0.0,0.0,0.0,0.0,0.0,0.0,0.0,0.0,0.0,0.0,0.0,0.0,0.0,0.0,0.0,0.0,0.0,0.0,0.0,0.0,0.0,0.0,0.0,0.0,0.0,0.0,0.0,0.0,0.0,0.0,0.0,0.0,0.0,0.0,0.0,0.0,0.0,0.0,0.0,0.0,0.0,0.0,0.0,0.0,0.0,0.0,0.0,0.0,0.0,0.0,0.0,0.0,0.0,0.0,0.0,0.0,0.0,0.0,0.0,0.0,0.0,0.0,0.0,0.0,0.0,0.0,0.0,0.0,0.0,0.0,0.0,0.0,0.0,0.0,0.0,0.0,0.0,0.0,0.0,0.0,0.0,0.0,0.0,0.0,0.0,0.0,0.0,0.0,0.0,0.0,0.0,0.0,0.0,0.0,0.0,0.0,0.0,0.0,0.0,0.0,0.0,0.0,0.0,0.0,0.0,0.0,0.0,0.0,0.0,0.0,0.0,0.0,0.0,0.0,0.0,0.0,0.0,0.0,0.0,0.0,0.0,0.0,0.0,0.0,0.0,0.0,0.0,0.0,0.0,0.0,0.0,0.0,0.0,0.0,0.0,0.0,0.0,0.0,0.0,0.0,0.0,0.0,0.0,0.0,0.0,0.0,0.0,0.0,0.0,0.0,0.0,0.0,0.0,0.0,0.0,0.0,0.0,0.0,0.0,0.0,0.0,0.0,0.0,0.0,0.0,0.0,0.0,0.0,0.0,0.0,0.0,0.0,0.0,0.0,0.0,0.0,0.0,0.0,0.0,0.0,0.0,0.0,0.0,0.0,0.0,0.0,0.0,0.0,0.0,0.0,0.0,0.0,0.0,0.0,0.0,0.0,0.0,0.0,0.0,0.0,0.0,0.0,0.0,0.0,0.0,0.0,0.0,0.0,0.0,0.0,0.0,0.0,0.0,0.0,0.0,0.0,0.0,0.0,0.0,0.0,0.0,0.0,0.0,0.0,0.0,0.0,0.0,0.0,0.0,0.0,0.0,0.0,0.0,0.0,0.0,0.0,0.0,0.0,0.0,0.0,0.0,0.0,0.0,0.0,0.0,0.0,0.0,0.0,0.0,0.0,0.0,0.0,0.0,0.0,0.0,0.0,0.0,0.0,0.0,0.0,0.0,0.0,0.0,0.0,0.0,0.0,0.0,0.0,0.0,0.0,0.0,0.0,0.0,0.0,0.0,0.0,0.0,0.0,0.0,0.0,0.0,0.0,0.0,0.0,0.0,0.0,0.0,0.0,0.0,0.0,0.0,0.0,0.0,0.0,0.0,0.0,0.0,0.0,0.0,0.0,0.0,0.0,0.0,0.0,0.0,0.0,0.0,0.0,0.0,0.0,0.0,0.0,0.0,0.0,0.0,0.0,0.0,0.0,0.0,0.0,0.0,0.0,0.0,0.0,0.0,0.0,0.0,0.0,0.0,0.0,0.0,0.0,0.0,0.0,0.0,0.0,0.0,0.0,0.0,0.0,0.0,0.0,0.0,0.0,0.0,0.0,0.0,0.0,0.0,0.0,0.0,0.0,0.0,0.0,0.0,0.0,0.0,0.0,0.0,0.0,0.0,0.0,0.0,0.0,0.0,0.0,0.0,0.0,0.0,0.0,0.0,0.0,0.0,0.0,0.0,0.0,0.0,0.0,0.0,0.0,0.0,0.0,0.0,0.0,0.0,0.0,0.0,0.0,0.0,0.0,0.0,0.0,0.0,0.0,0.0,0.0,0.0,0.0,0.0,0.0,0.0,0.0,0.0,0.0,0.0,0.0,0.0,0.0,0.0,0.0,0.0,0.0,0.0,0.0,0.0,0.0,0.0,0.0,0.0,0.0,0.0,0.0,0.0,0.0,0.0,0.0,0.0,0.0,0.0,0.0,0.0,0.0,0.0,0.0,0.0,0.0,0.0,0.0,0.0,0.0,0.0,0.0,0.0,0.0,0.0,0.0,0.0,0.0,0.0,0.0,0.0,0.0,0.0,0.0,0.0,0.0,0.0,0.0,0.0,0.0,0.0,0.0,0.0,0.0,0.0,0.0,0.0,0.0,0.0,0.0,0.0,0.0,0.0,0.0,0.0,0.0,0.0,0.0,0.0,0.0,0.0,0.0,0.0,0.0,0.0,0.0,0.0,0.0,0.0,0.0,0.0,0.0,0.0,0.0,0.0,0.0,0.0,0.0,0.0,0.0,0.0,0.0,0.0,0.0,0.0,0.0,0.0,0.0,0.0,0.0,0.0,0.0,0.0,0.0,0.0,0.0,0.0,0.0,0.0,0.0,0.0,0.0,0.0,0.0,0.0,0.0,0.0,0.0,0.0,0.0,0.0,0.0,0.0,0.0,0.0,0.0,0.0,0.0,0.0,0.0,0.0,0.0,0.0,0.0,0.0,0.0,0.0,0.0,0.0,0.0,0.0,0.0,0.0,0.0,0.0,0.0,0.0,0.0,0.0,0.0,0.0,0.0,0.0,0.0,0.0,0.0,0.0,0.0,0.0,0.0,0.0,0.0,0.0,0.0,0.0,0.0,0.0,0.0,0.0,0.0,0.0,0.0,0.0,0.0,0.0,0.0,0.0,0.0,0.0,0.0,0.0,0.0,0.0,0.0,0.0,0.0,0.0,0.0,0.0,0.0,0.0,0.0,0.0,0.0,0.0,0.0,0.0,0.0,0.0,0.0,0.0,0.0,0.0,0.0,0.0,0.0,0.0,0.0,0.0,0.0,0.0,0.0,0.0,0.0,0.0,0.0,0.0,0.0,0.0,0.0,0.0,0.0,0.0,0.0,0.0,0.0,0.0,0.0,0.0,0.0,0.0,-1.3077,0.0,0.0,0.0,0.0,0.0,0.0,0.0,0.0,0.0,0.0,0.0,0.0,0.0,0.0,0.0,0.0,0.0,0.0,0.0,0.0,0.0,0.0,0.0,0.0,0.0,0.0,0.0,0.0,0.0,0.0,0.0,0.0,0.0,0.0,0.0,0.0,0.0,0.0,0.0,0.0,0.0,0.0,0.0,0.0,0.0,0.0,0.0,0.0,0.0,0.0,0.0,0.0,0.0,0.0,0.0,0.0,0.0,0.0,0.0,0.0,0.0,0.0,0.0,0.0,0.0,0.0,0.0,0.0,0.0,0.0,0.0,0.0,0.0,0.0,0.0,0.0,0.0,0.0,0.0,0.0,0.0,0.0,0.0,0.0,0.0,0.0,0.0,0.0,0.0,0.0,0.0,0.0,0.0,0.0,0.0,0.0,0.0,0.0,0.0,0.0,0.0,0.0,0.0,0.0,0.0,0.0,0.0,0.0,0.0,0.0,-1.3666,-1.4468,-1.3976,-1.3645,-1.3628,0.0,0.0,0.0,0.0,0.0,0.0,0.0,0.0,0.0,0.0,0.0,0.0,0.0,0.0,0.0,0.0,0.0,0.0,0.0,0.0,0.0,0.0,0.0,0.0,0.0,0.0,0.0,0.0,0.0,0.0,0.0,0.0,0.0,0.0,0.0,0.0,0.0,0.0,0.0,0.0,0.0,0.0,0.0,0.0,0.0,0.0,0.0,0.0,0.0,0.0,0.0,0.0,0.0,0.0,0.0,0.0,0.0,0.0,0.0,0.0,0.0,0.0,0.0,0.0,0.0,0.0,0.0,0.0,0.0,0.0,0.0,0.0,0.0,0.0,0.0,0.0,0.0,0.0,0.0,0.0,0.0,0.0,0.0,0.0,0.0,0.0,0.0,0.0,0.0,0.0,0.0,0.0,0.0,0.0,0.0,0.0,0.0,0.0,0.0,0.0,0.0,0.0,0.0,0.0,0.0,0.0,0.0,0.0,0.0,0.0,0.0,0.0,-1.5245,-1.4768,-1.4297,0.0,0.0,0.0,0.0,0.0,0.0,0.0,0.0,0.0,0.0,0.0,0.0,0.0,0.0,0.0,0.0,0.0,0.0,0.0,0.0,0.0,0.0,0.0,0.0,0.0,0.0,0.0,0.0,0.0,0.0,0.0,0.0,0.0,0.0,0.0,0.0,0.0,0.0,0.0,0.0,0.0,0.0,0.0,0.0,0.0,0.0,0.0,0.0,0.0,0.0,0.0,0.0,0.0,0.0,0.0,0.0,0.0,0.0,0.0,0.0,0.0,0.0,0.0,0.0,0.0,0.0,0.0,0.0,0.0,0.0,0.0,0.0,0.0,0.0,0.0,0.0,0.0,0.0,0.0,0.0,0.0,0.0,0.0,0.0,0.0,0.0,0.0,0.0,0.0,0.0,0.0,0.0,0.0,0.0,0.0,0.0,0.0,0.0,0.0,0.0,0.0,0.0,0.0,0.0,0.0,0.0,0.0,0.0,0.0,0.0,-1.5148,-1.6365,-1.5927,0.0,-1.4795,0.0,0.0,0.0,0.0,0.0,0.0,0.0,0.0,0.0,0.0,0.0,0.0,0.0,0.0,0.0,0.0,0.0,0.0,0.0,0.0,0.0,0.0,0.0,0.0,0.0,0.0,0.0,0.0,0.0,0.0,0.0,0.0,0.0,0.0,0.0,0.0,0.0,0.0,0.0,0.0,0.0,0.0,0.0,0.0,0.0,0.0,0.0,0.0,0.0,0.0,0.0,0.0,0.0,0.0,0.0,0.0,0.0,0.0,0.0,0.0,0.0,0.0,0.0,0.0,0.0,0.0,0.0,0.0,0.0,0.0,0.0,0.0,0.0,0.0,0.0,0.0,0.0,0.0,0.0,0.0,0.0,0.0,0.0,0.0,0.0,0.0,0.0,0.0,0.0,0.0,0.0,0.0,0.0,0.0,0.0,0.0,0.0,0.0,0.0,0.0,0.0,0.0,0.0,0.0,0.0,0.0,0.0,0.0,0.0,0.0,0.0,-1.6583,-1.5923,-1.54,0.0,0.0,0.0,0.0,0.0,0.0,0.0,0.0,0.0,0.0,0.0,0.0,0.0,0.0,0.0,0.0,0.0,0.0,0.0,0.0,0.0,0.0,0.0,0.0,0.0,0.0,0.0,0.0,0.0,0.0,0.0,0.0,0.0,0.0,0.0,0.0,0.0,0.0,0.0,0.0,0.0,0.0,0.0,0.0,0.0,0.0,0.0,0.0,0.0,0.0,0.0,0.0,0.0,0.0,0.0,0.0,0.0,0.0,0.0,0.0,0.0,0.0,0.0,0.0,0.0,0.0,0.0,0.0,0.0,0.0,0.0,0.0,0.0,0.0,0.0,0.0,0.0,0.0,0.0,0.0,0.0,0.0,0.0,0.0,0.0,0.0,0.0,0.0,0.0,0.0,0.0,0.0,0.0,0.0,0.0,0.0,0.0,0.0,0.0,0.0,0.0,0.0,0.0,0.0,0.0,0.0,0.0,0.0,0.0,0.0,-1.5937,0.0,-1.7012,-1.6465,-1.5908,-1.543,0.0,0.0,0.0,0.0,0.0,0.0,0.0,0.0,0.0,0.0,0.0,0.0,0.0,0.0,0.0,0.0,0.0,0.0,0.0,0.0,0.0,0.0,0.0,0.0,0.0,0.0,0.0,0.0,0.0,0.0,0.0,0.0,0.0,0.0,0.0,0.0,0.0,0.0,0.0,0.0,0.0,0.0,0.0,0.0,0.0,0.0,0.0,0.0,0.0,0.0,0.0,0.0,0.0,0.0,0.0,0.0,0.0,0.0,0.0,0.0,0.0,0.0,0.0,0.0,0.0,0.0,0.0,0.0,0.0,0.0,0.0,0.0,0.0,0.0,0.0,0.0,0.0,0.0,0.0,0.0,0.0,0.0,0.0,0.0,0.0,0.0,0.0,0.0,0.0,0.0,0.0,0.0,0.0,0.0,0.0,0.0,0.0,0.0,0.0,0.0,0.0,0.0,0.0,0.0,0.0,0.0,0.0,0.0,0.0,-1.667,-1.7109,-1.793,-1.791,-1.7109,0.0,0.0,0.0,0.0,0.0,0.0,0.0,0.0,0.0,0.0,0.0,0.0,0.0,0.0,0.0,0.0,0.0,0.0,0.0,0.0,0.0,0.0,0.0,0.0,0.0,0.0,0.0,0.0,0.0,0.0,0.0,0.0,0.0,0.0,0.0,0.0,0.0,0.0,0.0,0.0,0.0,0.0,0.0,0.0,0.0,0.0,0.0,0.0,0.0,0.0,0.0,0.0,0.0,0.0,0.0,0.0,0.0,0.0,0.0,0.0,0.0,0.0,0.0,0.0,0.0,0.0,0.0,0.0,0.0,0.0,0.0,0.0,0.0,0.0,0.0,0.0,0.0,0.0,0.0,0.0,0.0,0.0,0.0,0.0,0.0,0.0,0.0,0.0,0.0,0.0,0.0,0.0,0.0,0.0,0.0,0.0,0.0,0.0,0.0,0.0,0.0,0.0,0.0,0.0,0.0,0.0,0.0,0.0,0.0,-1.5478,-1.6572,-1.7822,-1.9111,-1.7637,-1.6602,0.0,0.0,0.0,0.0,0.0,0.0,0.0,0.0,0.0,0.0,0.0,0.0,0.0,0.0,0.0,0.0,0.0,0.0,0.0,0.0,0.0,0.0,0.0,0.0,0.0,0.0,0.0,0.0,0.0,0.0,0.0,0.0,0.0,0.0,0.0,0.0,0.0,0.0,0.0,0.0,0.0,0.0,0.0,0.0,0.0,0.0,0.0,0.0,0.0,0.0,0.0,0.0,0.0,0.0,0.0,0.0,0.0,0.0,0.0,0.0,0.0,0.0,0.0,0.0,0.0,0.0,0.0,0.0,0.0,0.0,0.0,0.0,0.0,0.0,0.0,0.0,0.0,0.0,0.0,0.0,0.0,0.0,0.0,0.0,0.0,0.0,0.0,0.0,0.0,0.0,0.0,0.0,0.0,0.0,0.0,0.0,0.0,0.0,0.0,0.0,0.0,0.0,0.0,0.0,0.0,0.0,0.0,0.0,0.0,-1.582,0.0,-1.8418,0.0,-1.748,-1.6299,0.0,0.0,0.0,0.0,0.0,0.0,0.0,0.0,0.0,0.0,0.0,0.0,0.0,0.0,0.0,0.0,0.0,0.0,0.0,0.0,0.0,0.0,0.0,0.0,0.0,0.0,0.0,0.0,0.0,0.0,0.0,0.0,0.0,0.0,0.0,0.0,0.0,0.0,0.0,0.0,0.0,0.0,0.0,0.0,0.0,0.0,0.0,0.0,0.0,0.0,0.0,0.0,0.0,0.0,0.0,0.0,0.0,0.0,0.0,0.0,0.0,0.0,0.0,0.0,0.0,0.0,0.0,0.0,0.0,0.0,0.0,0.0,0.0,0.0,0.0,0.0,0.0,0.0,0.0,0.0,0.0,0.0,0.0,0.0,0.0,0.0,0.0,0.0,0.0,0.0,0.0,0.0,0.0,0.0,0.0,0.0,0.0,0.0,0.0,0.0,0.0,0.0,0.0,0.0,0.0,0.0,0.0,0.0,-1.542,-1.7861,-1.8779,-1.8867,-1.8086,-1.7598,-1.6357,0.0,0.0,0.0,0.0,0.0,0.0,0.0,0.0,0.0,0.0,0.0,0.0,0.0,0.0,0.0,0.0,0.0,0.0,0.0,0.0,0.0,0.0,0.0,0.0,0.0,0.0,0.0,0.0,0.0,0.0,0.0,0.0,0.0,0.0,0.0,0.0,0.0,0.0,0.0,0.0,0.0,0.0,0.0,0.0,0.0,0.0,0.0,0.0,0.0,0.0,0.0,0.0,0.0,0.0,0.0,0.0,0.0,0.0,0.0,0.0,0.0,0.0,0.0,0.0,0.0,0.0,0.0,0.0,0.0,0.0,0.0,0.0,0.0,0.0,0.0,0.0,0.0,0.0,0.0,0.0,0.0,0.0,0.0,0.0,0.0,0.0,0.0,0.0,0.0,0.0,0.0,0.0,0.0,0.0,0.0,0.0,0.0,0.0,0.0,0.0,0.0,0.0,0.0,0.0,0.0,0.0,0.0,0.0,0.0,-1.7568,-1.8408,-1.8994,-1.9258,-1.7764,-1.6621,0.0,0.0,0.0,0.0,0.0,0.0,0.0,0.0,0.0,0.0,0.0,0.0,0.0,0.0,0.0,0.0,0.0,0.0,0.0,0.0,0.0,0.0,0.0,0.0,0.0,0.0,0.0,0.0,0.0,0.0,0.0,0.0,0.0,0.0,0.0,0.0,0.0,0.0,0.0,0.0,0.0,0.0,0.0,0.0,0.0,0.0,0.0,0.0,0.0,0.0,0.0,0.0,0.0,0.0,0.0,0.0,0.0,0.0,0.0,0.0,0.0,0.0,0.0,0.0,0.0,0.0,0.0,0.0,0.0,0.0,0.0,0.0,0.0,0.0,0.0,0.0,0.0,0.0,0.0,0.0,0.0,0.0,0.0,0.0,0.0,0.0,0.0,0.0,0.0,0.0,0.0,0.0,0.0,0.0,0.0,0.0,0.0,0.0,0.0,0.0,0.0,0.0,0.0,0.0,0.0,0.0,0.0,0.0,0.0,-1.8115,-1.8916,-1.9453,-1.9678,-1.792,-1.6738,-1.623,0.0,0.0,0.0,0.0,0.0,0.0,0.0,0.0,0.0,0.0,0.0,0.0,0.0,0.0,0.0,0.0,0.0,0.0,0.0,0.0,0.0,0.0,0.0,0.0,0.0,0.0,0.0,0.0,0.0,0.0,0.0,0.0,0.0,0.0,0.0,0.0,0.0,0.0,0.0,0.0,0.0,0.0,0.0,0.0,0.0,0.0,0.0,0.0,0.0,0.0,0.0,0.0,0.0,0.0,0.0,0.0,0.0,0.0,0.0,0.0,0.0,0.0,0.0,0.0,0.0,0.0,0.0,0.0,0.0,0.0,0.0,0.0,0.0,0.0,0.0,0.0,0.0,0.0,0.0,0.0,0.0,0.0,0.0,0.0,0.0,0.0,0.0,0.0,0.0,0.0,0.0,0.0,0.0,0.0,0.0,0.0,0.0,0.0,0.0,0.0,0.0,0.0,0.0,0.0,0.0,0.0,0.0,0.0,-1.9346,-2.0176,-2.0215,-1.9434,-1.8174,-1.6865,0.0,0.0,0.0,0.0,0.0,0.0,0.0,0.0,0.0,0.0,0.0,0.0,0.0,0.0,0.0,0.0,0.0,0.0,0.0,0.0,0.0,0.0,0.0,0.0,0.0,0.0,0.0,0.0,0.0,0.0,0.0,0.0,0.0,0.0,0.0,0.0,0.0,0.0,0.0,0.0,0.0,0.0,0.0,0.0,0.0,0.0,0.0,0.0,0.0,0.0,0.0,0.0,0.0,0.0,0.0,0.0,0.0,0.0,0.0,0.0,0.0,0.0,0.0,0.0,0.0,0.0,0.0,0.0,0.0,0.0,0.0,0.0,0.0,0.0,0.0,0.0,0.0,0.0,0.0,0.0,0.0,0.0,0.0,0.0,0.0,0.0,0.0,0.0,0.0,0.0,0.0,0.0,0.0,0.0,0.0,0.0,0.0,0.0,0.0,0.0,0.0,0.0,0.0,0.0,0.0,0.0,0.0,0.0,0.0,-2.0195,-2.0771,-2.0957,-2.0703,-1.9463,-1.8184,0.0,0.0,0.0,0.0,0.0,0.0,0.0,0.0,0.0,0.0,0.0,0.0,0.0,0.0,0.0,0.0,0.0,0.0,0.0,0.0,0.0,0.0,0.0,0.0,0.0,0.0,0.0,0.0,0.0,0.0,0.0,0.0,0.0,0.0,0.0,0.0,0.0,0.0,0.0,0.0,0.0,0.0,0.0,0.0,0.0,0.0,0.0,0.0,0.0,0.0,0.0,0.0,0.0,0.0,0.0,0.0,0.0,0.0,0.0,0.0,0.0,0.0,0.0,0.0,0.0,0.0,0.0,0.0,0.0,0.0,0.0,0.0,0.0,0.0,0.0,0.0,0.0,0.0,0.0,0.0,0.0,0.0,0.0,0.0,0.0,0.0,0.0,0.0,0.0,0.0,0.0,0.0,0.0,0.0,0.0,0.0,0.0,0.0,0.0,0.0,0.0,0.0,0.0,0.0,0.0,0.0,0.0,0.0,-1.9355,-2.082,-2.1094,-2.1318,-2.1504,-2.0244,-1.8867,0.0,0.0,0.0,0.0,0.0,0.0,0.0,0.0,0.0,0.0,0.0,0.0,0.0,0.0,0.0,0.0,0.0,0.0,0.0,0.0,0.0,0.0,0.0,0.0,0.0,0.0,0.0,0.0,0.0,0.0,0.0,0.0,0.0,0.0,0.0,0.0,0.0,0.0,0.0,0.0,0.0,0.0,0.0,0.0,0.0,0.0,0.0,0.0,0.0,0.0,0.0,0.0,0.0,0.0,0.0,0.0,0.0,0.0,0.0,0.0,0.0,0.0,0.0,0.0,0.0,0.0,0.0,0.0,0.0,0.0,0.0,0.0,0.0,0.0,0.0,0.0,0.0,0.0,0.0,0.0,0.0,0.0,0.0,0.0,0.0,0.0,0.0,0.0,0.0,0.0,0.0,0.0,0.0,0.0,0.0,0.0,0.0,0.0,0.0,0.0,0.0,0.0,0.0,0.0,0.0,0.0,0.0,0.0,-1.957,-2.1201,-2.124,-2.1435,-2.1826,-2.0644,-1.918,0.0,0.0,0.0,0.0,0.0,0.0,0.0,0.0,0.0,0.0,0.0,0.0,0.0,0.0,0.0,0.0,0.0,0.0,0.0,0.0,0.0,0.0,0.0,0.0,0.0,0.0,0.0,0.0,0.0,0.0,0.0,0.0,0.0,0.0,0.0,0.0,0.0,0.0,0.0,0.0,0.0,0.0,0.0,0.0,0.0,0.0,0.0,0.0,0.0,0.0,0.0,0.0,0.0,0.0,0.0,0.0,0.0,0.0,0.0,0.0,0.0,0.0,0.0,0.0,0.0,0.0,0.0,0.0,0.0,0.0,0.0,0.0,0.0,0.0,0.0,0.0,0.0,0.0,0.0,0.0,0.0,0.0,0.0,0.0,0.0,0.0,0.0,0.0,0.0,0.0,0.0,0.0,0.0,0.0,0.0,0.0,0.0,0.0,0.0,0.0,0.0,0.0,0.0,0.0,0.0,0.0,0.0,0.0,-2.0156,-2.1201,-2.124,-2.1445,-2.1875,-2.0937,-1.9629,0.0,0.0,0.0,0.0,0.0,0.0,0.0,0.0,0.0,0.0,0.0,0.0,0.0,0.0,0.0,0.0,0.0,0.0,0.0,0.0,0.0,0.0,0.0,0.0,0.0,0.0,0.0,0.0,0.0,0.0,0.0,0.0,0.0,0.0,0.0,0.0,0.0,0.0,0.0,0.0,0.0,0.0,0.0,0.0,0.0,0.0,0.0,0.0,-1.8369,0.0,0.0,0.0,0.0,0.0,0.0,0.0,0.0,0.0,0.0,0.0,0.0,0.0,0.0,0.0,0.0,0.0,0.0,0.0,0.0,0.0,0.0,0.0,0.0,0.0,0.0,0.0,0.0,0.0,0.0,0.0,0.0,0.0,0.0,0.0,0.0,0.0,0.0,0.0,0.0,0.0,0.0,0.0,0.0,0.0,0.0,0.0,0.0,0.0,0.0,0.0,0.0,0.0,0.0,0.0,0.0,0.0,0.0,0.0,-2.0342,-2.1182,-2.1025,-2.1133,-2.1533,-2.0918,-1.9756,0.0,0.0,0.0,0.0,0.0,0.0,0.0,0.0,0.0,0.0,0.0,0.0,0.0,0.0,0.0,0.0,0.0,0.0,0.0,0.0,0.0,0.0,0.0,0.0,0.0,0.0,0.0,0.0,0.0,0.0,0.0,0.0,0.0,0.0,0.0,0.0,0.0,0.0,0.0,0.0,0.0,0.0,0.0,0.0,0.0,0.0,0.0,0.0,0.0,0.0,0.0,0.0,0.0,0.0,0.0,0.0,0.0,0.0,0.0,0.0,0.0,0.0,0.0,0.0,0.0,0.0,0.0,0.0,0.0,0.0,0.0,0.0,0.0,0.0,0.0,0.0,0.0,0.0,0.0,0.0,0.0,0.0,0.0,0.0,0.0,0.0,0.0,0.0,0.0,0.0,0.0,0.0,0.0,0.0,0.0,0.0,0.0,0.0,0.0,0.0,0.0,0.0,0.0,0.0,0.0,0.0,0.0,-1.9268,-2.0283,-2.1172,-2.0801,-2.0781,-2.1221,-2.0801,-1.983,-1.8086,0.0,0.0,0.0,0.0,0.0,0.0,0.0,0.0,0.0,0.0,0.0,0.0,0.0,0.0,0.0,0.0,0.0,0.0,0.0,0.0,0.0,0.0,0.0,0.0,0.0,0.0,0.0,0.0,0.0,0.0,0.0,0.0,0.0,0.0,0.0,0.0,0.0,0.0,-1.6757,-1.7718,0.0,0.0,0.0,0.0,0.0,0.0,0.0,0.0,-1.9717,0.0,0.0,0.0,0.0,0.0,0.0,0.0,0.0,0.0,0.0,0.0,0.0,0.0,0.0,0.0,0.0,0.0,0.0,0.0,0.0,0.0,0.0,0.0,0.0,0.0,0.0,0.0,0.0,0.0,0.0,0.0,0.0,0.0,0.0,0.0,0.0,0.0,0.0,0.0,0.0,0.0,0.0,0.0,0.0,0.0,0.0,0.0,0.0,0.0,0.0,0.0,0.0,0.0,0.0,0.0,0.0,-1.9043,-1.9287,-1.998,-2.1111,-2.0801,-2.0781,-2.1201,-2.0977,-1.9989,-1.83,0.0,0.0,0.0,0.0,0.0,0.0,0.0,0.0,0.0,0.0,0.0,0.0,0.0,0.0,0.0,0.0,0.0,0.0,0.0,0.0,0.0,0.0,0.0,0.0,0.0,0.0,0.0,0.0,0.0,0.0,0.0,0.0,0.0,0.0,0.0,0.0,0.0,0.0,0.0,-1.93,-1.9999,0.0,0.0,0.0,0.0,0.0,0.0,0.0,0.0,-2.0332,0.0,0.0,0.0,0.0,0.0,0.0,0.0,0.0,0.0,0.0,0.0,0.0,0.0,0.0,0.0,0.0,0.0,0.0,0.0,0.0,0.0,0.0,0.0,0.0,0.0,0.0,0.0,0.0,0.0,0.0,0.0,0.0,0.0,0.0,0.0,0.0,0.0,0.0,0.0,0.0,0.0,0.0,0.0,0.0,0.0,0.0,0.0,0.0,0.0,0.0,0.0,0.0,0.0,0.0,0.0,-1.8584,-1.9576,-2.035,-2.0859,-2.0762,-2.084,-2.1046,-2.0417,-1.9535,0.0,0.0,0.0,0.0,0.0,0.0,0.0,0.0,0.0,0.0,0.0,0.0,0.0,0.0,0.0,0.0,0.0,0.0,0.0,0.0,0.0,0.0,0.0,0.0,0.0,0.0,0.0,0.0,0.0,0.0,0.0,0.0,0.0,0.0,0.0,0.0,0.0,0.0,0.0,0.0,-1.975,-2.047,-2.1212,0.0,0.0,0.0,0.0,0.0,0.0,-2.0576,-2.0488,0.0,0.0,0.0,0.0,0.0,0.0,0.0,0.0,0.0,0.0,0.0,0.0,0.0,0.0,0.0,0.0,0.0,0.0,0.0,0.0,0.0,0.0,0.0,0.0,0.0,0.0,0.0,0.0,0.0,0.0,0.0,0.0,0.0,0.0,0.0,0.0,0.0,0.0,0.0,0.0,0.0,0.0,0.0,0.0,0.0,0.0,0.0,0.0,0.0,0.0,0.0,0.0,0.0,0.0,0.0,-1.7958,-1.9551,-2.0436,-2.0507,-2.0769,-2.0779,-2.0767,-1.9925,-1.9221,0.0,0.0,0.0,0.0,0.0,0.0,0.0,0.0,0.0,0.0,0.0,0.0,0.0,0.0,0.0,0.0,0.0,0.0,0.0,0.0,0.0,0.0,0.0,0.0,0.0,0.0,0.0,0.0,0.0,0.0,0.0,0.0,0.0,0.0,0.0,0.0,0.0,0.0,0.0,0.0,0.0,-2.1051,-2.1899,-2.1451,0.0,0.0,0.0,0.0,-2.1046,-2.1036,0.0,0.0,0.0,0.0,0.0,0.0,0.0,0.0,0.0,0.0,0.0,0.0,0.0,0.0,0.0,0.0,0.0,0.0,0.0,0.0,0.0,0.0,0.0,0.0,0.0,0.0,0.0,0.0,0.0,0.0,0.0,0.0,0.0,0.0,0.0,0.0,0.0,0.0,0.0,0.0,0.0,0.0,0.0,0.0,0.0,0.0,0.0,0.0,0.0,0.0,0.0,0.0,0.0,0.0,0.0,0.0,-1.7871,-1.8518,-1.9321,-2.0216,-2.0525,-2.0544,-2.0256,-2.0362,-1.9666,0.0,0.0,0.0,0.0,0.0,0.0,0.0,0.0,0.0,0.0,0.0,0.0,0.0,0.0,0.0,0.0,0.0,0.0,0.0,0.0,0.0,0.0,0.0,0.0,0.0,0.0,0.0,0.0,0.0,0.0,0.0,0.0,0.0,0.0,0.0,0.0,0.0,0.0,0.0,0.0,0.0,-2.2494,-2.2432,-2.2496,-2.2661,0.0,0.0,-2.2379,-2.2631,-2.2641,0.0,0.0,0.0,0.0,0.0,0.0,0.0,0.0,0.0,0.0,0.0,0.0,0.0,0.0,0.0,0.0,0.0,0.0,0.0,0.0,0.0,0.0,0.0,0.0,0.0,0.0,0.0,0.0,0.0,0.0,0.0,0.0,0.0,0.0,0.0,0.0,0.0,0.0,0.0,0.0,0.0,0.0,0.0,0.0,0.0,0.0,0.0,0.0,0.0,0.0,0.0,0.0,0.0,0.0,0.0,-1.6427,-1.7735,-1.8864,-1.966,-2.0192,-2.0237,-2.0386,-2.0521,-1.9807,-1.899,0.0,0.0,0.0,0.0,0.0,0.0,0.0,0.0,0.0,0.0,0.0,0.0,0.0,0.0,0.0,0.0,0.0,0.0,0.0,0.0,0.0,0.0,0.0,0.0,0.0,0.0,0.0,0.0,0.0,0.0,0.0,0.0,0.0,0.0,0.0,0.0,0.0,0.0,0.0,0.0,0.0,0.0,-2.3248,-2.316,0.0,0.0,0.0,-2.2854,-2.2699,0.0,0.0,0.0,0.0,0.0,0.0,0.0,0.0,0.0,0.0,0.0,0.0,0.0,0.0,0.0,0.0,0.0,0.0,0.0,0.0,0.0,0.0,0.0,0.0,0.0,0.0,0.0,0.0,0.0,0.0,0.0,0.0,0.0,0.0,0.0,0.0,0.0,0.0,0.0,0.0,0.0,0.0,0.0,0.0,0.0,0.0,0.0,0.0,0.0,0.0,0.0,0.0,0.0,0.0,0.0,0.0,0.0,-1.765,-1.9091,-1.9919,-2.0022,-2.005,-2.0175,-2.0461,-1.9373,0.0,0.0,0.0,0.0,0.0,0.0,0.0,0.0,0.0,0.0,0.0,0.0,0.0,0.0,0.0,0.0,0.0,0.0,0.0,0.0,0.0,0.0,0.0,0.0,0.0,0.0,0.0,-1.6974,0.0,0.0,0.0,0.0,0.0,0.0,0.0,0.0,0.0,0.0,0.0,0.0,0.0,0.0,-2.2705,-2.3774,-2.3625,-2.3527,0.0,0.0,-2.3247,-2.3008,-2.2857,-2.2625,0.0,0.0,0.0,0.0,0.0,0.0,0.0,0.0,0.0,0.0,0.0,0.0,0.0,0.0,0.0,0.0,0.0,0.0,0.0,0.0,0.0,0.0,0.0,0.0,0.0,0.0,0.0,0.0,0.0,0.0,0.0,0.0,0.0,0.0,0.0,0.0,0.0,0.0,0.0,0.0,0.0,0.0,0.0,0.0,0.0,0.0,0.0,0.0,0.0,0.0,0.0,0.0,0.0,0.0,0.0,-1.7657,-1.8724,-1.9354,-1.9524,-1.9747,-1.9747,-1.9604,-1.9481,-1.8711,0.0,0.0,0.0,0.0,0.0,0.0,0.0,0.0,0.0,0.0,0.0,0.0,0.0,0.0,0.0,0.0,0.0,0.0,0.0,0.0,0.0,0.0,0.0,0.0,0.0,0.0,0.0,0.0,0.0,0.0,0.0,0.0,0.0,0.0,0.0,0.0,0.0,0.0,0.0,0.0,0.0,-2.3318,-2.3805,-2.407,-2.4155,0.0,0.0,-2.379,-2.4029,-2.3747,-2.3401,-2.3134,0.0,0.0,0.0,0.0,0.0,0.0,0.0,0.0,0.0,0.0,0.0,0.0,0.0,0.0,0.0,0.0,0.0,0.0,0.0,0.0,0.0,0.0,0.0,0.0,0.0,0.0,0.0,0.0,0.0,0.0,0.0,0.0,0.0,0.0,0.0,0.0,0.0,0.0,0.0,0.0,0.0,0.0,0.0,0.0,0.0,0.0,0.0,0.0,0.0,0.0,0.0,0.0,0.0,-1.6652,-1.7606,-1.8588,-1.9264,-1.9471,-1.9379,-1.9438,-1.9689,-1.9807,-1.9243,0.0,0.0,0.0,0.0,0.0,0.0,0.0,0.0,0.0,0.0,0.0,0.0,0.0,0.0,0.0,0.0,0.0,0.0,0.0,0.0,0.0,0.0,0.0,0.0,0.0,0.0,0.0,0.0,-1.882,-1.8995,-1.923,0.0,0.0,0.0,0.0,0.0,0.0,0.0,0.0,0.0,0.0,-2.3453,-2.4178,-2.4351,0.0,0.0,-2.4282,-2.4282,-2.4368,-2.3752,-2.3309,-2.3215,-2.2797,0.0,0.0,0.0,0.0,0.0,0.0,0.0,0.0,0.0,0.0,0.0,0.0,0.0,0.0,0.0,0.0,0.0,0.0,0.0,0.0,0.0,0.0,0.0,0.0,0.0,0.0,0.0,0.0,0.0,0.0,0.0,0.0,0.0,0.0,0.0,0.0,0.0,0.0,0.0,0.0,0.0,0.0,0.0,0.0,0.0,0.0,0.0,0.0,0.0,0.0,0.0,0.0,-1.6636,-1.7533,-1.8475,-1.9019,-1.9414,-1.9173,-1.9354,-1.986,-2.0018,-1.9646,0.0,0.0,0.0,0.0,0.0,0.0,0.0,0.0,0.0,0.0,0.0,0.0,0.0,0.0,0.0,0.0,0.0,0.0,0.0,0.0,0.0,0.0,0.0,0.0,0.0,0.0,0.0,0.0,-1.961,-1.9952,-2.0242,0.0,0.0,0.0,0.0,0.0,0.0,0.0,0.0,0.0,0.0,-2.367,-2.4426,-2.455,-2.455,-2.455,-2.455,-2.455,-2.455,-2.4137,-2.3777,-2.3777,0.0,0.0,0.0,0.0,0.0,0.0,0.0,0.0,0.0,0.0,0.0,0.0,0.0,0.0,0.0,0.0,0.0,0.0,0.0,0.0,0.0,0.0,0.0,0.0,0.0,0.0,0.0,0.0,0.0,0.0,-1.036,0.0,0.0,0.0,0.0,0.0,0.0,0.0,0.0,0.0,0.0,0.0,0.0,0.0,0.0,0.0,0.0,0.0,0.0,0.0,0.0,0.0,0.0,-1.6384,-1.7647,-1.8185,-1.8685,-1.9142,-1.9152,-1.9462,-2.0064,-2.0107,-1.9743,-1.8908,0.0,0.0,0.0,0.0,0.0,0.0,0.0,0.0,0.0,0.0,0.0,0.0,0.0,0.0,0.0,0.0,0.0,0.0,0.0,0.0,0.0,0.0,0.0,0.0,0.0,0.0,-1.9902,-2.0471,-2.0853,0.0,0.0,0.0,0.0,0.0,0.0,0.0,0.0,0.0,0.0,-2.3287,-2.4022,-2.4478,-2.455,-2.454,-2.454,-2.454,-2.454,-2.454,-2.4858,-2.5201,0.0,0.0,0.0,0.0,0.0,0.0,0.0,0.0,0.0,0.0,0.0,0.0,0.0,0.0,0.0,0.0,0.0,0.0,0.0,0.0,0.0,0.0,0.0,0.0,0.0,0.0,0.0,-1.0989,-1.0594,0.0,0.0,0.0,0.0,0.0,0.0,0.0,0.0,0.0,0.0,0.0,-1.6483,-1.7009,0.0,0.0,0.0,0.0,0.0,0.0,0.0,0.0,0.0,0.0,0.0,0.0,-1.6674,-1.7698,-1.8585,-1.9297,-1.9759,-2.0172,-2.0549,-2.0741,-2.1164,-2.1008,-2.0092,0.0,0.0,0.0,0.0,0.0,0.0,0.0,0.0,0.0,0.0,0.0,0.0,0.0,0.0,0.0,0.0,0.0,0.0,0.0,0.0,0.0,0.0,0.0,0.0,0.0,-1.9889,0.0,0.0,0.0,0.0,0.0,0.0,0.0,0.0,0.0,0.0,0.0,-2.3685,-2.419,-2.453,-2.4906,-2.5273,-2.5337,-2.5589,0.0,0.0,0.0,0.0,0.0,0.0,0.0,0.0,0.0,0.0,0.0,0.0,0.0,0.0,-2.8635,-2.7224,-2.6857,-2.6716,-2.6904,0.0,0.0,0.0,0.0,0.0,0.0,0.0,0.0,0.0,0.0,0.0,0.0,0.0,0.0,-1.1387,0.0,-1.0689,0.0,0.0,0.0,0.0,0.0,0.0,0.0,0.0,-1.7153,-1.7491,-1.7576,-1.8041,-1.8151,0.0,-1.8185,-1.777,0.0,0.0,0.0,0.0,0.0,0.0,0.0,0.0,-1.6984,-1.8044,-1.8599,-1.9313,-2.0131,-2.0619,-2.1014,-2.1416,-2.1704,-2.1617,-2.0978,-1.971,-1.8694,0.0,0.0,0.0,0.0,0.0,0.0,0.0,0.0,0.0,0.0,0.0,0.0,0.0,0.0,0.0,0.0,0.0,0.0,0.0,0.0,0.0,0.0,0.0,-2.0296,0.0,0.0,0.0,0.0,0.0,0.0,0.0,0.0,0.0,-2.4342,-2.4809,-2.5291,-2.5711,-2.5831,-2.5973,-2.6191,0.0,0.0,0.0,0.0,0.0,0.0,0.0,-2.7158,-2.7158,-2.7579,-2.7887,-2.7691,-2.8725,-2.9591,-2.9622,0.0,0.0,-2.8602,-2.8009,-2.7872,-2.8205,-2.8443,-2.8512,-2.8203,-2.8776,-2.9088,0.0,0.0,0.0,0.0,0.0,0.0,0.0,0.0,-1.1597,-1.1645,0.0,-1.096,0.0,0.0,0.0,0.0,0.0,0.0,0.0,0.0,-1.8165,-1.8405,-1.8539,-1.8529,-1.8607,-1.8808,-1.9288,-1.9177,-1.8404,-1.7522,0.0,0.0,0.0,0.0,0.0,0.0,-1.7268,-1.8714,-1.8324,-1.8781,-2.0282,-2.04,-2.0938,-2.2065,-2.1712,-2.1506,-2.143,-1.9911,-1.8995,-1.9007,-1.7443,0.0,0.0,0.0,0.0,0.0,0.0,0.0,0.0,0.0,0.0,0.0,0.0,0.0,0.0,0.0,0.0,0.0,0.0,0.0,0.0,-2.0335,0.0,0.0,0.0,0.0,0.0,0.0,0.0,0.0,0.0,0.0,-2.6255,-2.6509,-2.6866,-2.6878,0.0,0.0,0.0,0.0,-2.7151,-2.7232,-2.7232,-2.7232,-2.7232,-2.7959,-2.8542,-2.853,0.0,0.0,-2.9327,-2.9909,-3.0252,-2.9947,-3.0323,-3.0698,-3.0646,-2.974,-2.9307,-2.992,-2.9706,-2.9437,-2.9495,-3.0392,-3.1058,-1.3084,0.0,0.0,0.0,0.0,-1.1992,-1.1984,-1.1911,-1.2153,-1.2235,-1.2258,-1.2064,0.0,0.0,0.0,0.0,0.0,0.0,-1.7269,-1.808,-1.8461,-1.8684,-1.8741,-1.8875,-1.8942,-1.8998,-1.9187,-1.9388,-1.963,-1.9372,-1.8599,-1.7517,0.0,0.0,0.0,0.0,-1.8043,-1.8782,-1.9482,-2.0217,-2.1009,-2.1825,-2.2469,-2.2811,-2.1943,-2.1481,-2.1481,-2.0263,-1.9409,-1.8983,-1.852,0.0,0.0,0.0,0.0,0.0,0.0,0.0,0.0,0.0,0.0,0.0,0.0,0.0,0.0,0.0,0.0,0.0,0.0,0.0,-2.0744,-2.1056,-2.1538,0.0,0.0,0.0,0.0,0.0,0.0,0.0,0.0,0.0,-2.8924,-2.8821,-2.8571,0.0,0.0,-2.8303,-2.8131,-2.8131,-2.8303,-2.8961,0.0,0.0,0.0,-2.93,-2.9456,-2.9456,-2.9779,-3.0101,-3.0239,-3.0506,-3.0633,-3.0589,-3.0794,-3.0911,-3.0898,-3.0677,-3.0481,-3.0686,-3.101,-3.1312,-3.1312,-3.202,-3.25,-1.4128,-1.3711,-1.2936,-1.2533,-1.2445,-1.2694,-1.2658,-1.2438,-1.2767,-1.281,-1.2687,-1.2869,-1.326,-1.3794,-1.422,0.0,0.0,0.0,-1.765,-1.842,-1.8685,-1.8875,-1.8942,-1.9075,-1.9264,-1.9528,-1.9781,-2.0096,-2.0484,-2.106,-2.06,-1.9283,0.0,0.0,-1.8799,-1.8588,-1.8689,-1.9226,-1.9893,-2.0649,-2.1369,-2.2486,-2.2977,-2.2799,-2.1958,-2.1393,-2.1154,-2.0288,-1.966,-1.9346,-1.9083,-1.8719,0.0,0.0,0.0,0.0,0.0,0.0,0.0,0.0,0.0,0.0,0.0,-1.7413,-1.6748,0.0,0.0,0.0,-2.0245,-2.1142,-2.1843,-2.2486,0.0,0.0,0.0,0.0,0.0,0.0,0.0,-2.7824,-2.9091,-2.9993,-3.0124,-3.0099,-2.9984,-2.9614,-2.9509,-2.9419,-2.925,0.0,-2.9353,-2.9921,-2.9869,-2.9856,-3.0011,-2.9934,-2.9934,-3.0011,-3.0241,-3.0394,-3.0622,-3.0773,-3.0836,-3.0986,-3.1259,-3.1468,-3.1468,-3.1676,-3.1656,-3.1163,-3.146,-3.1806,-3.2148,-3.2947,-3.3502,-1.4889,-1.4794,-1.396,-1.3404,-1.3148,-1.3733,-1.3638,-1.3126,-1.3433,-1.3439,-1.3234,-1.3619,-1.4181,-1.4754,-1.5723,0.0,-1.792,-1.7705,-1.8001,-1.8808,-1.8777,-1.8911,-1.9131,-1.9131,-1.9528,-2.0096,-2.0741,-2.1135,-2.125,-2.2384,-2.2478,-2.1379,-2.0827,-2.0366,-1.9903,-1.9359,-1.9303,-1.9759,-1.9878,-2.0508,-2.1619,-2.2611,-2.2862,-2.2322,-2.1782,-2.123,-2.0743,-2.0112,-1.9798,-1.9786,-1.9346,-1.9046,-1.8995,0.0,0.0,0.0,0.0,0.0,0.0,0.0,0.0,0.0,0.0,0.0,0.0,0.0,0.0,0.0,-2.1709,0.0,-2.3289,-2.4374,0.0,0.0,0.0,-2.6621,-2.6151,-2.802,-2.9144,-2.8595,0.0,0.0,-3.0281,0.0,-3.0911,-3.0773,-3.0533,-3.0444,-3.0368,-3.0228,-3.0152,-3.0368,-3.0088,-3.0011,-3.0292,-3.0228,-3.0216,-3.0368,-3.0622,-3.0698,-3.0773,-3.0986,-3.1048,-3.1123,-3.1663,-3.2218,-3.2146,-3.272,-3.2835,-3.1762,-3.1512,-3.1778,-3.2483,-3.3546,-3.4365,-1.4435,-1.4238,-1.4494,-1.4267,-1.3762,-1.3916,-1.3887,-1.3784,-1.4092,-1.45,-1.5002,-1.5113,-1.5519,-1.6211,-1.6432,-1.7036,-1.7845,-1.747,-1.7924,-1.8967,-1.8637,-1.8733,-1.9121,-1.9649,-1.9977,-2.0107,-2.0741,-2.1376,-2.1865,-2.2175,-2.2225,-2.2051,-2.153,-2.0983,-2.049,-1.9877,-1.9656,-1.9798,-2.0669,-2.1587,-2.2711,-2.3,-2.2874,-2.2334,-2.1782,-2.1217,-2.0743,-2.0112,-1.9798,-1.9798,-1.9685,-1.961,-1.961,-1.848,0.0,0.0,0.0,0.0,0.0,0.0,0.0,0.0,0.0,-1.9371,-1.7702,0.0,-2.1171,0.0,-2.2124,-2.3358,-2.4452,-2.5197,0.0,0.0,-2.7471,-2.8111,-2.8438,-2.934,-2.9876,-2.9732,-3.0477,-3.0934,-3.0803,-3.0895,-3.0986,-3.0911,-3.0773,-3.0596,-3.0444,-3.0355,-3.0368,-3.0368,-3.0292,-3.0292,-3.0368,-3.0368,-3.0381,-3.0622,-3.0698,-3.0773,-3.0911,-3.1468,-3.1809,-3.1869,-3.2448,-3.2875,-3.2918,-3.3087,-3.3325,-3.35,-3.3525,-3.3607,-3.3825,-3.4589,-3.5213,-1.4362,-1.4231,-1.4582,-1.4523,-1.4223,-1.4501,-1.4773,-1.5019,-1.5202,-1.5594,-1.6242,-1.6375,-1.6899,-1.7635,-1.7504,-1.7675,-1.8081,-1.7981,-1.8273,-1.8787,-1.875,-1.9013,-1.9584,-1.9901,-2.0298,-2.0654,-2.126,-2.1628,-2.1822,-2.2077,-2.2108,-2.1945,-2.1393,-2.102,-2.0718,-2.0404,-2.0188,-2.0188,-2.128,-2.2272,-2.3027,-2.3125,-2.2702,-2.197,-2.1656,-2.1104,-2.0313,-1.9962,-1.9798,-1.9798,-1.9798,-1.9798,-1.9786,-1.9246,-1.8807,0.0,0.0,0.0,0.0,0.0,0.0,0.0,0.0,0.0,0.0,0.0,-2.2324,0.0,-2.3573,-2.4823,-2.6007,-2.6857,-2.7615,-2.8242,-2.9039,-2.9575,-2.9666,-3.0163,-3.0516,-3.0516,-3.079,-3.0986,-3.0986,-3.0986,-3.0986,-3.0986,-3.0911,-3.0761,-3.0672,-3.0609,-3.0596,-3.0685,-3.052,-3.0444,-3.052,-3.0596,-3.0672,-3.0773,-3.0849,-3.0836,-3.0986,-3.1603,-3.2087,-3.216,-3.2989,-3.3685,-3.3699,-3.4002,-3.4356,-3.4691,-3.4824,-3.4824,-3.4824,-3.5198,-3.5489,-1.434,-1.4348,-1.4392,-1.4484,-1.4599,-1.5205,-1.5693,-1.6103,-1.6103,-1.6472,-1.7142,-1.7515,-1.8157,-1.8903,-1.8547,-1.8349,-1.8417,-1.8576,-1.8633,-1.8539,-1.888,-1.9367,-2.0009,-2.0073,-2.0506,-2.12,-2.1753,-2.1797,-2.1518,-2.197,-2.1933,-2.138,-2.0903,-2.068,-2.0605,-2.068,-2.0756,-2.0832,-2.1719,-2.251,-2.3113,-2.3125,-2.2611,-2.1556,-2.1481,-2.0953,-1.9874,-1.9874,-1.9911,-1.9911,-1.9974,-1.9987,-1.9924,-1.9974,-1.9761,0.0,-1.9196,0.0,0.0,0.0,0.0,0.0,0.0,0.0,0.0,-2.2783,-2.3824,-2.469,-2.5584,-2.6556,-2.7549,-2.8686,-2.9379,-2.9418,-3.0346,-3.079,-3.0333,-3.0686,-3.0986,-3.0986,-3.0986,-3.0986,-3.0986,-3.0986,-3.0986,-3.0986,-3.0986,-3.0986,-3.0986,-3.0849,-3.0761,-3.0986,-3.0685,-3.0596,-3.0685,-3.0836,-3.0986,-3.0986,-3.0986,-3.1061,-3.1185,-3.1809,-3.229,-3.2492,-3.3547,-3.4394,-3.4461,-3.5052,-3.5424,-3.5424,-3.535,-3.529,-3.5394,-3.5424,-3.5489,-1.3682,-1.3711,-1.3967,-1.4434,-1.5052,-1.5381,-1.5592,-1.5676,-1.5676,-1.6471,-1.7814,-1.8228,-1.8686,-1.9183,-1.8782,-1.8645,-1.8745,-1.8272,-1.8339,-1.8731,-1.8616,-1.8817,-1.9454,-2.0019,-2.0372,-2.0684,-2.1334,-2.1581,-2.1493,-2.1594,-2.1368,-2.0882,-2.0781,-2.0439,-2.0012,0.0,0.0,0.0,-2.1543,-2.2121,-2.3088,-2.3125,-2.2611,-2.1543,-2.1481,0.0,-1.9899,-2.025,-2.0501,-2.0514,-2.0928,0.0,0.0,0.0,0.0,0.0,0.0,0.0,0.0,0.0,0.0,0.0,-2.2372,-2.248,-2.2419,-2.4474,-2.5884,-2.6078,-2.7142,-2.7981,-2.8203,-2.9274,-2.998,-2.9993,-3.0581,-3.0934,-3.0843,-3.0921,-3.0986,-3.0986,-3.0986,-3.0986,-3.0986,-3.0986,-3.0986,-3.0986,-3.0986,-3.0986,-3.0986,-3.0986,-3.0911,-3.0986,-3.0911,-3.0911,-3.0911,-3.0986,-3.1048,-3.0986,-3.0986,-3.1259,-3.1783,-3.2519,-3.3213,-3.3685,-3.4624,-3.5264,-3.5249,-3.5424,-3.5415,-3.5474,-3.504,-3.4831,-3.537,-3.5489,-3.5489,-1.3492,0.0,-1.3667,-1.4169,0.0,-1.5062,-1.5511,-1.6263,-1.663,-1.7468,-1.8644,-1.8605,-1.876,-1.8945,-1.8586,-1.8528,-1.8577,-1.8409,-1.8537,-1.8787,-1.8858,-1.9198,-1.9812,-2.0185,-2.0462,-2.0606,-2.1188,-2.1204,-2.0702,-2.0953,-2.079,-2.025,-2.0238,-2.01,-1.9823,-2.0087,-2.0652,-2.1481,-2.1481,-2.1757,-2.2309,-2.2527,-2.2209,-2.1197,0.0,0.0,0.0,0.0,0.0,0.0,0.0,0.0,0.0,0.0,0.0,-2.1104,-2.1568,-2.1895,-2.1882,-2.1882,-2.2133,-2.2686,-2.3599,-2.4202,-2.4202,-2.555,-2.6505,-2.6802,-2.7561,-2.819,-2.8778,-2.9379,-2.9928,-3.0477,-3.0817,-3.0986,-3.0986,-3.0986,-3.0986,-3.0986,-3.0986,-3.0986,-3.0986,-3.0986,-3.0986,-3.0986,-3.0986,-3.0986,-3.0986,-3.0986,-3.0986,-3.0986,-3.0986,-3.0986,-3.1061,-3.1334,-3.1409,-3.1223,-3.1621,-3.2024,-3.2121,-3.3072,-3.3905,-3.4283,-3.472,-3.4996,-3.4966,-3.4756,-3.4517,-3.4487,-3.4233,-3.4083,-3.4442,-3.4517,-3.4517,-1.3492,-1.3492,-1.3637,-1.4122,-1.4816,-1.4958,-1.5807,-1.7116,0.0,0.0,0.0,-1.8789,-1.8672,-1.8721,-1.8439,-1.8388,-1.8378,-1.8556,-1.8629,-1.8675,-1.8977,-1.9459,-2.003,-2.0287,-2.0433,-2.0552,-2.0978,-2.0715,-1.9849,-2.0288,-2.0275,-1.9836,-1.9798,-1.9798,-1.9798,-1.9798,-2.0263,-2.1154,-2.1292,-2.1393,-2.1493,-2.1933,-2.1681,-2.0731,-2.1104,-2.1129,-2.0743,-2.0819,-2.1066,-2.1594,-2.1732,-2.1732,-2.1656,-2.2159,-2.241,-2.2334,-2.2836,-2.3125,-2.3125,-2.3125,-2.3226,-2.3414,-2.4582,-2.5486,-2.597,-2.6361,-2.6804,-2.731,-2.7548,-2.8124,-2.917,-2.9379,-2.9849,-3.0882,-3.0986,-3.0986,-3.0986,-3.0986,-3.0986,-3.0986,-3.0986,-3.0986,-3.0986,-3.0986,-3.0986,-3.0986,-3.0986,-3.0986,-3.0986,-3.0986,-3.0986,-3.0986,-3.0986,-3.0986,-3.111,-3.1469,-3.1663,-3.1213,-3.2026,-3.2624,-3.252,-3.3164,-3.3935,-3.409,-3.4288,-3.4289,-3.4277,-3.3933,-3.3514,-3.3499,-3.3395,-3.332,-3.3305,-3.323,-3.3245,-1.3492,-1.3564,-1.4186,-1.4895,-1.5596,-1.6298,-1.707,-1.7872,-1.7929,-1.8249,-1.8721,-1.8672,-1.8848,-1.917,-1.874,-1.8545,-1.8566,-1.8205,-1.7996,0.0,-1.8499,-1.8833,-1.9023,-1.9533,-1.983,-1.991,-2.0012,-1.9962,-1.9823,-1.9886,-1.9874,-1.9811,-1.9798,-1.9798,-1.9798,-1.9798,-1.9886,-2.0049,-2.058,-2.1016,-2.1468,-2.1568,-2.1317,-2.0715,-2.0794,-2.0806,-2.0731,-2.1171,-2.1631,-2.2171,-2.2648,-2.2686,-2.2259,-2.2711,-2.2799,-2.2385,-2.2777,-2.3125,-2.3125,-2.3125,-2.3613,-2.4709,-2.509,-2.5614,-2.6245,-2.6933,-2.7365,-2.7482,-2.7941,-2.8543,-2.9209,-2.9693,-3.0215,-3.0869,-3.0986,-3.0986,-3.0986,-3.0986,-3.0986,-3.0986,-3.0986,-3.1048,-3.1061,-3.1061,-3.1123,-3.1061,-3.1206,-3.1022,-3.1018,-3.0986,-3.0986,-3.0986,-3.0986,-3.0986,-3.104,-3.1149,-3.1287,-3.1148,-3.1446,-3.2004,-3.2292,-3.268,-3.3068,-3.355,-3.3662,-3.3649,-3.3634,-3.3574,-3.338,-3.3305,-3.2976,-3.2677,-3.2647,-3.2287,-3.2228,-1.366,-1.3572,-1.433,-1.5029,-1.5816,-1.701,-1.7647,-1.8008,-1.8008,-1.8105,-1.8281,-1.8291,-1.8408,-1.8574,-1.8389,-1.8242,-1.82,-1.8011,-1.7839,-1.782,-1.808,-1.8433,-1.8794,-1.9152,-1.9482,-1.9811,-1.9798,-1.9798,-1.9798,-1.9798,-1.9798,-1.9798,-1.9798,-1.9798,-1.9798,-1.9798,-1.9798,-1.9811,-2.0062,-2.0313,-2.0564,-2.0878,-2.0765,-2.0213,-2.0542,-2.0718,-2.0718,-2.1192,-2.1744,-2.2284,-2.2824,-2.2965,-2.2786,-2.3,-2.2965,-2.2786,-2.2987,-2.3125,-2.3125,-2.3198,-2.3811,-2.5065,-2.537,-2.5884,-2.6815,-2.7246,-2.7469,-2.7536,-2.7785,-2.8294,-2.917,-2.9523,-3.0019,-3.0908,-3.0986,-3.0986,-3.0986,-3.0986,-3.0986,-3.1061,-3.132,-3.1603,-3.1603,-3.1969,-3.2173,-3.2146,-3.1942,-3.1544,-3.1219,-3.1151,-3.1118,-3.1087,-3.1155,-3.1165,-3.1208,-3.1557,-3.1615,-3.1359,-3.1947,-3.2392,-3.2591,-3.2679,-3.3069,-3.3393,-3.3215,-3.2991,-3.2961,-3.2647,-3.2482,-3.2407,-3.2243,-3.2003,-3.1928,-3.1661,-3.1735,-1.3726,-1.3564,-1.433,-1.5108,-1.6097,-1.7442,-1.8008,-1.8008,-1.8008,-1.8008,-1.8008,-1.8008,-1.8008,-1.8008,-1.8008,-1.7917,-1.7861,-1.7795,-1.764,-1.7554,-1.7659,-1.8056,-1.8655,-1.8887,-1.9291,-1.9747,-1.9798,-1.9798,-1.9798,-1.9798,-1.9798,-1.9798,-1.9798,-1.9798,-1.9798,-1.9798,-1.9798,-1.9798,-1.9798,-1.9798,-1.9811,-2.025,-2.025,-1.9874,-2.0225,-2.0539,-2.0731,-2.1134,-2.1556,-2.2096,-2.2535,-2.2824,-2.2949,-2.289,-2.294,-2.304,-2.3125,-2.3138,-2.3138,-2.333,-2.4007,-2.5268,-2.551,-2.6052,-2.7167,-2.7469,-2.7469,-2.7469,-2.7482,-2.802,-2.9039,-2.9301,-2.9804,-3.1014,-3.1272,-3.1408,-3.1468,-3.1482,-3.1482,-3.1542,-3.2028,-3.2321,-3.2269,-3.2582,-3.2765,-3.2569,-3.2316,-3.1839,-3.1419,-3.1288,-3.1254,-3.1237,-3.1235,-3.1271,-3.1307,-3.1718,-3.1858,-3.1449,-3.2237,-3.2511,-3.2408,-3.2676,-3.2976,-3.2916,-3.2617,-3.2347,-3.2258,-3.1943,-3.1616,-3.1616,-3.1571,-3.1511,-3.1526,-3.1511,-3.1482,-1.3528,-1.3645,-1.4258,-1.5446,-1.6793,-1.7647,-1.8008,-1.8008,-1.8008,-1.8008,-1.8008,-1.8008,-1.8008,-1.8008,-1.7998,-1.7888,-1.7641,-1.7346,-1.7112,-1.6968,-1.7156,-1.7601,-1.8185,-1.8732,-1.9303,-1.9747,-1.9798,-1.9798,-1.9798,-1.9798,-1.9798,-1.9798,-1.9798,-1.9798,-1.9798,-1.9798,-1.9798,-1.9798,-1.9798,-1.9798,-1.9798,-1.9849,-1.9849,-1.9811,-1.9849,-2.0125,-2.0655,-2.0769,-2.0991,-2.1506,-2.1631,-2.1882,-2.2309,-2.2385,-2.2611,-2.3015,-2.3125,-2.3198,-2.3343,-2.339,-2.4055,-2.5355,-2.5586,-2.6129,-2.7326,-2.7469,-2.7469,-2.751,-2.751,-2.8033,-2.9104,-2.9274,-3.0019,-3.1635,-3.1955,-3.2232,-3.272,-3.3017,-3.3003,-3.3017,-3.2933,-3.2863,-3.2373,-3.2384,-3.2159,-3.1843,-3.1768,-3.1599,-3.1387,-3.1325,-3.1382,-3.1366,-3.1368,-3.1274,-3.1364,-3.1397,-3.1492,-3.1456,-3.1544,-3.1737,-3.1809,-3.1764,-3.1734,-3.2078,-3.1809,-3.1734,-3.1704,-3.1482,-3.1482,-3.1452,-3.1437,-3.1437,-3.1467,-3.1422,-3.1392,-1.3843,-1.3572,-1.433,-1.5525,-1.6862,-1.7716,-1.8008,-1.8008,-1.8008,-1.8008,-1.8008,-1.8008,-1.8008,-1.7988,-1.7754,-1.7534,-1.7346,-1.6969,-1.6718,-1.6595,-1.6665,-1.7224,-1.8093,-1.8309,-1.891,-1.9747,-1.9798,-1.9798,-1.9798,-1.9798,-1.9798,-1.9798,-1.9798,-1.9798,-1.9798,-1.9798,-1.9798,-1.9798,-1.9798,-1.9798,-1.9798,-1.9798,-1.9798,-1.9798,-1.9798,-1.9899,-2.0162,-2.0529,-2.0832,-2.1058,-2.1317,-2.1594,-2.182,-2.2121,-2.241,-2.2648,-2.2962,-2.3198,-2.3522,-2.3522,-2.4189,-2.5621,-2.5699,-2.6244,-2.7392,-2.7469,-2.7525,-2.7561,-2.7512,-2.8007,-2.9052,-2.9274,-3.0077,-3.1672,-3.2087,-3.2434,-3.3087,-3.3213,-3.3101,-3.2764,-3.3022,-3.3078,-3.2534,-3.2688,-3.2684,-3.2159,-3.1999,-3.1835,-3.1533,-3.1454,-3.1456,-3.1456,-3.1421,-3.1416,-3.1384,-3.1452,-3.1456,-3.1442,-3.1471,-3.1467,-3.1467,-3.1467,-3.1482,-3.1452,-3.1467,-3.1467,-3.1497,-3.1467,-3.1467,-3.1362,-3.112,-3.1031,-3.1435,-3.1195,-3.1106,-1.3931,-1.3674,-1.4537,-1.5525,-1.6655,-1.7579,-1.8008,-1.8008,-1.8008,-1.8008,-1.8008,-1.8008,-1.8008,-1.7949,-1.7568,-1.7342,-1.7076,-1.6698,-1.6504,-1.6566,-1.6581,-1.7234,-1.8267,-1.8375,-1.8845,-1.9643,-1.9798,-1.9798,-1.9798,-1.9798,-1.9798,-1.9798,-1.9798,-1.9798,-1.9798,-1.9798,-1.9798,-1.9798,-1.9798,-1.9798,-1.9798,-1.9798,-1.9798,-1.9798,-1.9798,-1.9798,-1.9811,-2.0213,-2.0532,-2.0703,-2.1031,-2.1419,-2.1681,-2.2065,-2.2424,-2.2744,-2.3174,-2.3599,-2.4047,-2.4275,-2.4965,-2.6148,-2.6489,-2.701,-2.7746,-2.7879,-2.7779,-2.7808,-2.7669,-2.7999,-2.9105,-2.9464,-3.04,-3.215,-3.247,-3.2807,-3.3699,-3.3736,-3.3407,-3.2992,-3.3253,-3.3176,-3.2669,-3.267,-3.2586,-3.2229,-3.2169,-3.2123,-3.1616,-3.1497,-3.1497,-3.1467,-3.1482,-3.1497,-3.1467,-3.1468,-3.1467,-3.1467,-3.1467,-3.1467,-3.1467,-3.1467,-3.133,-3.1195,-3.139,-3.1255,-3.0866,-3.0911,-3.112,-3.0941,-3.0627,-3.0402,-3.0731,-3.0492,-3.0597,-1.3521,-1.371,-1.5037,-1.5675,-1.5886,-1.7373,-1.8008,-1.8008,-1.8008,-1.8008,-1.8008,-1.8008,-1.8008,-1.7969,-1.7539,-1.7268,-1.6951,-1.6698,-1.666,-1.6931,-1.7101,-1.782,-1.8922,-1.8975,-1.9226,-1.9747,-1.9798,-1.9798,-1.9798,-1.9798,-1.9798,-1.9798,-1.9798,-1.9798,-1.9798,-1.9798,-1.9798,-1.9798,-1.9798,-1.9798,-1.9798,-1.9798,-1.9798,-1.9798,-1.9798,-1.9798,-1.9798,-1.9823,-2.0105,-2.0562,-2.069,-2.1114,-2.2035,-2.2194,-2.2681,-2.3662,-2.3987,-2.4436,-2.5162,-2.584,-2.6662,-2.7446,-2.7973,-2.8694,-2.8983,-2.8629,-2.833,-2.8428,-2.7889,-2.8182,-2.9191,-2.9739,-3.105,-3.2901,-3.3258,-3.3849,-3.5109,-3.451,-3.442,-3.4088,-3.3597,-3.3032,-3.2497,-3.193,-3.1794,-3.1674,-3.1556,-3.1541,-3.1584,-3.1467,-3.1467,-3.1467,-3.1467,-3.1467,-3.1467,-3.1467,-3.1467,-3.1467,-3.1467,-3.1422,-3.1452,-3.1465,-3.1106,-3.0881,-3.1031,-3.0806,-3.0133,-2.9953,-3.0163,-3.0088,-2.9849,-2.9774,-3.0103,-2.9789,-2.9894,-1.3969,-1.4258,-1.5259,-1.5956,-1.6585,-1.7588,-1.8008,-1.8008,-1.8008,-1.8008,-1.8008,-1.8008,-1.8008,-1.7978,-1.7275,-1.6939,-1.7004,-1.7031,-1.7048,-1.7099,-1.7545,-1.8213,-1.8934,-1.8987,-1.9291,-1.9759,-1.9798,-1.9798,-1.9798,-1.9798,-1.9798,-1.9798,-1.9798,-1.9798,-1.9798,-1.9798,-1.9798,-1.9798,-1.9798,-1.9798,-1.9798,-1.9798,-1.9798,-1.9798,-1.9798,-1.9798,-1.9798,-2.0105,-2.0409,-2.061,-2.0944,-2.1269,-2.1645,-2.1997,-2.2515,-2.3257,-2.3458,-2.3929,-2.4708,-2.5494,-2.6441,-2.7593,-2.8327,-2.8778,-2.8783,-2.8629,-2.8341,-2.8068,-2.8197,-2.8469,-2.8856,-2.9437,-3.0772,-3.2782,-3.3064,-3.3308,-3.4341,-3.4262,-3.3694,-3.3245,-3.2662,-3.2138,-3.1988,-3.1616,-3.1482,-3.1467,-3.1467,-3.1467,-3.1467,-3.1467,-3.1467,-3.1467,-3.1467,-3.1467,-3.1467,-3.1467,-3.1467,-3.1467,-3.1422,-3.121,-3.112,-3.0986,-3.0687,-3.0118,-3.0313,-3.0298,-2.9609,-2.946,-2.9594,-2.9535,-2.9265,-2.9116,-2.952,-2.916,-2.9295,-1.4329,-1.4768,-1.5666,-1.6376,-1.6932,-1.7716,-1.8008,-1.8008,-1.8008,-1.8008,-1.8008,-1.8008,-1.7939,-1.7734,-1.7197,-1.6821,-1.6733,-1.6816,-1.6958,-1.7179,-1.7765,-1.8417,-1.9081,-1.9251,-1.9448,-1.9747,-1.9798,-1.9798,-1.9798,-1.9798,-1.9798,-1.9798,-1.9798,-1.9798,-1.9798,-1.9798,-1.9798,-1.9798,-1.9798,-1.9862,-2.0003,-2.0055,-2.0156,-2.0295,-2.0333,-2.0144,-1.985,-2.0156,-2.0459,-2.061,-2.1126,-2.1561,-2.1855,-2.2235,-2.2699,-2.3289,-2.3473,-2.4002,-2.5024,-2.5991,-2.7095,-2.8254,-2.9116,-2.9533,-2.9229,-2.897,-2.8569,-2.8152,-2.8067,-2.834,-2.8669,-2.9157,-3.0416,-3.228,-3.2357,-3.2662,-3.3901,-3.3559,-3.2916,-3.2332,-3.1898,-3.1541,-3.1467,-3.1482,-3.1467,-3.1467,-3.1467,-3.1467,-3.1467,-3.1467,-3.1467,-3.1467,-3.1467,-3.1467,-3.1362,-3.13,-3.1375,-3.139,-3.133,-3.1031,-3.0612,-3.0477,-3.0118,-2.9564,-2.934,-2.9385,-2.9295,-2.9101,-2.9011,-2.8966,-2.8652,-2.8368,-2.8502,-2.8502,-2.8727,-1.4617,-1.4887,-1.6228,-1.6862,-1.7079,-1.7725,-1.8008,-1.8008,-1.7978,-1.7959,-1.7998,-1.7988,-1.7754,-1.7451,-1.7285,-1.6929,-1.6335,-1.6038,-1.6498,-1.7379,-1.7863,-1.8632,-1.9552,-1.9656,-1.9747,-1.9798,-1.9798,-1.9798,-1.9798,-1.9798,-1.9798,-1.9798,-1.9798,-1.9798,-1.9798,-1.9798,-1.9798,-1.9798,-1.985,-2.0105,-2.051,-2.056,-2.0795,-2.1224,-2.1272,-2.0832,-1.9952,-1.9952,-2.0295,-2.0709,-2.1237,-2.1908,-2.2646,-2.2855,-2.3207,-2.3821,-2.4124,-2.4897,-2.6145,-2.7431,-2.8322,-2.9312,-3.0589,-3.0802,-3.0179,-2.9773,-2.9163,-2.8457,-2.7965,-2.7874,-2.8517,-2.9024,-3.0012,-3.1273,-3.1589,-3.2154,-3.3051,-3.2916,-3.2273,-3.1691,-3.1482,-3.1467,-3.1467,-3.1467,-3.1467,-3.1467,-3.1467,-3.1467,-3.1467,-3.1467,-3.1467,-3.1467,-3.1452,-3.1437,-3.1213,-3.1046,-3.115,-3.121,-3.1135,-3.0911,-3.0283,-2.9953,-2.946,-2.8951,-2.8831,-2.8846,-2.8607,-2.8397,-2.8128,-2.8023,-2.7754,-2.7769,-2.7874,-2.8008,-2.8113,-1.4402,-1.5392,-1.5886,-1.6733,-1.7579,-1.794,-1.8008,-1.7969,-1.7715,-1.7744,-1.792,-1.7715,-1.751,-1.7334,-1.707,-1.6852,-1.6687,-1.6308,-1.6641,-1.7578,-1.8566,-1.9214,-1.9656,-1.9747,-1.9798,-1.9798,-1.9798,-1.9798,-1.9798,-1.9798,-1.9798,-1.9798,-1.9798,-1.9798,-1.9798,-1.9798,-1.9798,-1.985,-2.0156,-2.0459,-2.061,-2.0944,-2.1224,-2.1369,-2.1417,-2.121,-2.093,-2.1237,-2.1541,-2.1684,-2.2156,-2.2601,-2.2843,-2.2978,-2.3139,-2.339,-2.3659,-2.4074,-2.507,-2.6449,-2.7754,-2.8846,-3.0103,-3.0432,-2.9983,-2.9714,-2.9086,-2.8128,-2.7679,-2.776,-2.794,-2.8053,-2.919,-3.1228,-3.1482,-3.1794,-3.2557,-3.2258,-3.1809,-3.1541,-3.1467,-3.1467,-3.1467,-3.1467,-3.1467,-3.1467,-3.1452,-3.148,-3.1467,-3.1377,-3.1467,-3.1467,-3.1437,-3.1168,-3.0836,-3.0462,-3.0372,-3.0432,-3.0432,-3.0357,-2.9804,-2.9415,-2.8891,-2.8487,-2.8382,-2.8284,-2.7993,-2.7814,-2.7634,-2.756,-2.7634,-2.7619,-2.7575,-2.7679,-2.7844,-1.4617,-1.5675,-1.6018,-1.6872,-1.794,-1.8008,-1.791,-1.7754,-1.75,-1.7451,-1.7461,-1.7266,-1.7041,-1.6865,-1.6602,-1.6475,-1.6453,-1.654,-1.6978,-1.7644,-1.8632,-1.9331,-1.9604,-1.9747,-1.9798,-1.9798,-1.9798,-1.9798,-1.9798,-1.9798,-1.9798,-1.9798,-1.9798,-1.9798,-1.9798,-1.9798,-1.9798,-1.985,-2.0308,-2.0696,-2.0944,-2.1431,-2.1766,-2.1908,-2.1955,-2.1969,-2.2016,-2.231,-2.2278,-2.2077,-2.237,-2.2692,-2.2888,-2.2992,-2.3082,-2.3216,-2.3378,-2.3777,-2.4536,-2.5896,-2.7021,-2.8218,-2.9639,-3.0073,-2.9505,-2.937,-2.8981,-2.7844,-2.7575,-2.756,-2.7655,-2.7844,-2.8771,-3.0193,-3.0627,-3.1195,-3.1839,-3.1735,-3.1511,-3.1467,-3.1467,-3.1467,-3.1467,-3.1467,-3.1467,-3.1452,-3.1258,-3.133,-3.1315,-3.1061,-3.1031,-3.0941,-3.0761,-3.0477,-3.0223,-2.9909,-2.9609,-2.9579,-2.9579,-2.943,-2.9086,-2.8936,-2.8592,-2.8113,-2.7925,-2.7955,-2.7709,-2.7679,-2.756,-2.756,-2.756,-2.756,-2.756,-2.756,-2.7679,-1.4958,-1.5745,-1.6507,-1.7226,-1.794,-1.8008,-1.7793,-1.7432,-1.7324,-1.7129,-1.6846,-1.6738,-1.6494,-1.6233,-1.6213,-1.6018,-1.5702,-1.656,-1.7202,-1.76,-1.8255,-1.8857,-1.946,-1.9708,-1.9798,-1.9798,-1.9798,-1.9798,-1.9798,-1.9798,-1.9798,-1.9798,-1.9798,-1.9798,-1.9798,-1.985,-1.9914,-2.0003,-2.0459,-2.1042,-2.1465,-2.1969,-2.2417,-2.2797,-2.2783,-2.2783,-2.2737,-2.2783,-2.2449,-2.1718,-2.2123,-2.2555,-2.2797,-2.2888,-2.3023,-2.3246,-2.329,-2.3703,-2.4566,-2.5508,-2.6602,-2.7395,-2.8921,-2.9879,-2.8801,-2.9011,-2.8906,-2.7739,-2.756,-2.756,-2.773,-2.8008,-2.8502,-2.8682,-2.946,-3.0268,-3.1195,-3.1345,-3.1195,-3.127,-3.139,-3.1405,-3.1285,-3.13,-3.1345,-3.1165,-3.0776,-3.0776,-3.0851,-3.0537,-3.0088,-3.0013,-3.0103,-2.9849,-2.9609,-2.9385,-2.9056,-2.8742,-2.8742,-2.8652,-2.8502,-2.8412,-2.8308,-2.7829,-2.756,-2.756,-2.756,-2.756,-2.756,-2.756,-2.756,-2.756,-2.756,-2.756,-2.756,-1.4545,-1.5675,-1.5956,-1.6802,-1.794,-1.8008,-1.7764,-1.7353,-1.7041,-1.6846,-1.666,-1.6377,-1.6172,-1.6125,-1.6105,-1.6059,-1.6107,-1.6368,-1.709,-1.7875,-1.8213,-1.8804,-1.946,-1.9708,-1.9798,-1.9798,-1.9798,-1.9798,-1.9798,-1.9798,-1.9798,-1.9798,-1.9798,-1.9798,-1.985,-2.0156,-2.0359,-2.051,-2.1299,-2.1793,-2.1969,-2.2463,-2.2752,-2.2843,-2.2888,-2.2888,-2.2888,-2.2888,-2.2843,-2.254,-2.2601,-2.2752,-2.2902,-2.2978,-2.3082,-2.3157,-2.3246,-2.3422,-2.3881,-2.4641,-2.5386,-2.6138,-2.7649,-2.8173,-2.7934,-2.8472,-2.8368,-2.7739,-2.756,-2.756,-2.7655,-2.7805,-2.8053,-2.8577,-2.9086,-2.9654,-3.0058,-3.0103,-3.0103,-3.0133,-3.0537,-3.0552,-3.0417,-3.0507,-3.0627,-3.0283,-3.0028,-2.9924,-3.0118,-2.9879,-2.9415,-2.9624,-2.9654,-2.9325,-2.9041,-2.8816,-2.8487,-2.8008,-2.797,-2.7964,-2.7889,-2.7859,-2.7784,-2.7625,-2.7575,-2.756,-2.756,-2.756,-2.756,-2.756,-2.756,-2.756,-2.756,-2.756,-2.756,-1.4338,-1.5666,-1.5666,-1.6594,-1.794,-1.8008,-1.7666,-1.7139,-1.6855,-1.6494,-1.6182,-1.5918,-1.5791,-1.5791,-1.5781,-1.5822,-1.5931,-1.6197,-1.68,-1.771,-1.8387,-1.904,-1.9552,-1.9759,-1.9798,-1.9798,-1.9798,-1.9798,-1.9798,-1.9798,-1.9798,-1.9798,-1.9798,-1.9798,-1.9798,-2.0093,-2.0409,-2.066,-2.1444,-2.1935,-2.2217,-2.2646,-2.2843,-2.2888,-2.2888,-2.2888,-2.2888,-2.2888,-2.2888,-2.2888,-2.2888,-2.2888,-2.2888,-2.2947,-2.3037,-2.3082,-2.3246,-2.3363,-2.3584,-2.4134,-2.4701,-2.5373,-2.6602,-2.7275,-2.7425,-2.7979,-2.8308,-2.7694,-2.759,-2.756,-2.756,-2.756,-2.7805,-2.8098,-2.8517,-2.8981,-2.949,-2.9639,-2.9594,-2.9669,-2.9849,-3.0013,-2.9609,-2.9909,-2.9879,-2.9654,-2.9385,-2.9445,-2.9549,-2.9131,-2.8906,-2.9071,-2.8951,-2.8562,-2.8397,-2.8233,-2.8203,-2.7724,-2.767,-2.7575,-2.756,-2.756,-2.7625,-2.7625,-2.7625,-2.756,-2.756,-2.756,-2.756,-2.756,-2.756,-2.756,-2.756,-2.756,-2.756,-1.4402,-1.5745,-1.5816,-1.6664,-1.7852,-1.7949,-1.748,-1.6836,-1.666,-1.6191,-1.5605,-1.5439,-1.5478,-1.542,-1.5498,-1.543,-1.5468,-1.6026,-1.6754,-1.76,-1.8494,-1.9316,-1.9525,-1.9708,-1.9747,-1.9798,-1.9798,-1.9798,-1.9798,-1.9798,-1.9798,-1.985,-1.985,-1.9901,-2.0055,-2.0144,-2.0346,-2.0894,-2.1527,-2.2016,-2.237,-2.2706,-2.2888,-2.2888,-2.2888,-2.2888,-2.2888,-2.2888,-2.2888,-2.2888,-2.2888,-2.2888,-2.2888,-2.2902,-2.2992,-2.3082,-2.3201,-2.3319,-2.3525,-2.406,-2.4433,-2.4761,-2.6243,-2.7111,-2.6856,-2.7604,-2.8143,-2.7619,-2.7575,-2.756,-2.756,-2.756,-2.759,-2.776,-2.7679,-2.8203,-2.9011,-2.937,-2.9385,-2.9454,-2.9385,-2.946,-2.94,-2.9445,-2.9415,-2.8891,-2.8682,-2.8682,-2.8697,-2.8479,-2.8323,-2.8442,-2.8158,-2.7724,-2.7664,-2.7649,-2.7694,-2.7575,-2.759,-2.756,-2.756,-2.756,-2.756,-2.756,-2.756,-2.756,-2.756,-2.756,-2.756,-2.756,-2.756,-2.756,-2.756,-2.756,-2.756,-1.4903,-1.5745,-1.6367,-1.7148,-1.7891,-1.7656,-1.7217,-1.6699,-1.6357,-1.5928,-1.5498,-1.542,-1.542,-1.542,-1.542,-1.542,-1.5526,-1.614,-1.6866,-1.7984,-1.8774,-1.9275,-1.9473,-1.9617,-1.9708,-1.9798,-1.9798,-1.9798,-1.9798,-1.9798,-1.9798,-1.985,-2.0156,-2.0396,-2.0459,-2.1091,-2.1684,-2.1935,-2.231,-2.2509,-2.2646,-2.2797,-2.2888,-2.2888,-2.2888,-2.2888,-2.2888,-2.2888,-2.2888,-2.2888,-2.2888,-2.2888,-2.2888,-2.2933,-2.2992,-2.3082,-2.3127,-2.3246,-2.3495,-2.3658,-2.3762,-2.4059,-2.5241,-2.5974,-2.5974,-2.7081,-2.7664,-2.756,-2.756,-2.756,-2.756,-2.756,-2.756,-2.756,-2.7625,-2.773,-2.7949,-2.809,-2.8128,-2.824,-2.8502,-2.8622,-2.8173,-2.8622,-2.8517,-2.8128,-2.806,-2.797,-2.7895,-2.7835,-2.7874,-2.8008,-2.7859,-2.756,-2.756,-2.756,-2.756,-2.747,-2.7425,-2.7545,-2.7545,-2.744,-2.7395,-2.747,-2.756,-2.756,-2.756,-2.756,-2.756,-2.756,-2.756,-2.756,-2.756,-2.756,-2.756,-1.5021,-1.5728,-1.6318,-1.7004,-1.758,-1.7256,-1.6826,-1.6436,-1.6182,-1.582,-1.5478,-1.542,-1.542,-1.542,-1.541,-1.5526,-1.6026,-1.6743,-1.7534,-1.8267,-1.8893,-1.9275,-1.946,-1.9565,-1.9668,-1.9798,-1.9798,-1.9798,-1.9798,-1.9798,-1.9798,-1.985,-2.0308,-2.056,-2.0696,-2.1431,-2.1874,-2.2123,-2.2431,-2.2661,-2.2843,-2.2888,-2.2888,-2.2888,-2.2888,-2.2888,-2.2888,-2.2888,-2.2947,-2.2978,-2.2992,-2.2992,-2.3037,-2.3023,-2.3112,-2.3201,-2.3246,-2.3334,-2.3466,-2.3538,-2.3581,-2.3625,-2.4852,-2.539,-2.5899,-2.6811,-2.7535,-2.756,-2.756,-2.756,-2.756,-2.756,-2.756,-2.756,-2.756,-2.756,-2.756,-2.756,-2.756,-2.7619,-2.7919,-2.7919,-2.7874,-2.8068,-2.8023,-2.7814,-2.7799,-2.7724,-2.7709,-2.77,-2.7685,-2.7694,-2.7649,-2.756,-2.756,-2.756,-2.756,-2.7395,-2.7186,-2.7365,-2.755,-2.735,-2.7186,-2.732,-2.747,-2.756,-2.756,-2.756,-2.756,-2.756,-2.756,-2.756,-2.761,-2.7625,-2.7625,-1.4874,-1.5548,-1.5968,-1.659,-1.7152,-1.6816,-1.6426,-1.6164,-1.6047,-1.5723,-1.5469,-1.542,-1.542,-1.542,-1.542,-1.5748,-1.6585,-1.7424,-1.8159,-1.8494,-1.8946,-1.9316,-1.9512,-1.9617,-1.9668,-1.9798,-1.9798,-1.9798,-1.9798,-1.9798,-1.9798,-1.9901,-2.0359,-2.0646,-2.0845,-2.1286,-2.186,-2.2324,-2.2431,-2.2569,-2.2843,-2.2888,-2.2888,-2.2888,-2.2888,-2.2888,-2.2888,-2.2888,-2.2947,-2.3052,-2.3097,-2.3097,-2.3127,-2.3201,-2.3334,-2.3319,-2.3422,-2.3466,-2.3509,-2.3566,-2.361,-2.3655,-2.4702,-2.545,-2.5824,-2.6587,-2.7275,-2.753,-2.756,-2.756,-2.756,-2.756,-2.756,-2.756,-2.756,-2.756,-2.756,-2.756,-2.756,-2.7575,-2.7664,-2.7649,-2.7619,-2.7709,-2.7619,-2.756,-2.756,-2.756,-2.756,-2.756,-2.756,-2.756,-2.756,-2.756,-2.756,-2.7171,-2.7215,-2.7066,-2.6841,-2.6871,-2.7051,-2.6782,-2.6632,-2.7171,-2.7365,-2.741,-2.7505,-2.7535,-2.7535,-2.758,-2.756,-2.756,-2.7625,-2.7675,-2.771,-1.4221,-1.4878,-1.5595,-1.6232,-1.6704,-1.6367,-1.6123,-1.6006,-1.5684,-1.5498,-1.543,-1.542,-1.542,-1.542,-1.542,-1.6036,-1.6922,-1.782,-1.8429,-1.8774,-1.9117,-1.9328,-1.9473,-1.9617,-1.9708,-1.9747,-1.9798,-1.9798,-1.9798,-1.9798,-1.9901,-1.9952,-2.0459,-2.0845,-2.1334,-2.1779,-2.2263,-2.2601,-2.2706,-2.2797,-2.2843,-2.2888,-2.2888,-2.2873,-2.283,-2.2844,-2.2888,-2.2888,-2.2888,-2.2947,-2.3023,-2.3082,-2.3171,-2.3246,-2.3378,-2.3422,-2.3451,-2.3509,-2.3581,-2.361,-2.3595,-2.3774,-2.4403,-2.5076,-2.56,-2.6333,-2.7036,-2.7455,-2.756,-2.756,-2.756,-2.756,-2.756,-2.756,-2.756,-2.756,-2.756,-2.756,-2.756,-2.756,-2.756,-2.756,-2.756,-2.756,-2.756,-2.756,-2.756,-2.756,-2.756,-2.756,-2.756,-2.756,-2.756,-2.756,-2.756,-2.6991,-2.6677,-2.6512,-2.6288,-2.5989,-2.6048,-2.5899,-2.6033,-2.6408,-2.6856,-2.7066,-2.7205,-2.725,-2.7355,-2.7275,-2.7395,-2.753,-2.761,-2.771,-2.7944,-1.4049,-1.4672,-1.5187,-1.5798,-1.6237,-1.5908,-1.5732,-1.5693,-1.5508,-1.542,-1.542,-1.542,-1.542,-1.542,-1.542,-1.6083,-1.7146,-1.8201,-1.8709,-1.9117,-1.9223,-1.938,-1.9512,-1.9656,-1.9708,-1.9798,-1.9798,-1.9798,-1.985,-2.0105,-2.0156,-2.0409,-2.1006,-2.1589,-2.1874,-2.231,-2.2586,-2.2873,-2.2873,-2.2873,-2.2873,-2.2873,-2.2888,-2.2815,-2.2613,-2.2584,-2.2815,-2.2511,-2.2628,-2.2905,-2.3082,-2.3171,-2.326,-2.3334,-2.3422,-2.3509,-2.3509,-2.3538,-2.3566,-2.3595,-2.3595,-2.367,-2.4179,-2.4657,-2.5255,-2.5974,-2.6841,-2.7365,-2.756,-2.756,-2.756,-2.756,-2.756,-2.756,-2.756,-2.756,-2.756,-2.756,-2.756,-2.756,-2.756,-2.756,-2.756,-2.756,-2.756,-2.756,-2.756,-2.756,-2.756,-2.756,-2.756,-2.738,-2.729,-2.6991,-2.6916,-2.6452,-2.6093,-2.5944,-2.563,-2.533,-2.527,-2.5226,-2.5226,-2.539,-2.5884,-2.6333,-2.6393,-2.6288,-2.6647,-2.6976,-2.6976,-2.71,-2.7495,-2.7745,-2.7951,-1.3639,-1.4238,-1.464,-1.5191,-1.5689,-1.5508,-1.543,-1.542,-1.542,-1.542,-1.542,-1.542,-1.542,-1.5468,-1.5806,-1.6415,-1.7424,-1.8536,-1.8999,-1.9105,-1.9316,-1.9473,-1.9565,-1.9708,-1.9798,-1.9798,-1.9798,-1.9798,-1.9901,-2.0308,-2.056,-2.0746,-2.1575,-2.2123,-2.2217,-2.2204,-2.2593,-2.27,-2.27,-2.2714,-2.2714,-2.283,-2.2714,-2.2613,-2.2294,-2.2439,-2.2555,-2.2512,-2.26,-2.2921,-2.3127,-2.3201,-2.3422,-2.3466,-2.3466,-2.3509,-2.3509,-2.3538,-2.3566,-2.3595,-2.3595,-2.3625,-2.4088,-2.4373,-2.4925,-2.5824,-2.6797,-2.7275,-2.7545,-2.756,-2.756,-2.756,-2.756,-2.756,-2.756,-2.756,-2.756,-2.756,-2.756,-2.756,-2.756,-2.7545,-2.753,-2.756,-2.756,-2.756,-2.756,-2.756,-2.756,-2.756,-2.75,-2.72,-2.6901,-2.6393,-2.6078,-2.5704,-2.5465,-2.536,-2.4941,-2.4537,-2.4597,-2.4672,-2.4657,-2.4612,-2.4762,-2.5151,-2.5255,-2.557,-2.6019,-2.6318,-2.6378,-2.6482,-2.6696,-2.7415,-2.7936,-1.2219,-1.2825,-1.3414,-1.4054,-1.4781,-1.5196,-1.542,-1.542,-1.542,-1.542,-1.542,-1.541,-1.541,-1.5633,-1.6528,-1.7313,-1.7984,-1.8602,-1.8999,-1.9105,-1.9316,-1.942,-1.946,-1.9708,-1.9798,-1.9798,-1.9798,-1.9798,-2.0003,-2.0409,-2.061,-2.0809,-2.1266,-2.169,-2.214,-2.1792,-2.1623,-2.2004,-2.2106,-2.2106,-2.2178,-2.2555,-2.2236,-2.1917,-2.2149,-2.2526,-2.2396,-2.2468,-2.2803,-2.3024,-2.3097,-2.3171,-2.3275,-2.3334,-2.3407,-2.3451,-2.3523,-2.3595,-2.3595,-2.3595,-2.3595,-2.3595,-2.3759,-2.4059,-2.4732,-2.56,-2.6437,-2.6677,-2.7171,-2.7455,-2.7455,-2.761,-2.761,-2.7485,-2.746,-2.7425,-2.744,-2.729,-2.732,-2.7365,-2.729,-2.7395,-2.744,-2.7515,-2.756,-2.756,-2.7545,-2.747,-2.7365,-2.7215,-2.6916,-2.6497,-2.6243,-2.5764,-2.527,-2.4896,-2.4807,-2.4747,-2.4403,-2.3924,-2.4088,-2.4192,-2.4041,-2.4041,-2.4161,-2.4401,-2.4732,-2.5138,-2.5511,-2.5659,-2.5719,-2.5719,-2.5749,-2.6626,-2.7597,-1.2166,-1.3078,-1.3381,-1.4112,-1.5001,-1.5294,-1.542,-1.542,-1.542,-1.542,-1.542,-1.542,-1.5584,-1.6026,-1.6866,-1.7479,-1.8147,-1.8709,-1.9052,-1.9158,-1.9316,-1.9473,-1.9565,-1.9708,-1.9798,-1.9798,-1.985,-2.0055,-2.0295,-2.0733,-2.1028,-2.1121,-2.1481,-2.1849,-2.1955,-2.1427,-2.1297,-2.1367,-2.1423,-2.1423,-2.1583,-2.1989,-2.2149,-2.1598,-2.2149,-2.2381,-2.2512,-2.2338,-2.2687,-2.2951,-2.3097,-2.3201,-2.3319,-2.3407,-2.3451,-2.3566,-2.3566,-2.3595,-2.3595,-2.3595,-2.3595,-2.3595,-2.364,-2.3939,-2.4567,-2.5121,-2.5719,-2.6019,-2.6632,-2.6976,-2.7126,-2.7415,-2.7325,-2.7171,-2.7006,-2.6782,-2.6767,-2.6976,-2.6946,-2.6991,-2.6991,-2.6961,-2.6916,-2.6871,-2.6767,-2.6632,-2.6572,-2.6497,-2.6393,-2.6258,-2.5899,-2.5465,-2.527,-2.5061,-2.4552,-2.4103,-2.4206,-2.4176,-2.4176,-2.3816,-2.3771,-2.3769,-2.3894,-2.4105,-2.4441,-2.4541,-2.4539,-2.4504,-2.4702,-2.4882,-2.5061,-2.5213,-2.5394,-2.5755,-2.6658,-1.2351,-1.345,-1.3511,-1.4163,-1.5167,-1.5294,-1.542,-1.542,-1.542,-1.542,-1.542,-1.541,-1.5806,-1.6472,-1.7034,-1.7644,-1.8375,-1.8827,-1.9052,-1.9223,-1.9368,-1.9512,-1.9617,-1.9759,-1.9798,-1.9798,-2.0055,-2.0207,-2.0594,-2.1027,-2.1274,-2.1362,-2.1449,-2.1657,-2.1526,-2.1106,-2.0744,-2.077,-2.0785,-2.0872,-2.1133,-2.1685,-2.183,-2.1859,-2.2048,-2.2367,-2.254,-2.2497,-2.2643,-2.2965,-2.3097,-2.3216,-2.3378,-2.3466,-2.3509,-2.3581,-2.3566,-2.3595,-2.3595,-2.3595,-2.3595,-2.3595,-2.361,-2.3804,-2.4208,-2.4477,-2.4716,-2.5345,-2.5959,-2.6273,-2.6437,-2.6782,-2.6662,-2.6467,-2.6333,-2.6004,-2.5809,-2.6138,-2.6348,-2.6348,-2.6288,-2.6138,-2.6093,-2.6048,-2.5929,-2.5719,-2.56,-2.5555,-2.5586,-2.5556,-2.547,-2.5228,-2.5211,-2.5013,-2.4524,-2.407,-2.3894,-2.3794,-2.3809,-2.3921,-2.4048,-2.4214,-2.4395,-2.4599,-2.4759,-2.4717,-2.4684,-2.4246,-2.3902,-2.4351,-2.4712,-2.4938,-2.5151,-2.5425,-2.6047,-1.2359,-1.3511,-1.3511,-1.3923,-1.4647,-1.5177,-1.542,-1.542,-1.542,-1.542,-1.542,-1.5468,-1.6026,-1.6866,-1.7202,-1.782,-1.8869,-1.9105,-1.917,-1.9275,-1.9485,-1.9565,-1.9668,-1.9708,-1.9825,-1.9889,-2.0079,-2.0343,-2.0584,-2.0726,-2.1063,-2.1231,-2.1069,-2.1077,-2.0886,-2.0494,-2.0262,-2.0262,-2.0306,-2.0567,-2.1032,-2.154,-2.1743,-2.1569,-2.2106,-2.2598,-2.2149,-2.2527,-2.2877,-2.3127,-2.3171,-2.3216,-2.3422,-2.3466,-2.3538,-2.3538,-2.3566,-2.3595,-2.3595,-2.3595,-2.3595,-2.3595,-2.361,-2.364,-2.3849,-2.4328,-2.4627,-2.4701,-2.53,-2.5615,-2.5674,-2.5734,-2.5944,-2.5764,-2.563,-2.5435,-2.5315,-2.548,-2.5659,-2.5674,-2.56,-2.5541,-2.5272,-2.5273,-2.5151,-2.4956,-2.5016,-2.4971,-2.5289,-2.5364,-2.5436,-2.5382,-2.5501,-2.529,-2.4858,-2.4542,-2.4271,-2.423,-2.423,-2.4477,-2.4679,-2.4799,-2.4719,-2.4879,-2.4958,-2.4918,-2.4823,-2.4614,-2.4441,-2.4317,-2.443,-2.4791,-2.5029,-2.5288,-2.6083,-1.2359,-1.3511,-1.3511,-1.4103,-1.505,-1.5294,-1.542,-1.542,-1.542,-1.542,-1.542,-1.5468,-1.5853,-1.6585,-1.709,-1.7644,-1.8429,-1.8999,-1.9105,-1.9275,-1.942,-1.9565,-1.9656,-1.9697,-1.9788,-1.9797,-2.0002,-2.022,-2.0411,-2.0408,-2.0331,-2.0382,-2.0544,-2.0454,-2.0248,-1.9914,-1.9798,-2.0016,-2.0132,-2.0393,-2.1003,-2.1612,-2.1873,-2.1772,-2.2323,-2.2802,-2.2761,-2.2906,-2.3142,-2.3246,-2.329,-2.3378,-2.3451,-2.3494,-2.3538,-2.3538,-2.361,-2.3595,-2.3595,-2.3595,-2.3595,-2.3595,-2.3595,-2.3595,-2.3595,-2.3894,-2.3984,-2.4208,-2.4627,-2.4925,-2.497,-2.533,-2.557,-2.5181,-2.4881,-2.4807,-2.4777,-2.4896,-2.4986,-2.4986,-2.5032,-2.5063,-2.4747,-2.4475,-2.4357,-2.4238,-2.4328,-2.4507,-2.4849,-2.5129,-2.5261,-2.5237,-2.5305,-2.517,-2.4742,-2.4639,-2.4574,-2.4655,-2.4735,-2.4879,-2.5075,-2.4918,-2.4879,-2.5036,-2.523,-2.5307,-2.5269,-2.5098,-2.4942,-2.4759,-2.4679,-2.4782,-2.5012,-2.5227,-2.5887,-1.2536,-1.3511,-1.3752,-1.4401,-1.5352,-1.542,-1.542,-1.542,-1.542,-1.542,-1.542,-1.541,-1.5853,-1.6528,-1.6978,-1.7564,-1.8154,-1.8658,-1.8903,-1.9047,-1.9177,-1.9455,-1.9606,-1.9684,-1.9649,-1.96,-1.9877,-2.0159,-2.0409,-2.0007,-2.0241,-2.0373,-2.0175,-2.0074,-1.9682,-1.942,-1.9362,-1.9696,-1.9841,-2.0262,-2.0915,-2.1394,-2.2062,-2.2149,-2.27,-2.2889,-2.292,-2.3008,-2.3112,-2.3246,-2.3334,-2.3407,-2.348,-2.3523,-2.3566,-2.3566,-2.361,-2.3595,-2.3595,-2.3595,-2.3595,-2.3595,-2.3595,-2.3595,-2.3595,-2.3595,-2.3699,-2.3714,-2.4103,-2.4298,-2.4313,-2.4597,-2.4717,-2.4343,-2.4328,-2.4208,-2.4118,-2.4163,-2.4253,-2.4313,-2.4357,-2.4402,-2.4341,-2.4098,-2.4243,-2.4326,-2.4761,-2.4766,-2.4724,-2.4947,-2.5042,-2.5044,-2.4941,-2.4742,-2.4502,-2.4918,-2.5285,-2.5378,-2.5416,-2.5323,-2.5362,-2.5192,-2.523,-2.5513,-2.5717,-2.577,-2.5717,-2.5589,-2.5384,-2.5121,-2.5176,-2.5269,-2.5153,-2.5358,-2.5416,-1.2826,-1.3571,-1.4172,-1.4756,-1.5362,-1.542,-1.542,-1.542,-1.542,-1.542,-1.542,-1.541,-1.6026,-1.6856,-1.7036,-1.7396,-1.7977,-1.8304,-1.8471,-1.8583,-1.8734,-1.9145,-1.9446,-1.9522,-1.9346,-1.9317,-1.969,-2.0205,-2.0566,-2.0642,-2.0804,-2.0541,-2.0146,-1.9725,-1.9188,-1.913,-1.913,-1.9174,-1.9261,-2.0001,-2.0756,-2.1119,-2.1685,-2.2236,-2.2482,-2.2556,-2.2774,-2.2789,-2.2922,-2.3187,-2.3201,-2.329,-2.3363,-2.3466,-2.3509,-2.3523,-2.3566,-2.3595,-2.3595,-2.3595,-2.3595,-2.3595,-2.3595,-2.3595,-2.3595,-2.3595,-2.3595,-2.3625,-2.3729,-2.3729,-2.3699,-2.3714,-2.3789,-2.3819,-2.3819,-2.3804,-2.3744,-2.3714,-2.3864,-2.3939,-2.3774,-2.3655,-2.3698,-2.3769,-2.4097,-2.4441,-2.5075,-2.5137,-2.4784,-2.4759,-2.4823,-2.4926,-2.4887,-2.4926,-2.4981,-2.5589,-2.597,-2.6043,-2.5934,-2.5717,-2.5717,-2.5717,-2.5828,-2.6007,-2.6007,-2.597,-2.6043,-2.6132,-2.5828,-2.5589,-2.5828,-2.5881,-2.5684,-2.5535,-2.5664,-1.2528,-1.3511,-1.3743,-1.4469,-1.5352,-1.542,-1.542,-1.542,-1.542,-1.542,-1.542,-1.542,-1.5806,-1.6398,-1.6754,-1.7062,-1.7559,-1.7897,-1.8032,-1.7995,-1.8226,-1.8398,-1.8682,-1.8881,-1.8826,-1.9016,-1.9554,-2.0137,-2.0378,-2.0769,-2.0686,-2.0364,-1.987,-1.9362,-1.9159,-1.9159,-1.9275,-1.9682,-1.9856,-2.019,-2.0872,-2.1003,-2.1206,-2.1714,-2.1757,-2.1931,-2.2382,-2.2425,-2.2673,-2.3084,-2.3143,-2.329,-2.3407,-2.3509,-2.3494,-2.3566,-2.3595,-2.3595,-2.3595,-2.3595,-2.3595,-2.3638,-2.3638,-2.3638,-2.3595,-2.3595,-2.3595,-2.3638,-2.3724,-2.3724,-2.3625,-2.3625,-2.3713,-2.367,-2.367,-2.367,-2.3625,-2.3625,-2.3684,-2.3699,-2.3595,-2.3681,-2.3724,-2.4116,-2.442,-2.4313,-2.4823,-2.4863,-2.4639,-2.4533,-2.4574,-2.4823,-2.4926,-2.5137,-2.5384,-2.5828,-2.599,-2.5901,-2.5864,-2.5738,-2.5811,-2.599,-2.5901,-2.5848,-2.599,-2.6115,-2.6079,-2.6079,-2.6132,-2.6096,-2.6168,-2.6168,-2.599,-2.5901,-2.597,-1.2385,-1.3143,-1.349,-1.4108,-1.4916,-1.5283,-1.542,-1.542,-1.542,-1.542,-1.5468,-1.5575,-1.5971,-1.6345,-1.6645,-1.6694,-1.7105,-1.7315,-1.748,-1.7445,-1.7681,-1.8066,-1.8248,-1.8329,-1.8843,-1.908,-1.9561,-2.0085,-2.0371,-2.0768,-2.0643,-2.0117,-1.9449,-1.9217,-1.9116,-1.9174,-1.9261,-1.9551,-1.9638,-1.9928,-2.0436,-2.0683,-2.077,-2.1003,-2.1119,-2.1276,-2.1682,-2.2074,-2.238,-2.2819,-2.3157,-2.3363,-2.345,-2.3523,-2.3566,-2.361,-2.3782,-2.3824,-2.3867,-2.409,-2.4131,-2.4131,-2.3937,-2.3867,-2.3894,-2.4048,-2.409,-2.4131,-2.4006,-2.4048,-2.4006,-2.4006,-2.3964,-2.3964,-2.4006,-2.4006,-2.4006,-2.4048,-2.4048,-2.4006,-2.3964,-2.4006,-2.4006,-2.4486,-2.4926,-2.4704,-2.4502,-2.4558,-2.4695,-2.4735,-2.4815,-2.5075,-2.5307,-2.5551,-2.5663,-2.5791,-2.5864,-2.5775,-2.5811,-2.5848,-2.5937,-2.6079,-2.5901,-2.5758,-2.599,-2.6115,-2.599,-2.5954,-2.6079,-2.6168,-2.6168,-2.6203,-2.6203,-2.6203,-2.6203,-1.2445,-1.2548,-1.3399,-1.3858,-1.4227,-1.4971,-1.5332,-1.541,-1.542,-1.54,-1.5419,-1.5944,-1.6213,-1.6449,-1.6942,-1.6912,-1.6681,-1.6759,-1.6837,-1.6974,-1.7202,-1.7796,-1.8274,-1.8572,-1.879,-1.9381,-1.9943,-2.0215,-2.0429,-2.0623,-2.0509,-2.0074,-1.942,-1.9188,-1.9116,-1.913,-1.9174,-1.9275,-1.9348,-1.9609,-1.9957,-2.0059,-2.0262,-2.0451,-2.0625,-2.0741,-2.1087,-2.1505,-2.1926,-2.2363,-2.2845,-2.3212,-2.3432,-2.3593,-2.3593,-2.3767,-2.412,-2.4245,-2.4328,-2.4599,-2.4704,-2.4623,-2.4517,-2.441,-2.4369,-2.4502,-2.4583,-2.4623,-2.4623,-2.4704,-2.4784,-2.4744,-2.4704,-2.4704,-2.4744,-2.4744,-2.4744,-2.4744,-2.4744,-2.4704,-2.4704,-2.4664,-2.4648,-2.4965,-2.5237,-2.5121,-2.502,-2.5323,-2.5438,-2.5476,-2.5567,-2.5717,-2.5917,-2.6043,-2.6079,-2.599,-2.599,-2.5937,-2.6026,-2.6063,-2.6168,-2.6168,-2.6026,-2.599,-2.6115,-2.6115,-2.6063,-2.6063,-2.6151,-2.6203,-2.6203,-2.6203,-2.6203,-2.6203,-2.6203,-1.1613,-1.2406,-1.2732,-1.3305,-1.4072,-1.4394,-1.4834,-1.5361,-1.541,-1.5436,-1.5492,-1.5659,-1.5999,-1.644,-1.6291,-1.6382,-1.6443,-1.6405,-1.6268,-1.6434,-1.6773,-1.7148,-1.757,-1.7985,-1.8374,-1.9121,-1.9836,-2.0302,-2.0288,-2.045,-2.0335,-2.0016,-1.9406,-1.9174,-1.9116,-1.9116,-1.9116,-1.9116,-1.9116,-1.9261,-1.9391,-1.9478,-1.9667,-1.9769,-1.9827,-1.9986,-2.0418,-2.0872,-2.1292,-2.1601,-2.2284,-2.2668,-2.2445,-2.3176,-2.373,-2.448,-2.4664,-2.4719,-2.4759,-2.4823,-2.4847,-2.49,-2.4925,-2.4965,-2.4863,-2.4831,-2.4965,-2.5059,-2.5114,-2.5153,-2.5153,-2.5137,-2.5114,-2.5153,-2.5153,-2.5153,-2.5153,-2.5153,-2.5153,-2.5153,-2.5114,-2.5153,-2.5137,-2.5291,-2.5481,-2.5481,-2.5572,-2.5828,-2.6007,-2.597,-2.6007,-2.6168,-2.6203,-2.6203,-2.6203,-2.6115,-2.6151,-2.6151,-2.6203,-2.6203,-2.6168,-2.6168,-2.6203,-2.6203,-2.6203,-2.6203,-2.6151,-2.6203,-2.6203,-2.6203,-2.6203,-2.6203,-2.6203,-2.6203,-2.6203,-1.1106,-1.1925,-1.2052,-1.2806,-1.3729,-1.3896,-1.4297,-1.4844,-1.4902,-1.5014,-1.5273,-1.553,-1.5842,-1.6105,-1.6159,-1.6185,-1.6224,-1.6163,-1.6049,-1.6181,-1.6448,-1.6914,-1.7199,-1.7584,-1.8372,-1.91,-1.9753,-2.0241,-2.0157,-1.9835,-1.9682,-1.9638,-1.9232,-1.9159,-1.9116,-1.9116,-1.9116,-1.9116,-1.9116,-1.9116,-1.9116,-1.9116,-1.9116,-1.9116,-1.9116,-1.9391,-1.9773,-2.0272,-2.0771,-2.1164,-2.1903,-2.2375,-2.227,-2.2976,-2.3293,-2.3878,-2.41,-2.4121,-2.4196,-2.4413,-2.4478,-2.4664,-2.5005,-2.5102,-2.5243,-2.5271,-2.54,-2.5513,-2.5476,-2.5476,-2.5422,-2.5422,-2.5422,-2.5422,-2.5438,-2.5422,-2.5438,-2.5454,-2.5438,-2.5438,-2.5476,-2.5476,-2.5551,-2.5701,-2.5775,-2.5828,-2.5864,-2.599,-2.6096,-2.6059,-2.6096,-2.6168,-2.6203,-2.6203,-2.6203,-2.6203,-2.6203,-2.6203,-2.6203,-2.6203,-2.6203,-2.6203,-2.6203,-2.6203,-2.6203,-2.6203,-2.6203,-2.6203,-2.6203,-2.6203,-2.6203,-2.6203,-2.6203,-2.6203,-2.6203,-1.0802,-1.126,-1.1636,-1.2513,-1.3355,-1.3467,-1.3682,-1.3961,-1.4033,-1.4307,-1.4904,-1.5431,-1.5665,-1.5736,-1.6021,-1.6097,-1.6041,-1.5949,-1.5957,-1.6001,-1.6262,-1.6723,-1.7297,-1.7747,-1.845,-1.9415,-2.0038,-2.0157,-1.9947,-1.9624,-1.9275,-1.9116,-1.913,-1.9116,-1.9116,-1.9116,-1.9116,-1.9116,-1.9116,-1.9116,-1.9116,-1.9116,-1.9116,-1.9116,-1.9101,-1.9197,-1.9426,-1.993,-2.0648,-2.1083,-2.163,-2.2269,-2.2587,-2.2726,-2.2841,-2.3155,-2.3597,-2.3735,-2.3872,-2.4027,-2.4065,-2.4298,-2.463,-2.4924,-2.5133,-2.5606,-2.5815,-2.5881,-2.5844,-2.5844,-2.5828,-2.5828,-2.5828,-2.5828,-2.5828,-2.5828,-2.5844,-2.5844,-2.5844,-2.5828,-2.5844,-2.5844,-2.5881,-2.5974,-2.5974,-2.6115,-2.6168,-2.6203,-2.6168,-2.6132,-2.6132,-2.6168,-2.6168,-2.6203,-2.6203,-2.6203,-2.6203,-2.6203,-2.6203,-2.6203,-2.6203,-2.6203,-2.6203,-2.6203,-2.6203,-2.6203,-2.6203,-2.6203,-2.6203,-2.6203,-2.6203,-2.6203,-2.6203,-2.6203,-2.6203,-1.0574,-1.1133,-1.2159,-1.283,-1.3027,-1.3027,-1.3086,-1.3174,-1.3174,-1.3671,-1.4346,-1.4917,-1.5259,-1.5441,-1.5818,-1.5912,-1.5885,-1.5836,-1.5836,-1.6001,-1.6231,-1.6808,-1.7435,-1.7854,-1.8495,-1.919,-1.974,-2.0016,-1.9856,-1.9449,-1.9116,-1.9116,-1.9116,-1.9116,-1.9116,-1.9116,-1.9116,-1.9116,-1.9116,-1.9116,-1.9116,-1.9116,-1.9116,-1.9116,-1.9101,-1.925,-1.9531,-1.9995,-2.0345,-2.0651,-2.1341,-2.2021,-2.2704,-2.2785,-2.3129,-2.3571,-2.3538,-2.3572,-2.3589,-2.3638,-2.3686,-2.3868,-2.4183,-2.4597,-2.511,-2.5806,-2.6134,-2.617,-2.6203,-2.6203,-2.6203,-2.6203,-2.6203,-2.6203,-2.6203,-2.6203,-2.6203,-2.6203,-2.6203,-2.6203,-2.6203,-2.6203,-2.6203,-2.6203,-2.6203,-2.6203,-2.6168,-2.6203,-2.6203,-2.6168,-2.6168,-2.6203,-2.6203,-2.6203,-2.6203,-2.6203,-2.6203,-2.6203,-2.6203,-2.6203,-2.6203,-2.6203,-2.6203,-2.6203,-2.6203,-2.6203,-2.6203,-2.6203,-2.6203,-2.6203,-2.6203,-2.6203,-2.6203,-2.6203,-2.6203,-1.0517,-1.1166,-1.2363,-1.2891,-1.2891,-1.2891,-1.2891,-1.2929,-1.3113,-1.3476,-1.3962,-1.4494,-1.4931,-1.53,-1.5703,-1.5792,-1.5792,-1.5792,-1.6013,-1.6175,-1.6436,-1.7005,-1.753,-1.8001,-1.8475,-1.9056,-1.9397,-1.9609,-1.9624,-1.9406,-1.9116,-1.9116,-1.9116,-1.9116,-1.9116,-1.9116,-1.9116,-1.9116,-1.9116,-1.9101,-1.9101,-1.9116,-1.9116,-1.9116,-1.9139,-1.9288,-1.9457,-1.9823,-2.0104,-2.053,-2.1199,-2.1737,-2.2221,-2.2302,-2.2562,-2.2793,-2.2892,-2.3023,-2.3056,-2.3106,-2.3123,-2.3172,-2.3454,-2.3752,-2.405,-2.4746,-2.5872,-2.5955,-2.617,-2.6203,-2.6203,-2.6203,-2.6203,-2.6203,-2.6203,-2.6203,-2.6203,-2.6203,-2.6203,-2.6203,-2.6203,-2.6203,-2.6203,-2.6203,-2.6203,-2.6203,-2.6203,-2.6203,-2.6203,-2.6203,-2.6203,-2.6203,-2.6203,-2.6203,-2.6203,-2.6203,-2.6203,-2.6203,-2.6203,-2.6203,-2.6203,-2.6203,-2.6203,-2.6203,-2.6203,-2.6203,-2.6203,-2.6203,-2.6203,-2.6203,-2.6203,-2.6203,-2.6203,-2.6203,-2.6203,-1.0568,-1.1275,-1.2412,-1.2891,-1.2891,-1.2891,-1.2891,-1.2978,-1.3392,-1.3621,-1.3842,-1.4302,-1.4949,-1.5457,-1.5792,-1.5792,-1.5836,-1.5957,-1.6175,-1.6392,-1.6565,-1.7186,-1.7707,-1.8094,-1.8539,-1.886,-1.9165,-1.9217,-1.9217,-1.9116,-1.9116,-1.9116,-1.9116,-1.9116,-1.9116,-1.9116,-1.9116,-1.9116,-1.9101,-1.9139,-1.9139,-1.9153,-1.9116,-1.9101,-1.9176,-1.9213,-1.9347,-1.9624,-2.0035,-2.0565,-2.1245,-2.1606,-2.1867,-2.198,-2.1947,-2.2112,-2.2145,-2.2096,-2.2013,-2.2096,-2.2013,-2.2062,-2.2493,-2.2874,-2.3205,-2.3918,-2.5044,-2.5756,-2.5955,-2.6187,-2.6187,-2.6203,-2.6203,-2.6203,-2.6203,-2.6203,-2.6203,-2.6203,-2.6203,-2.6203,-2.6203,-2.6203,-2.6203,-2.6203,-2.6203,-2.6203,-2.6203,-2.6203,-2.6203,-2.6203,-2.6203,-2.6203,-2.6203,-2.6203,-2.6203,-2.6203,-2.6203,-2.6203,-2.6203,-2.6203,-2.6203,-2.6203,-2.6203,-2.6203,-2.6203,-2.6203,-2.6203,-2.6203,-2.6203,-2.6203,-2.6203,-2.6203,-2.6203,-2.6203,-2.6203,-1.0787,-1.1968,-1.2627,-1.2891,-1.2891,-1.2891,-1.2891,-1.2978,-1.3382,-1.38,-1.4212,-1.4686,-1.5153,-1.5289,-1.5659,-1.5792,-1.5836,-1.6088,-1.6306,-1.6522,-1.682,-1.7393,-1.7922,-1.8266,-1.8525,-1.886,-1.9078,-1.9116,-1.9116,-1.9116,-1.9116,-1.9116,-1.9116,-1.9116,-1.9116,-1.9116,-1.9116,-1.9116,-1.9139,-1.9213,-1.9398,-1.9325,-1.9153,-1.9213,-1.942,-1.9696,-2.0015,-2.0376,-2.0763,-2.1166,-2.1448,-2.1648,-2.1754,-2.1768,-2.1797,-2.1781,-2.1781,-2.1781,-2.1781,-2.1781,-2.1781,-2.1797,-2.2212,-2.2377,-2.2708,-2.3073,-2.4166,-2.5226,-2.5574,-2.6071,-2.6154,-2.6187,-2.6203,-2.6203,-2.6203,-2.6203,-2.6203,-2.6203,-2.6203,-2.6203,-2.6203,-2.6203,-2.6203,-2.6203,-2.6203,-2.6203,-2.6203,-2.6203,-2.6203,-2.6203,-2.6203,-2.6203,-2.6203,-2.6203,-2.6203,-2.6203,-2.6203,-2.6203,-2.6203,-2.6203,-2.6203,-2.6203,-2.6203,-2.6203,-2.6203,-2.6203,-2.6203,-2.6203,-2.6203,-2.6203,-2.6203,-2.6203,-2.6203,-2.6203,-2.6203]}]]